[[{"header":{"parameterUnit":"m.s-1","parameterCategory":1,"la1":30.6,"la2":29.2853,"lo1":-89.7004,"lo2":-87.6739,"dy":0.0162,"dx":0.0183,"nx":112,"ny":82,"refTime":"2025-05-19T18:00:00:Z","depth":0,"parameterNumber":2,"parameterNumberName":"U-component_of_WINDS"},"data":[0.0,0.0,0.0,0.0,0.0,0.0,0.0,0.0,0.0,0.0,0.0,0.0,0.0,0.0,0.0,0.0,0.0,0.0,0.0,0.0,0.0,0.0,0.0,0.0,0.0,0.0,0.0,0.0,0.0,0.0,0.0,0.0,0.0,0.0,0.0,0.0,0.0,0.0,0.0,0.0,0.0,0.0,0.0,0.0,0.0,0.0,0.0,0.0,0.0,0.0,0.0,0.0,0.0,0.0,0.0,0.0,0.0,0.0,0.0,0.0,0.0,0.0,0.0,0.0,0.0,0.0,0.0,0.0,0.0,0.0,0.0,0.0,0.0,0.0,0.0,0.0,0.0,0.0,0.0,0.0,0.0,0.0,0.0,0.0,0.0,0.0,0.0,0.0,0.0,0.0,-4.9893,-5.5111,-6.1286,-6.5395,-6.6427,-6.4682,-6.0784,-5.4264,0.0,0.0,0.0,0.0,0.0,0.0,0.0,0.0,0.0,0.0,0.0,0.0,0.0,0.0,0.0,0.0,0.0,0.0,0.0,0.0,0.0,0.0,0.0,0.0,0.0,0.0,0.0,0.0,0.0,0.0,0.0,0.0,0.0,0.0,0.0,0.0,0.0,0.0,0.0,0.0,0.0,0.0,0.0,0.0,0.0,0.0,0.0,0.0,0.0,0.0,0.0,0.0,0.0,0.0,0.0,0.0,0.0,0.0,0.0,0.0,0.0,0.0,0.0,0.0,0.0,0.0,0.0,0.0,0.0,0.0,0.0,0.0,0.0,0.0,0.0,0.0,0.0,0.0,0.0,0.0,0.0,0.0,0.0,0.0,0.0,0.0,0.0,0.0,0.0,0.0,0.0,0.0,0.0,0.0,0.0,0.0,0.0,0.0,0.0,0.0,0.0,0.0,0.0,0.0,-5.1128,-5.953,-6.3198,-6.5387,-6.6313,-6.3739,-6.0092,-5.555,0.0,0.0,0.0,0.0,0.0,0.0,0.0,0.0,0.0,0.0,0.0,0.0,0.0,0.0,0.0,0.0,0.0,0.0,0.0,0.0,0.0,0.0,0.0,0.0,0.0,0.0,0.0,0.0,0.0,0.0,0.0,0.0,0.0,0.0,0.0,0.0,0.0,0.0,0.0,0.0,0.0,0.0,0.0,0.0,0.0,0.0,0.0,0.0,0.0,0.0,0.0,0.0,0.0,0.0,0.0,0.0,0.0,0.0,0.0,0.0,0.0,0.0,0.0,0.0,0.0,0.0,0.0,0.0,0.0,0.0,0.0,0.0,0.0,0.0,0.0,0.0,0.0,0.0,0.0,0.0,0.0,0.0,0.0,0.0,0.0,0.0,0.0,0.0,0.0,0.0,0.0,0.0,0.0,0.0,0.0,0.0,0.0,0.0,0.0,0.0,0.0,0.0,0.0,-4.9796,-5.4258,-6.1363,-6.3862,-6.5394,-6.6344,-6.3875,-6.0256,-5.5408,-5.0796,0.0,0.0,0.0,0.0,0.0,0.0,0.0,0.0,0.0,0.0,0.0,0.0,0.0,0.0,0.0,0.0,0.0,0.0,0.0,0.0,0.0,0.0,0.0,0.0,0.0,0.0,0.0,0.0,0.0,0.0,0.0,0.0,0.0,0.0,0.0,0.0,0.0,0.0,0.0,0.0,0.0,0.0,0.0,0.0,0.0,0.0,0.0,0.0,0.0,0.0,0.0,0.0,0.0,0.0,0.0,0.0,0.0,0.0,0.0,0.0,0.0,0.0,0.0,0.0,0.0,0.0,0.0,0.0,0.0,0.0,0.0,0.0,0.0,0.0,0.0,0.0,0.0,0.0,0.0,0.0,0.0,0.0,0.0,0.0,0.0,0.0,0.0,0.0,0.0,0.0,0.0,0.0,0.0,0.0,0.0,0.0,0.0,0.0,0.0,0.0,0.0,0.0,-5.4363,-5.722,-6.2043,-6.3834,-6.4961,-6.5715,-6.3111,-5.9427,-5.4713,-4.8946,0.0,0.0,0.0,0.0,0.0,0.0,0.0,0.0,0.0,0.0,0.0,0.0,0.0,0.0,0.0,0.0,0.0,0.0,0.0,0.0,0.0,0.0,0.0,0.0,0.0,0.0,0.0,0.0,0.0,0.0,0.0,0.0,0.0,0.0,0.0,0.0,0.0,0.0,0.0,0.0,0.0,0.0,0.0,0.0,0.0,0.0,0.0,0.0,0.0,0.0,0.0,0.0,0.0,0.0,0.0,0.0,0.0,0.0,0.0,0.0,0.0,0.0,0.0,0.0,0.0,0.0,0.0,0.0,0.0,0.0,0.0,0.0,0.0,0.0,0.0,0.0,0.0,0.0,0.0,0.0,0.0,0.0,0.0,0.0,0.0,0.0,0.0,0.0,0.0,0.0,0.0,0.0,0.0,0.0,0.0,0.0,0.0,0.0,0.0,0.0,0.0,0.0,-5.504,-5.89,-6.2092,-6.3242,-6.3834,-6.3975,-5.9935,-5.6304,-5.3736,-4.6672,0.0,0.0,0.0,0.0,0.0,0.0,0.0,0.0,0.0,0.0,0.0,0.0,0.0,0.0,0.0,0.0,0.0,0.0,0.0,0.0,0.0,0.0,0.0,0.0,0.0,0.0,0.0,0.0,0.0,0.0,0.0,0.0,0.0,0.0,0.0,0.0,0.0,0.0,0.0,0.0,0.0,0.0,0.0,0.0,0.0,0.0,0.0,0.0,0.0,0.0,0.0,0.0,0.0,0.0,0.0,0.0,0.0,0.0,0.0,0.0,0.0,0.0,0.0,0.0,0.0,0.0,0.0,0.0,0.0,0.0,0.0,0.0,0.0,0.0,0.0,0.0,0.0,0.0,0.0,0.0,0.0,0.0,0.0,0.0,0.0,0.0,0.0,0.0,0.0,0.0,0.0,0.0,0.0,0.0,0.0,0.0,0.0,0.0,0.0,0.0,0.0,0.0,-5.3923,-5.7509,-6.1907,-6.3199,-6.3516,-6.3101,-6.0646,-5.7133,-5.2475,0.0,0.0,0.0,0.0,0.0,0.0,0.0,0.0,0.0,0.0,0.0,0.0,0.0,0.0,0.0,0.0,0.0,0.0,0.0,0.0,0.0,0.0,0.0,0.0,0.0,0.0,0.0,0.0,0.0,0.0,0.0,0.0,0.0,0.0,0.0,0.0,0.0,0.0,0.0,0.0,0.0,0.0,0.0,0.0,0.0,0.0,0.0,0.0,0.0,0.0,0.0,0.0,0.0,0.0,0.0,0.0,0.0,0.0,0.0,0.0,0.0,0.0,0.0,0.0,0.0,0.0,0.0,0.0,0.0,0.0,0.0,0.0,0.0,0.0,0.0,0.0,0.0,0.0,0.0,0.0,0.0,0.0,0.0,0.0,0.0,0.0,0.0,0.0,0.0,0.0,0.0,0.0,0.0,0.0,0.0,0.0,0.0,0.0,0.0,0.0,0.0,0.0,-5.027,-5.3788,-5.7374,-6.1907,-6.2931,-6.3011,-6.2263,-5.9967,-5.6326,-5.0983,0.0,0.0,0.0,0.0,0.0,0.0,0.0,0.0,0.0,0.0,0.0,0.0,0.0,0.0,0.0,0.0,0.0,0.0,0.0,0.0,0.0,0.0,0.0,0.0,0.0,0.0,0.0,0.0,0.0,0.0,0.0,0.0,0.0,0.0,0.0,0.0,0.0,0.0,0.0,0.0,0.0,0.0,0.0,0.0,0.0,0.0,0.0,0.0,0.0,0.0,0.0,0.0,0.0,0.0,0.0,0.0,0.0,0.0,0.0,0.0,0.0,0.0,0.0,0.0,0.0,0.0,0.0,0.0,0.0,0.0,0.0,0.0,0.0,0.0,0.0,0.0,0.0,0.0,0.0,0.0,0.0,0.0,0.0,0.0,0.0,0.0,0.0,0.0,0.0,0.0,0.0,0.0,0.0,0.0,0.0,0.0,0.0,0.0,0.0,0.0,0.0,0.0,-5.0439,-5.5108,-5.9032,-6.2076,-6.2381,-6.2123,-6.1465,-5.726,-5.3064,0.0,0.0,0.0,0.0,0.0,0.0,0.0,0.0,0.0,0.0,0.0,0.0,0.0,0.0,0.0,0.0,0.0,0.0,0.0,0.0,0.0,0.0,0.0,0.0,0.0,0.0,0.0,0.0,0.0,0.0,0.0,0.0,0.0,0.0,0.0,0.0,0.0,0.0,0.0,0.0,0.0,0.0,0.0,0.0,0.0,0.0,0.0,0.0,0.0,0.0,0.0,0.0,0.0,0.0,0.0,0.0,0.0,0.0,0.0,0.0,0.0,0.0,0.0,0.0,0.0,0.0,0.0,0.0,0.0,0.0,0.0,0.0,0.0,0.0,0.0,0.0,0.0,0.0,0.0,0.0,0.0,0.0,0.0,0.0,0.0,0.0,0.0,0.0,0.0,0.0,0.0,0.0,0.0,0.0,0.0,0.0,0.0,0.0,0.0,0.0,0.0,0.0,0.0,-5.0439,-5.5108,-5.9032,-6.2076,-6.2381,-6.1888,-6.0594,-5.83,-5.4669,-4.9346,0.0,0.0,0.0,0.0,0.0,0.0,0.0,0.0,0.0,0.0,0.0,0.0,0.0,0.0,0.0,0.0,0.0,0.0,0.0,0.0,0.0,0.0,0.0,0.0,0.0,0.0,0.0,0.0,0.0,0.0,0.0,0.0,0.0,0.0,0.0,0.0,0.0,0.0,0.0,0.0,0.0,0.0,0.0,0.0,0.0,0.0,0.0,0.0,0.0,0.0,0.0,0.0,0.0,0.0,0.0,0.0,0.0,0.0,0.0,0.0,0.0,0.0,0.0,0.0,0.0,0.0,0.0,0.0,0.0,0.0,0.0,0.0,0.0,0.0,0.0,0.0,0.0,0.0,0.0,0.0,0.0,0.0,0.0,0.0,0.0,0.0,0.0,0.0,0.0,0.0,0.0,0.0,0.0,0.0,0.0,0.0,0.0,0.0,0.0,0.0,0.0,0.0,-5.0439,-5.5108,-5.9032,-6.2076,-6.2381,-6.1772,-6.0216,-5.8727,-5.5344,-4.939,0.0,0.0,0.0,0.0,0.0,0.0,0.0,0.0,0.0,0.0,0.0,0.0,0.0,0.0,0.0,0.0,0.0,0.0,0.0,0.0,0.0,0.0,0.0,0.0,0.0,0.0,0.0,0.0,0.0,0.0,0.0,0.0,0.0,0.0,0.0,0.0,0.0,0.0,0.0,0.0,0.0,0.0,0.0,0.0,0.0,0.0,0.0,0.0,0.0,0.0,0.0,0.0,0.0,0.0,0.0,0.0,0.0,0.0,0.0,0.0,0.0,0.0,0.0,0.0,0.0,0.0,0.0,0.0,0.0,0.0,0.0,0.0,0.0,0.0,0.0,0.0,0.0,0.0,0.0,0.0,0.0,0.0,0.0,0.0,0.0,0.0,0.0,0.0,0.0,0.0,0.0,0.0,0.0,0.0,0.0,0.0,0.0,0.0,0.0,0.0,0.0,0.0,-5.0473,-5.5175,-5.9133,-6.2076,-6.2381,-6.1772,-6.0216,-5.8795,-5.5513,-4.9661,0.0,0.0,0.0,0.0,0.0,0.0,0.0,0.0,0.0,0.0,0.0,0.0,0.0,0.0,0.0,0.0,0.0,0.0,0.0,0.0,0.0,0.0,0.0,0.0,0.0,0.0,0.0,0.0,0.0,0.0,0.0,0.0,0.0,0.0,0.0,0.0,0.0,0.0,0.0,0.0,0.0,0.0,0.0,0.0,0.0,0.0,0.0,0.0,0.0,0.0,0.0,0.0,0.0,0.0,0.0,0.0,0.0,0.0,0.0,0.0,-5.0541,-4.8612,0.0,0.0,0.0,0.0,0.0,0.0,0.0,0.0,0.0,0.0,0.0,0.0,0.0,0.0,0.0,0.0,0.0,0.0,0.0,0.0,0.0,0.0,0.0,0.0,0.0,0.0,0.0,0.0,0.0,0.0,0.0,0.0,0.0,0.0,0.0,0.0,0.0,0.0,0.0,0.0,-5.0608,-5.5649,-5.9708,-6.2144,-6.2381,-6.1772,-6.0216,-5.9302,-5.6731,-5.1894,-4.8105,0.0,0.0,0.0,0.0,0.0,0.0,0.0,0.0,0.0,0.0,0.0,0.0,0.0,0.0,0.0,0.0,0.0,0.0,0.0,0.0,0.0,0.0,0.0,0.0,0.0,0.0,0.0,0.0,0.0,0.0,0.0,0.0,0.0,0.0,0.0,0.0,0.0,0.0,0.0,0.0,0.0,0.0,0.0,0.0,0.0,0.0,0.0,0.0,0.0,0.0,0.0,0.0,0.0,0.0,0.0,0.0,0.0,0.0,0.0,-5.5784,-5.3822,0.0,0.0,0.0,0.0,0.0,0.0,0.0,0.0,0.0,0.0,0.0,0.0,0.0,0.0,0.0,0.0,0.0,0.0,0.0,0.0,0.0,0.0,0.0,0.0,0.0,0.0,0.0,0.0,0.0,0.0,0.0,0.0,0.0,0.0,0.0,0.0,0.0,0.0,0.0,0.0,-5.1183,-5.5987,-5.9877,-6.2144,-6.2076,-6.14,-6.0216,-5.9099,-5.6867,-5.3112,-5.0033,0.0,0.0,0.0,0.0,0.0,0.0,0.0,0.0,0.0,0.0,0.0,0.0,0.0,0.0,0.0,0.0,0.0,0.0,0.0,0.0,0.0,0.0,0.0,0.0,0.0,0.0,0.0,0.0,0.0,0.0,0.0,0.0,0.0,0.0,0.0,0.0,0.0,0.0,0.0,0.0,0.0,0.0,0.0,0.0,0.0,0.0,0.0,0.0,0.0,0.0,0.0,0.0,0.0,-5.9877,-6.1061,-6.3328,-6.2854,-6.3328,-6.4309,-6.1332,-5.9877,-5.9404,-5.6664,0.0,0.0,0.0,0.0,0.0,0.0,0.0,0.0,0.0,0.0,0.0,0.0,0.0,0.0,0.0,0.0,0.0,0.0,0.0,0.0,0.0,0.0,0.0,0.0,-5.7239,-5.6934,-5.0507,0.0,0.0,0.0,0.0,0.0,0.0,0.0,0.0,0.0,0.0,0.0,-5.2164,-5.6494,-5.9979,-6.1975,-6.167,-6.0926,-5.9979,-5.8795,-5.69,-5.4059,-5.1894,-4.9154,0.0,0.0,0.0,0.0,0.0,0.0,0.0,0.0,0.0,0.0,0.0,0.0,0.0,0.0,0.0,0.0,0.0,0.0,0.0,0.0,0.0,0.0,0.0,0.0,0.0,0.0,0.0,0.0,0.0,0.0,0.0,0.0,-4.2594,-4.5415,0.0,0.0,0.0,0.0,0.0,0.0,0.0,0.0,0.0,0.0,0.0,0.0,0.0,-5.8017,-6.008,-6.2854,-6.4106,-6.3903,-6.6406,-6.7455,-6.7184,-6.7793,-6.8199,-6.8368,-6.8504,0.0,-6.1806,-6.008,0.0,0.0,0.0,0.0,0.0,0.0,0.0,0.0,0.0,0.0,0.0,0.0,0.0,0.0,0.0,0.0,0.0,0.0,0.0,0.0,0.0,0.0,-6.1095,-6.0554,-6.1129,-6.1163,0.0,-5.3856,-4.9018,-4.6413,-4.3944,-4.1644,0.0,0.0,0.0,0.0,0.0,0.0,-5.3788,-5.7611,-6.0351,-6.1332,-6.1366,-6.0723,-5.9268,-5.8964,-5.7881,-5.5581,-5.3923,-5.1961,-4.9458,-4.6104,0.0,0.0,0.0,0.0,0.0,0.0,0.0,0.0,0.0,0.0,0.0,0.0,0.0,0.0,0.0,0.0,0.0,0.0,0.0,0.0,0.0,0.0,0.0,0.0,0.0,0.0,0.0,0.0,0.0,-4.1834,-4.497,-4.7056,-4.7165,-4.6786,0.0,0.0,0.0,0.0,0.0,0.0,0.0,0.0,0.0,-5.937,-6.0892,-6.255,-6.4377,-6.6068,-6.7218,-6.776,-6.9079,-6.9755,-6.9823,-7.0195,-7.0364,-7.0364,-7.0669,-6.9282,-6.6609,-6.4681,-6.1738,-5.8321,0.0,0.0,0.0,0.0,-5.6325,-5.6731,-6.025,-6.096,-6.0182,-5.9201,0.0,0.0,0.0,0.0,0.0,0.0,0.0,0.0,0.0,0.0,-6.3159,-6.3632,-6.4343,-6.458,-6.3463,-5.9945,-5.5716,0.0,-5.0168,-4.8308,-4.3464,-4.3639,0.0,0.0,0.0,-5.2063,-5.5412,-5.7983,-5.9945,-6.1163,-6.052,-5.9742,-5.9066,-5.8254,-5.7171,-5.5818,-5.4702,-5.3281,-5.142,-4.8984,-4.6278,0.0,0.0,0.0,0.0,0.0,0.0,0.0,0.0,0.0,0.0,0.0,0.0,0.0,0.0,0.0,0.0,0.0,0.0,0.0,0.0,0.0,0.0,0.0,0.0,0.0,0.0,0.0,0.0,-4.4823,-4.7361,-4.8818,-5.0033,-5.027,0.0,0.0,0.0,0.0,0.0,0.0,-5.7814,-5.9539,-6.1569,-6.4038,-6.5189,-6.6474,-6.7963,-6.8504,-6.935,-7.0466,-7.0466,-7.077,-7.1312,-7.1312,-7.1312,-7.1312,-7.1312,-7.1007,-7.0331,-6.8233,-6.5764,-6.3091,-6.1772,-6.0351,-5.9302,-6.1366,-6.1873,-6.2076,-6.5797,-6.6711,-6.5967,-6.4174,-6.2516,-6.0452,-5.619,0.0,0.0,0.0,0.0,-5.8829,-6.1467,-6.3091,-6.441,-6.5662,-6.6406,-6.6609,-6.5865,-6.4241,-6.1467,0.0,-5.5784,-5.4093,-4.8203,-4.8376,0.0,0.0,0.0,-5.389,-5.6731,-5.822,-5.9438,-6.0588,-5.9708,-5.8863,-5.849,-5.7442,-5.6393,-5.548,-5.4905,-5.3991,-5.2672,-5.1352,-4.9357,-4.6616,0.0,0.0,0.0,0.0,0.0,0.0,0.0,0.0,0.0,0.0,0.0,0.0,0.0,0.0,0.0,0.0,0.0,0.0,0.0,0.0,0.0,0.0,0.0,0.0,0.0,0.0,0.0,0.0,0.0,-5.1894,-5.4025,0.0,0.0,0.0,0.0,-5.6292,-5.778,-6.025,-6.3937,-6.4275,-6.5696,-6.8673,-6.8842,-6.9586,-7.1075,-7.1109,-7.1176,-7.1244,-7.1244,-7.1278,-7.1312,-7.1312,-7.1312,-7.1312,-7.1312,-7.1312,-7.1142,-6.962,-6.7624,-6.5459,-6.4681,-6.3463,-6.2347,-6.3869,-6.485,-6.5628,-6.7286,-6.7827,-6.7996,-6.9316,-6.732,-6.4072,-6.2381,-6.0385,0.0,0.0,-6.0926,-6.2482,-6.4038,-6.5019,-6.5764,-6.6576,-6.6779,-6.6609,-6.5865,-6.5053,-6.3768,0.0,-5.866,-5.619,-5.4397,0.0,-5.3179,-5.3112,-5.389,-5.5277,-5.7543,-5.8524,-5.9032,-5.9133,-5.9066,-5.8457,-5.7036,-5.6833,-5.619,-5.4735,-5.46,-5.4262,-5.3484,-5.2638,-5.115,-4.8883,-4.5162,0.0,0.0,0.0,0.0,0.0,0.0,0.0,0.0,0.0,0.0,0.0,0.0,0.0,0.0,0.0,0.0,0.0,0.0,0.0,0.0,0.0,0.0,0.0,0.0,0.0,0.0,0.0,0.0,-5.5649,-5.7915,0.0,-5.7442,-5.8287,-5.9539,-6.0994,-6.2482,-6.4546,-6.7354,-6.7929,-6.891,-7.0466,-7.0534,-7.077,-7.1312,-7.1312,-7.1312,-7.1312,-7.1312,-7.1312,-7.1312,-7.1312,-7.1312,-7.1312,-7.1312,-7.1312,-7.1278,-7.0737,-6.9755,-6.8571,-6.8301,-6.759,-6.6812,-6.7827,-6.8368,-6.8741,-6.9755,-7.0094,-7.0026,-6.962,-6.8233,-6.644,-6.4952,-6.3937,-6.3362,-6.3632,-6.4072,-6.4749,-6.5764,-6.6203,-6.6474,-6.6745,-6.6812,-6.6745,-6.6474,-6.5459,-6.4377,-6.3565,-6.14,-5.893,-5.6427,-5.6596,-5.6731,-5.5784,-5.6258,-5.734,-5.9099,-5.8727,-5.849,-5.8964,-5.8592,-5.7881,-5.69,-5.6359,-5.5683,-5.4668,-5.3653,-5.301,-5.2739,-5.1995,-5.0574,-4.8342,-4.6515,-4.2929,0.0,0.0,0.0,0.0,0.0,0.0,0.0,0.0,0.0,0.0,0.0,0.0,0.0,0.0,0.0,0.0,0.0,0.0,0.0,0.0,0.0,0.0,0.0,0.0,0.0,0.0,-5.6427,-5.8389,-6.1095,-6.2482,-6.1704,-6.2787,-6.4038,-6.5324,-6.6542,-6.7963,-6.9755,-7.0297,-7.0804,-7.1312,-7.1548,-7.1548,-7.1312,-7.1548,-7.1548,-7.1312,-7.1312,-7.1312,-7.1312,-7.1312,-7.1312,-7.1312,-7.1312,-7.1312,-7.1312,-7.1312,-7.1007,-7.0567,-7.0567,-7.0263,-6.9891,-7.0398,-7.0567,-7.0635,-7.1142,-7.1312,-7.1109,-6.9857,-6.9113,-6.8436,-6.7218,-6.6846,-6.6779,-6.6508,-6.644,-6.6508,-6.6745,-6.6812,-6.6812,-6.6812,-6.6812,-6.6812,-6.6812,-6.5662,-6.4613,-6.4613,-6.3024,-6.096,-5.8727,-5.9133,-5.937,-5.8118,-5.8321,-5.8896,-5.9641,-5.8863,-5.8355,-5.8592,-5.8186,-5.7476,-5.6528,-5.5987,-5.5277,-5.4296,-5.301,-5.23,-5.23,-5.1352,-5.0033,-4.8308,-4.6549,-4.3572,-3.9377,0.0,0.0,0.0,0.0,0.0,0.0,0.0,0.0,0.0,0.0,0.0,0.0,0.0,0.0,0.0,0.0,0.0,0.0,0.0,0.0,0.0,0.0,0.0,-5.2435,-5.5649,-5.8592,-6.008,-6.3531,-6.5493,-6.4816,-6.6711,-6.8301,-6.9079,-6.9823,-7.0534,-7.1278,-7.1345,-7.1345,-7.1345,-7.2056,-7.209,-7.1379,-7.209,-7.2056,-7.1345,-7.1379,-7.1379,-7.1345,-7.1379,-7.1379,-7.1345,-7.1345,-7.1345,-7.1312,-7.1312,-7.1312,-7.1312,-7.1312,-7.1312,-7.1312,-7.1312,-7.1312,-7.1312,-7.1312,-7.1312,-7.121,-7.0466,-7.0229,-7.0094,-6.935,-6.9147,-6.8977,-6.8132,-6.7895,-6.7726,-6.7015,-6.6812,-6.6812,-6.6812,-6.6812,-6.6812,-6.6812,-6.5662,-6.4613,-6.4613,-6.3396,-6.2178,-6.1467,-6.1332,-6.1061,-6.0283,-6.0148,0.0,-5.9133,-5.9032,-5.8727,-5.7983,-5.7881,-5.7306,-5.5886,-5.5681,-5.5074,-5.3585,-5.2739,-5.2266,-5.2266,-5.0879,-4.9763,-4.9052,-4.537,-4.3166,-4.2388,0.0,0.0,0.0,0.0,0.0,0.0,0.0,0.0,0.0,0.0,0.0,0.0,0.0,0.0,0.0,0.0,0.0,0.0,0.0,0.0,0.0,-5.2435,-5.4972,-5.548,-5.8795,-6.1907,-6.3903,-6.6,-6.7421,-6.7827,-6.891,-6.9654,-6.9857,-7.0567,-7.1109,-7.1312,-7.1819,-7.209,-7.209,-7.28,-7.3105,-7.2902,-7.3105,-7.2834,-7.209,-7.2631,-7.2631,-7.2124,-7.2665,-7.2597,-7.209,-7.209,-7.1785,-7.1312,-7.1312,-7.1312,-7.1312,-7.1312,-7.1312,-7.1312,-7.1312,-7.1312,-7.1312,-7.1312,-7.1312,-7.1278,-7.1075,-7.1007,-7.0872,-7.0128,-6.9891,-6.962,-6.8267,-6.7895,-6.7726,-6.7015,-6.6812,-6.6812,-6.6812,-6.6812,-6.6812,-6.6812,-6.5662,-6.4613,-6.4613,-6.3396,-6.2313,-6.211,-6.211,-6.2009,-6.1806,-6.1298,0.0,-5.9911,-5.9336,-5.8727,-5.7983,-5.7881,-5.7509,-5.6596,-5.6021,-5.5074,-5.3585,-5.2266,-5.1522,-5.1522,-5.0608,-4.9999,-4.9796,-4.7192,-4.55,0.0,0.0,0.0,0.0,0.0,0.0,0.0,0.0,0.0,0.0,0.0,0.0,0.0,0.0,0.0,0.0,0.0,0.0,0.0,0.0,0.0,0.0,-5.5886,-5.8626,-6.0283,-6.2415,-6.4478,-6.6373,-6.7929,-6.918,-6.9958,-7.0398,-7.0669,-7.0669,-7.1075,-7.1447,-7.1751,-7.2157,-7.2529,-7.2834,-7.3578,-7.3815,-7.3477,-7.3815,-7.3578,-7.2868,-7.3274,-7.3274,-7.2868,-7.3274,-7.3105,-7.2394,-7.2394,-7.1988,-7.1312,-7.1312,-7.1312,0.0,0.0,0.0,0.0,0.0,-7.1312,-7.1312,-7.1312,-7.1312,-7.1312,-7.1312,-7.1312,-7.1244,-7.0804,-7.0669,-7.0331,-6.8842,-6.8402,-6.8166,-6.7083,-6.6812,-6.6812,-6.6812,-6.6812,-6.6812,-6.6812,-6.5662,-6.4613,-6.4613,-6.3396,0.0,-6.2381,-6.2381,-6.2381,-6.2381,-6.2042,-6.1366,-6.025,-5.9742,-5.9066,-5.8017,-5.7881,-5.7577,-5.6867,-5.6122,0.0,0.0,0.0,-5.1386,-5.0777,-5.0338,0.0,0.0,0.0,0.0,0.0,0.0,0.0,0.0,-4.594,-4.5872,0.0,0.0,0.0,0.0,0.0,0.0,0.0,0.0,0.0,0.0,0.0,0.0,0.0,0.0,0.0,0.0,-5.937,-6.2753,-6.5425,-6.6034,-6.6677,-6.7996,-6.935,-7.0466,-7.1244,-7.1312,-7.1312,-7.1312,-7.1379,-7.1718,-7.236,0.0,0.0,0.0,0.0,-7.4424,-7.3747,-7.439,-7.4356,-7.3612,-7.368,-7.368,-7.3612,-7.3713,-7.3308,-7.2529,-7.2529,-7.2056,-7.1312,-7.1312,-7.1312,-7.1312,-7.1312,-7.1312,-7.1312,-7.1312,-7.1312,-7.1312,-7.1312,0.0,0.0,-7.1312,-7.1312,-7.1312,-7.1312,-7.1312,-7.1007,-6.962,-6.9147,-6.8774,-6.732,-6.688,-6.6812,-6.6812,-6.6812,-6.6812,-6.6812,-6.573,-6.4681,-6.4613,-6.3463,-6.2482,-6.2415,-6.2381,-6.2381,-6.2381,-6.2381,-6.1839,-6.0283,-6.0114,-5.9539,-5.8051,0.0,0.0,-5.6968,-5.6258,-5.5513,-5.4769,-5.3281,-5.1792,-5.0405,-5.0439,-5.0439,-5.0338,-5.0439,-5.1116,-5.2435,-5.2503,-5.2604,-5.2604,-4.8578,-4.8071,0.0,0.0,0.0,0.0,0.0,0.0,0.0,0.0,0.0,0.0,0.0,0.0,0.0,0.0,0.0,-5.8795,-6.2381,-6.5256,-6.644,-6.8166,-6.9417,-6.9722,-6.9992,-7.0466,-7.1244,-7.1312,-7.1312,-7.1312,-7.1853,-7.2259,-7.2394,-7.3544,-7.4255,-7.439,-7.51,-7.5405,-7.527,-7.5405,-7.5134,-7.439,0.0,0.0,-7.4424,-7.4999,-7.4525,-7.3274,-7.3274,-7.2529,-7.1312,-7.1312,-7.1312,-7.1312,-7.1312,-7.1312,-7.1312,-7.1312,-7.1312,-7.1312,-7.1312,-7.1312,-7.1312,-7.1312,-7.1312,-7.1312,-7.1312,-7.1312,0.0,-7.0229,-6.9553,-6.8876,-6.7929,-6.7252,-6.6812,-6.6812,-6.6812,-6.6812,-6.6812,-6.6102,-6.529,-6.4715,-6.3903,-6.3091,-6.2482,-6.2381,-6.2381,-6.2381,-6.2381,-6.1839,-6.0283,-6.0114,-5.9539,-5.8051,-5.7881,-5.7814,-5.7679,-5.7002,-5.6292,-5.5547,-5.4093,-5.2841,-5.1894,-5.2503,-5.2536,-5.1894,-5.2503,-5.2976,-5.3281,-5.3856,-5.4465,-5.5006,-5.3551,-5.2875,0.0,0.0,0.0,0.0,0.0,0.0,0.0,0.0,0.0,0.0,0.0,-5.1488,-5.4093,0.0,-5.9911,-6.2482,-6.4783,-6.6779,-6.8301,-6.9485,-7.0195,-7.0195,-7.0534,-7.0906,-7.1278,-7.1312,-7.1312,-7.1312,-7.1988,-7.2563,-7.2935,-7.4018,-7.4796,-7.5134,-7.5506,-7.5709,-7.5709,-7.5709,-7.5506,-7.5168,-7.5506,-7.5506,-7.5168,-7.554,-7.4897,-7.3477,-7.3477,-7.2665,-7.1312,-7.1312,-7.1312,-7.1312,-7.1312,-7.1312,-7.1312,-7.1312,-7.1312,-7.1312,-7.1312,-7.1312,-7.1312,-7.1312,-7.1312,-7.1312,-7.1312,-7.1312,-7.1142,-7.0398,-6.9654,-6.891,-6.8098,-6.7354,-6.6812,-6.6812,-6.6812,-6.6812,-6.6812,-6.5933,-6.5019,-6.4681,-6.37,-6.2821,-6.2448,-6.2381,-6.2381,-6.2381,-6.2381,-6.1975,-6.0858,-6.0351,-5.9674,-5.8558,-5.8118,-5.7881,-5.7881,-5.7205,-5.6494,-5.5749,-5.5006,-5.4431,-5.4025,-5.4397,-5.4431,-5.4025,-5.4397,-5.46,-5.46,-5.4972,-5.5344,-5.5681,-5.5716,-5.531,0.0,0.0,0.0,0.0,0.0,0.0,0.0,0.0,-4.9695,-5.1454,-5.3991,-5.6494,-5.8423,-6.0994,-6.3497,-6.5561,-6.6677,-6.7963,-6.9891,-7.0297,-7.0398,-7.0398,-7.0939,-7.1312,-7.1312,-7.1312,-7.1312,-7.1312,-7.2124,-7.2868,-7.3443,-7.4356,-7.51,-7.5676,-7.5709,-7.5709,-7.5709,-7.5709,-7.5709,-7.5709,-7.5709,-7.5709,-7.5709,-7.5709,-7.4897,-7.3477,-7.3172,-7.2394,-7.1312,-7.1312,-7.1312,-7.1312,-7.1312,-7.1312,-7.1312,-7.1312,-7.1312,-7.1312,-7.1312,-7.1312,-7.1312,-7.1312,-7.1312,-7.1312,-7.1312,-7.1312,-7.1176,-7.0567,-6.9789,-6.8944,-6.8301,-6.7489,-6.6812,-6.6812,-6.6812,-6.6812,-6.6812,-6.5865,-6.4952,-6.4647,-6.3632,-6.2719,-6.2448,-6.2381,-6.2381,-6.2381,-6.2381,-6.211,-6.14,-6.0723,-6.0047,-5.9302,-5.8558,-5.8051,-5.7915,-5.734,-5.6697,-5.5987,-5.5919,-5.5852,-5.5716,-5.5681,-5.5681,-5.5681,-5.5681,-5.5749,-5.5919,-5.5919,-5.6021,-5.6156,-5.6731,-5.663,-4.4402,-4.4688,-4.5906,-4.7902,-4.8037,-4.9021,0.0,0.0,-5.4634,-5.7442,-5.937,-6.0825,-6.1738,-6.3226,-6.485,-6.644,-6.7895,-6.9147,-7.006,-7.077,-7.1176,-7.1176,-7.1278,-7.1312,-7.1312,-7.1312,-7.1312,-7.1312,-7.2597,-7.3409,-7.3477,-7.4796,-7.5608,-7.5709,-7.5709,-7.5709,-7.5709,-7.5709,-7.5709,-7.5709,-7.5709,-7.5709,-7.5709,-7.5709,-7.4897,-7.3409,-7.2124,-7.1447,-7.1312,-7.1312,-7.1312,-7.1312,-7.1312,-7.1312,-7.1312,-7.1312,-7.1312,-7.1312,-7.1312,-7.1312,-7.1312,-7.1312,-7.1312,-7.1312,-7.1312,-7.1312,-7.1312,-7.121,-7.0161,-6.9079,-6.8977,-6.7895,-6.6812,-6.6812,-6.6812,-6.6812,-6.6812,-6.6677,-6.617,-6.485,-6.4478,-6.3937,-6.2618,-6.2381,-6.2381,-6.2381,-6.2381,-6.211,-6.14,-6.1231,-6.0858,-6.0047,-5.9336,-5.8626,-5.7949,-5.7814,-5.7442,-5.6731,-5.6697,-5.6393,-5.575,-5.5681,-5.5681,-5.5681,-5.5681,-5.6021,-5.6697,-5.6697,-5.7002,-5.7645,-5.7712,-5.7374,-4.8772,-4.8984,-4.9458,0.0,-5.301,-5.4363,-5.6867,-5.7983,-5.8964,-6.0655,-6.2178,-6.3463,-6.4174,-6.5189,-6.6373,0.0,-6.8673,-6.9519,-7.0669,-7.0737,-7.0669,-7.0669,-7.0669,-7.0838,-7.1278,-7.1312,-7.1312,-7.1312,-7.2665,-7.3477,-7.3477,-7.4897,-7.5709,-7.5709,-7.5709,-7.5709,-7.5709,-7.5709,-7.5709,-7.5709,-7.5709,-7.5709,-7.5709,-7.5709,-7.4897,-7.3409,-7.1954,-7.1312,-7.1312,-7.1312,-7.1312,-7.1312,-7.1312,-7.1312,-7.1312,-7.1312,-7.1312,-7.1312,-7.1312,-7.1312,-7.1312,-7.1312,-7.1312,-7.1312,-7.1312,-7.1312,-7.1312,-7.1312,-7.0263,-6.9113,-6.9113,-6.7963,-6.6812,-6.6812,-6.6812,-6.6812,-6.6812,-6.6474,-6.5865,-6.4816,-6.4241,-6.3632,-6.2584,-6.2381,-6.2381,-6.2381,-6.2381,-6.2279,-6.1975,-6.1569,-6.0994,-6.0182,-5.981,-5.9336,-5.8592,-5.8558,-5.822,-5.7476,-5.7442,-5.7306,-5.7002,-5.6968,-5.6968,-5.6968,-5.6968,-5.7137,-5.7442,-5.7442,-5.7577,-5.7881,-5.7881,-5.7712,-5.0913,-5.1758,-5.2638,-5.4702,-5.6867,-5.866,-5.9302,-6.0892,-6.2415,-6.3159,-6.414,-6.5053,-6.5595,-6.6136,-6.7015,-6.8538,-6.8977,-6.962,-7.1109,-7.0669,-7.0195,-7.0195,-6.9992,-7.0195,-7.0939,-7.1176,-7.1312,-7.1312,-7.2665,-7.3477,-7.3477,-7.4897,-7.5709,-7.5709,-7.5709,-7.5709,-7.5709,-7.5709,-7.5709,-7.5709,-7.5709,-7.5709,-7.5676,-7.527,-7.4492,-7.3409,-7.1954,-7.1312,-7.1312,-7.1312,-7.1312,-7.1312,-7.1312,-7.1312,-7.1312,-7.1312,-7.1312,-7.1312,-7.1312,-7.1312,-7.1312,-7.1312,-7.1312,-7.1312,-7.1312,-7.1312,-7.1312,-7.1312,-7.0263,-6.9113,-6.9113,-6.7963,-6.6812,-6.6812,-6.6812,-6.6812,-6.6812,-6.6373,-6.573,-6.4783,-6.4174,-6.3497,-6.255,-6.2381,-6.2381,-6.2381,-6.2381,-6.2381,-6.2381,-6.1941,-6.1298,-6.052,-6.0419,-6.0114,-5.937,-5.9302,-5.8998,-5.8254,-5.8186,-5.8118,-5.7915,-5.7881,-5.7881,-5.7881,-5.7881,-5.7881,-5.7881,-5.7881,-5.7881,-5.7881,-5.8084,-5.8186,-4.9458,-5.1725,-5.4837,-5.6359,-5.8389,-6.0622,-6.2854,-6.3937,-6.4715,-6.5425,-6.5628,-6.5662,-6.5696,-6.5696,-6.6203,-6.7692,-6.8605,-6.962,-7.1109,-7.0669,-7.0195,-7.0195,-6.9553,-6.9417,0.0,-7.0872,-7.1312,-7.1312,-7.2665,-7.3477,-7.3477,-7.4897,-7.5709,-7.5709,-7.5709,-7.5709,-7.5709,-7.5709,-7.5709,-7.5709,-7.5709,-7.5709,-7.5642,-7.4221,-7.3544,-7.3409,-7.1954,-7.1312,-7.1312,-7.1312,-7.1312,-7.1312,-7.1312,-7.1312,-7.1312,-7.1312,-7.1312,-7.1312,-7.1312,-7.1312,-7.1312,-7.1312,-7.1312,-7.1312,-7.1312,-7.1312,-7.1312,-7.1312,-7.0263,-6.9113,-6.9113,-6.7963,-6.6812,-6.6812,-6.6812,-6.6812,-6.6812,-6.6779,-6.6339,-6.4884,-6.458,-6.4106,-6.2651,-6.2381,-6.2381,-6.2381,-6.2381,-6.2381,-6.2381,-6.2381,-6.2076,-6.1332,-6.1264,-6.0926,-6.0148,-6.008,-5.9742,-5.9032,-5.8998,-5.866,-5.7915,-5.7881,-5.7881,-5.7881,-5.7881,-5.7881,-5.7881,-5.7881,-5.7881,-5.7915,-5.8626,-5.8998,-5.2909,0.0,-5.7273,-5.9268,-6.1467,-6.3396,-6.4681,-6.5527,-6.6,-6.573,-6.529,-6.4816,-6.4343,-6.4241,-6.4884,-6.6846,-6.7827,-6.9011,-7.1041,-7.0669,-6.9992,-6.9519,-6.9688,0.0,0.0,0.0,0.0,-7.1278,-7.2665,-7.3477,-7.3477,-7.4897,-7.5709,-7.5709,-7.5709,-7.5709,-7.5709,-7.5709,-7.5709,-7.5709,-7.5709,-7.5709,-7.5642,-7.4153,-7.3477,-7.3409,-7.1954,-7.1312,-7.1312,-7.1312,-7.1312,-7.1312,-7.1312,-7.1312,-7.1312,-7.1312,-7.1312,-7.1312,-7.1312,-7.1312,-7.1312,-7.1312,-7.1312,-7.1312,-7.1312,-7.1312,-7.1312,-7.1312,-7.0263,-6.9113,-6.9113,-6.7963,-6.6812,-6.6812,-6.6812,-6.6812,-6.6812,-6.6812,-6.6373,-6.4884,-6.4613,-6.414,-6.2651,-6.2381,-6.2381,-6.2381,-6.2381,-6.2381,-6.2381,-6.2381,-6.2279,-6.2042,-6.2009,-6.1704,-6.096,-6.0892,-6.0554,-5.9776,-5.9742,-5.9607,-5.937,-5.937,-5.9133,-5.866,-5.9099,-5.9133,-5.8626,-5.9133,-5.937,-5.937,-5.9607,-5.9742,-5.5615,-5.7543,-5.9302,-6.1839,-6.3734,-6.5121,-6.5561,-6.6068,-6.6068,-6.4783,-6.3937,-6.3125,-6.211,-6.1907,-6.2719,-6.5222,-6.6474,-6.7996,-7.0567,-7.05,-6.9992,-6.9553,-6.9688,-6.9722,0.0,0.0,0.0,-7.1244,-7.2428,-7.3206,-7.3477,-7.4661,-7.5439,-7.5676,-7.5709,-7.5709,-7.5709,-7.5709,-7.5709,-7.5709,-7.5709,-7.5574,-7.527,-7.4052,-7.3341,-7.3037,-7.1853,-7.1312,-7.1312,-7.1312,-7.1312,-7.1312,-7.1312,-7.1312,-7.1312,-7.1312,-7.1312,-7.1312,-7.1312,-7.1312,-7.1312,-7.1312,-7.1312,-7.1312,-7.1312,-7.1312,-7.1312,-7.1312,-7.0263,-6.9113,-6.9113,-6.7963,-6.6812,-6.6812,-6.6812,-6.6812,-6.6812,-6.6812,-6.6373,-6.4884,-6.4613,-6.414,-6.2651,-6.2381,-6.2381,-6.2381,-6.2381,-6.2381,-6.2381,-6.2381,-6.2381,-6.2381,-6.2381,-6.2212,-6.1738,-6.167,-6.1366,-6.0588,-6.052,-6.0385,-6.0114,-6.0114,-5.9877,-5.9404,-5.9877,-5.9877,-5.9404,-5.9877,-6.0114,-6.0114,-6.0385,-6.0486,-5.7442,-5.9167,-6.1028,-6.3937,-6.5189,-6.5696,-6.5696,-6.5595,-6.4884,-6.2719,-6.1637,-6.0588,0.0,0.0,-5.9877,-6.2854,-6.4647,-6.6745,-6.9755,-7.0229,-7.0229,0.0,0.0,0.0,0.0,0.0,0.0,-7.1278,0.0,-7.2766,-7.3443,-7.4255,-7.4999,-7.5676,-7.5709,-7.5709,-7.5709,-7.5709,-7.5709,-7.5709,-7.5709,-7.5303,-7.4593,-7.3815,-7.3105,-7.236,-7.1616,-7.1312,-7.1312,-7.1312,-7.1312,-7.1312,-7.1312,-7.1312,-7.1312,-7.1312,-7.1312,-7.1312,-7.1312,-7.1312,-7.1312,-7.1312,-7.1312,-7.1312,-7.1312,-7.1312,-7.1312,-7.1312,-7.0263,-6.9113,-6.9113,-6.7963,-6.6812,-6.6812,-6.6812,-6.6812,-6.6812,-6.6812,-6.6373,-6.4952,-6.4613,-6.4072,-6.2651,-6.2381,-6.2381,-6.2381,-6.2381,-6.2381,-6.2381,-6.2381,-6.2381,-6.2381,-6.2381,-6.2381,-6.2381,-6.2381,-6.211,-6.14,-6.1366,-6.1028,-6.025,-6.0216,-6.0216,-6.0148,-6.0216,-6.0216,-6.0148,-6.0216,-6.0216,-6.025,-6.0994,-6.1226,-5.9674,-6.1907,-6.3768,-6.5087,-6.5561,-6.5696,-6.5696,-6.441,-6.2753,-6.1028,-5.9235,-5.734,0.0,0.0,0.0,-6.0588,-6.3632,0.0,-6.9755,-7.0669,0.0,-7.0263,0.0,-7.0601,-7.0229,-7.0703,0.0,0.0,-7.2496,-7.3274,-7.3477,-7.4728,-7.5506,-7.5676,-7.5709,-7.5709,-7.5709,-7.5709,-7.5709,-7.5709,-7.5709,-7.5303,-7.4593,-7.3815,-7.3105,-7.236,-7.1616,-7.1312,-7.1312,-7.1312,-7.1312,-7.1312,-7.1312,-7.1312,-7.1312,-7.1312,-7.1312,-7.1312,-7.1312,-7.1312,-7.1312,-7.1312,-7.1312,-7.1312,-7.1312,-7.1312,-7.1312,-7.1312,-7.0263,-6.9113,-6.9113,-6.7963,-6.6812,-6.6812,-6.6812,-6.6812,-6.6812,-6.6812,-6.6542,-6.5595,-6.4546,-6.3497,-6.255,-6.2381,-6.2381,-6.2381,-6.2381,-6.2381,-6.2381,-6.2381,-6.2381,-6.2381,-6.2381,-6.2381,-6.2381,-6.2381,-6.2313,-6.211,-6.211,-6.2009,-6.1806,-6.1806,-6.1569,-6.0994,-6.1535,-6.1535,-6.0994,-6.1535,-6.1806,-6.1806,-6.2009,-6.2076,-6.1637,-6.3632,-6.5256,-6.6,-6.5933,-6.5358,-6.4038,-6.2516,-6.0486,-5.734,-5.5683,0.0,-5.1928,-5.3348,0.0,0.0,0.0,0.0,-6.8774,-7.0398,-7.1142,0.0,-7.1075,0.0,-7.0737,-7.1075,-7.1312,0.0,-7.236,-7.3138,-7.3477,-7.4593,-7.5371,-7.5676,-7.5709,-7.5709,-7.5709,-7.5709,-7.5709,-7.5709,-7.5371,-7.483,-7.4086,-7.3341,-7.2597,-7.1887,0.0,-7.1312,-7.1312,-7.1312,-7.1312,-7.1312,-7.1312,-7.1312,-7.1312,-7.1312,-7.1312,-7.1312,-7.1312,-7.1312,-7.1312,-7.1312,-7.1312,-7.1312,-7.1312,-7.1312,-7.1312,-7.1312,-7.0466,-6.9519,-6.918,-6.8199,-6.7218,-6.688,-6.6812,-6.6812,-6.6812,-6.6812,-6.6576,-6.5831,-6.4512,-6.3396,-6.2956,-6.2618,-6.2381,-6.2381,-6.2381,-6.2381,-6.2381,-6.2381,-6.2381,-6.2381,-6.2381,-6.2381,-6.2381,-6.2381,-6.2381,-6.2381,-6.2381,-6.2381,-6.2381,-6.2381,-6.2212,-6.1772,-6.2178,-6.2178,-6.1772,-6.2178,-6.2381,-6.2381,-6.2381,-6.2381,-6.3294,-6.4715,-6.6,-6.6643,-6.6102,-6.4681,-6.1941,-6.0317,-5.7983,-5.301,0.0,-5.1048,-4.8815,-5.0473,-5.3112,-5.6021,0.0,-6.441,-6.7489,-6.9789,-7.121,-7.1312,-7.1312,-7.1312,-7.1312,-7.1312,-7.1312,-7.1312,-7.1988,-7.2732,-7.3443,-7.4289,-7.5033,-7.5676,-7.5709,-7.5642,-7.554,-7.554,-7.5506,-7.5405,-7.4762,-7.4086,-7.3308,-7.2699,-7.1988,-7.1312,-7.1312,0.0,-7.1312,-7.1312,-7.1312,-7.1312,-7.1312,-7.1312,-7.1312,-7.1312,-7.1312,-7.1312,-7.1312,-7.1312,-7.1312,-7.1312,-7.1312,-7.1312,-7.1312,-7.1312,-7.1312,-7.1312,-7.077,-7.0026,-6.9282,-6.8504,-6.7726,-6.6981,-6.6812,-6.6812,-6.6812,-6.6812,-6.6576,-6.5831,-6.4681,-6.3768,-6.3666,-6.3024,-6.255,-6.255,-6.2448,-6.2381,-6.2381,-6.2381,-6.2381,-6.2381,-6.2381,-6.2381,-6.2381,-6.2381,-6.2381,-6.2381,-6.2381,-6.2381,-6.2381,-6.2381,-6.2381,-6.2381,-6.2381,-6.2381,-6.2381,-6.2381,-6.2381,-6.2381,-6.2381,-6.2381,-6.4174,-6.5493,-6.6643,-6.6779,-6.5358,-6.3429,-6.1704,-5.8321,0.0,0.0,-4.9526,-4.8003,-4.5771,-4.868,-5.2198,-5.46,-5.9268,-6.3835,-6.7387,-6.935,-7.0635,0.0,-7.1312,-7.1312,-7.1312,-7.1312,0.0,0.0,-7.1988,-7.2732,-7.3443,-7.4762,-7.5574,-7.5709,-7.5709,-7.5405,-7.4796,-7.4796,-7.4492,-7.3849,-7.3747,-7.3308,-7.2597,-7.2462,-7.1988,-7.1312,-7.1312,0.0,-7.1312,-7.1312,-7.1312,-7.1312,-7.1312,-7.1312,-7.1312,-7.1312,-7.1312,-7.1312,-7.1312,-7.1312,-7.1312,-7.1312,-7.1312,-7.1312,-7.1312,-7.1312,-7.1312,-7.1312,-7.077,-7.0026,-6.9282,-6.8504,-6.7726,-6.6981,-6.6812,-6.6812,-6.6812,-6.6812,-6.6576,-6.5831,-6.5493,-6.5121,-6.4512,-6.3802,-6.3328,-6.3328,-6.2787,-6.2381,-6.2381,-6.2381,-6.2381,-6.2381,-6.2381,-6.2381,-6.2381,-6.2381,-6.2381,-6.2381,-6.2381,-6.2381,-6.2381,-6.2381,-6.2381,-6.2381,-6.2381,-6.2381,-6.2381,-6.2381,-6.2381,-6.2381,-6.2381,-6.2381,-6.441,-6.5696,-6.6711,-6.6339,-6.4546,-6.2144,-5.9099,0.0,0.0,0.0,-4.6346,-4.5201,-4.4181,-4.6989,0.0,-5.2469,0.0,0.0,-6.5595,-6.7489,0.0,-7.1075,-7.1312,-7.1312,0.0,-7.1312,-7.1312,-7.1312,0.0,-7.2563,-7.2902,-7.395,-7.4559,-7.4559,-7.4559,-7.439,-7.4018,-7.4018,-7.3849,-7.3477,-7.3105,-7.2732,-7.2394,-7.1988,-7.165,-7.1312,-7.1312,0.0,-7.1312,-7.1312,-7.1312,-7.1312,-7.1312,-7.1312,-7.1312,-7.1312,-7.1312,-7.1312,-7.1312,-7.1312,-7.1312,-7.1312,-7.1312,-7.1312,-7.1312,-7.1312,-7.1312,-7.1312,-7.1075,-7.05,-6.9383,-6.8808,-6.8233,-6.7083,-6.6812,-6.6812,-6.6812,-6.6812,-6.6711,-6.6339,-6.5967,-6.5561,-6.5222,-6.4546,-6.3937,-6.3565,-6.3193,-6.2821,-6.2448,-6.2381,-6.2381,-6.2381,-6.2381,-6.2381,-6.2381,-6.2381,-6.2381,-6.2381,-6.2381,-6.2381,-6.2381,-6.2381,-6.2381,-6.2381,-6.2381,-6.2381,-6.2381,-6.2381,-6.2381,-6.2381,-6.2381,-6.2381,-6.4174,-6.5561,-6.6643,-6.5865,-6.3903,-6.1028,-5.6697,-5.3112,0.0,0.0,-4.3707,-4.3139,-4.3139,0.0,-4.8176,0.0,-5.4465,0.0,0.0,0.0,0.0,0.0,-7.121,0.0,-7.1312,-7.1312,0.0,-7.1312,0.0,0.0,-7.2631,-7.3172,-7.3477,-7.3477,-7.3477,-7.3409,-7.324,-7.324,-7.3172,-7.3003,-7.2428,-7.2157,-7.2157,-7.1582,-7.1312,-7.1312,-7.1312,0.0,0.0,-7.1312,-7.1312,-7.1312,-7.1312,-7.1312,-7.1312,-7.1312,-7.1312,-7.1312,-7.1312,-7.1312,-7.1312,-7.1312,-7.1312,-7.1312,-7.1312,-7.1312,-7.1312,-7.1312,-7.1312,-7.1007,-6.9688,-6.9214,-6.8707,-6.7184,-6.6812,-6.6812,-6.6812,-6.6812,-6.6812,-6.6812,-6.6339,-6.5933,-6.5933,-6.5324,-6.4647,-6.4072,-6.37,-6.3294,-6.2719,-6.2482,-6.2381,-6.2381,-6.2381,-6.2381,-6.2381,-6.2381,-6.2381,-6.2381,-6.2381,-6.2381,-6.2381,-6.2381,-6.2381,-6.2381,-6.2381,-6.2381,-6.2381,-6.2381,-6.2381,-6.2381,-6.2381,-6.2381,-6.3396,-6.5189,-6.6643,-6.5865,-6.3531,-6.0419,-5.6596,0.0,0.0,-4.4288,-4.2929,-4.2388,-4.2388,-4.4316,0.0,0.0,0.0,-5.6697,0.0,0.0,0.0,0.0,0.0,0.0,-7.1312,-7.1312,0.0,0.0,0.0,0.0,-7.3308,-7.3443,-7.3477,-7.3477,-7.3477,-7.3172,-7.2496,-7.2496,-7.2157,-7.1515,-7.1447,-7.1413,-7.1413,-7.1345,-7.1312,-7.1312,-7.1312,0.0,0.0,-7.1312,-7.1312,-7.1312,-7.1312,-7.1312,-7.1312,-7.1312,-7.1312,-7.1312,-7.1312,-7.1312,-7.1312,-7.1312,-7.1312,-7.1312,-7.1312,-7.1312,-7.1312,-7.1312,-7.1312,-7.1109,-7.0297,-6.9586,-6.8707,-6.7184,-6.6812,-6.6812,-6.6812,-6.6812,-6.6812,-6.6812,-6.6779,-6.6711,-6.6711,-6.6102,-6.5561,-6.5493,-6.4377,-6.3497,-6.3429,-6.2821,-6.2381,-6.2381,-6.2381,-6.2381,-6.2381,-6.2381,-6.2381,-6.2381,-6.2381,-6.2381,-6.2381,-6.2381,-6.2381,-6.2381,-6.2381,-6.2381,-6.2381,-6.2381,-6.2381,-6.2381,-6.2381,-6.2381,-6.1839,-6.3802,-6.529,-6.4546,-6.2144,-5.8964,-5.5243,0.0,-4.6752,-4.3436,-4.1779,-4.1264,-4.2117,-4.3403,-4.5297,0.0,0.0,0.0,0.0,0.0,0.0,0.0,0.0,0.0,0.0,0.0,0.0,0.0,0.0,0.0,-7.2157,-7.2191,-7.2191,-7.2191,-7.2191,-7.2022,-7.1751,-7.1751,-7.1616,-7.1312,-7.1312,-7.1312,-7.1312,-7.1312,-7.1312,-7.1312,-7.1312,0.0,0.0,-7.1312,-7.1312,-7.1312,-7.1312,-7.1312,-7.1312,-7.1312,-7.1312,-7.1312,-7.1312,-7.1312,-7.1312,-7.1312,-7.1312,-7.1312,-7.1312,-7.1312,-7.1312,-7.1312,-7.1312,-7.1142,-7.0398,-6.9282,-6.8098,-6.7049,-6.6812,-6.6812,-6.6812,-6.6812,-6.6812,-6.6812,-6.6812,-6.6812,-6.6812,-6.6576,-6.6203,-6.5764,-6.5189,-6.4647,-6.4241,-6.3531,-6.3057,-6.3057,-6.2651,-6.2381,-6.2381,-6.2381,-6.2381,-6.2381,-6.2381,-6.2381,-6.2381,-6.2381,-6.2381,-6.2381,-6.2381,-6.2381,-6.2381,-6.2381,-6.2381,-6.2381,-6.2381,-6.2381,-6.0148,-6.2245,-6.3768,-6.3057,-6.0757,-5.7712,0.0,-4.9864,-4.594,-4.2895,-4.1305,-4.0823,-4.2049,-4.2895,-4.422,0.0,0.0,0.0,0.0,0.0,0.0,0.0,0.0,0.0,0.0,0.0,0.0,0.0,0.0,0.0,-7.1312,-7.1312,-7.1312,-7.1312,-7.1312,-7.1312,-7.1312,-7.1312,-7.1312,-7.1312,-7.1312,-7.1312,-7.1312,-7.1312,-7.1312,-7.1312,-7.1312,0.0,0.0,-7.1312,-7.1312,-7.1312,-7.1312,-7.1312,-7.1312,-7.1312,-7.1312,-7.1312,-7.1312,-7.1312,-7.1312,-7.1312,-7.1312,-7.1312,-7.1312,-7.1312,-7.1312,-7.1312,-7.1312,-7.1075,-7.0128,-6.9079,-6.7996,-6.7049,-6.6812,-6.6812,-6.6812,-6.6812,-6.6812,-6.6812,-6.6812,-6.6812,-6.6812,-6.6812,-6.6643,-6.6102,-6.5831,-6.5602,-6.5304,-6.4417,-6.3761,-6.362,-6.3159,-6.2725,-6.2415,-6.2381,-6.2381,-6.2381,-6.2381,-6.2381,-6.2381,-6.2381,-6.2381,-6.2381,-6.2381,-6.2381,-6.2381,-6.2381,-6.2381,-6.2381,-6.2381,-6.2381,-5.8423,-6.0689,-6.2245,-6.1501,-5.9607,-5.6934,-5.3179,-4.9458,-4.594,-4.2895,-4.1711,-4.1407,-4.2151,-4.2895,-4.3882,-4.5466,0.0,0.0,0.0,0.0,0.0,0.0,0.0,0.0,0.0,0.0,0.0,0.0,0.0,0.0,-7.1312,-7.1312,-7.1312,-7.1312,-7.1312,-7.1312,-7.1312,-7.1312,-7.1312,-7.1312,-7.1312,-7.1312,-7.1312,-7.1312,-7.1312,-7.1312,0.0,0.0,0.0,-7.1312,-7.1312,-7.1312,-7.1312,-7.1312,-7.1312,-7.1312,-7.1312,-7.1312,-7.1312,-7.1312,-7.1312,-7.1312,-7.1312,-7.1312,-7.1312,-7.1312,-7.1312,-7.1312,-7.1312,-7.0973,-6.9485,-6.9113,-6.8707,-6.7184,-6.6812,-6.6812,-6.6812,-6.6812,-6.6812,-6.6812,-6.6812,-6.6812,-6.6812,-6.6812,-6.6812,-6.6812,-6.617,-6.5948,-6.6656,-6.5515,-6.4404,-6.3944,-6.3903,-6.3509,-6.2482,-6.2381,-6.2381,-6.2381,-6.2381,-6.2381,-6.2381,-6.2381,-6.2381,-6.2381,-6.2381,-6.2381,-6.2381,-6.2381,-6.2381,-6.2381,-6.2381,-6.2381,-5.3484,-5.5716,-5.7543,-5.6292,-5.5006,-5.3382,-5.0676,-4.797,-4.5331,-4.2794,-4.1711,-4.1441,-4.2151,-4.2895,-4.439,-4.7462,-4.8342,0.0,0.0,0.0,0.0,0.0,0.0,0.0,0.0,0.0,0.0,0.0,0.0,0.0,-7.1312,-7.1312,-7.1312,-7.1312,-7.1312,-7.1312,-7.1312,-7.1312,-7.1312,-7.1312,-7.1312,-7.1312,-7.1312,-7.1312,-7.1312,0.0,0.0,0.0,0.0,-7.1312,-7.1312,-7.1312,-7.1312,-7.1312,-7.1312,-7.1312,-7.1312,-7.1312,-7.1312,-7.1312,-7.1312,-7.1312,-7.1312,-7.1312,-7.1312,-7.1312,-7.1312,-7.1312,-7.1312,-7.0973,-6.9485,-6.9113,-6.8707,-6.7184,-6.6812,-6.6812,-6.6812,-6.6812,-6.6812,-6.6812,-6.6812,-6.6812,-6.6812,-6.6812,-6.6812,-6.6812,-6.6609,-6.6508,-6.6795,-6.6403,-6.603,-6.5929,-6.5,-6.3829,-6.2487,-6.2403,-6.2381,-6.2381,-6.2381,-6.2381,-6.2381,-6.2381,-6.2381,-6.2381,-6.2381,-6.2381,-6.2381,-6.2381,-6.2381,-6.2381,-6.2381,-6.2381,-4.9999,-5.2164,-5.3754,-5.2875,-5.2063,-5.0879,-4.868,-4.6684,-4.4621,-4.2354,-4.1508,-4.1339,-4.1813,-4.2726,-4.4153,-4.6515,-4.7834,0.0,0.0,0.0,0.0,0.0,0.0,0.0,0.0,0.0,0.0,0.0,0.0,0.0,-7.1312,-7.1312,-7.1312,-7.1312,-7.1312,-7.1312,-7.1312,-7.1312,-7.1312,-7.1312,-7.1312,-7.1312,-7.1312,-7.1312,-7.1312,0.0,0.0,0.0,0.0,-7.1312,-7.1312,-7.1312,-7.1312,-7.1312,-7.1312,-7.1312,-7.1312,-7.1312,-7.1312,-7.1312,-7.1312,-7.1312,-7.1312,-7.1312,-7.1312,-7.1312,-7.1312,-7.1312,-7.1312,-7.0973,-6.9485,-6.9258,-6.8919,-6.7218,-6.6812,-6.6812,-6.6812,-6.6812,-6.6812,-6.6812,-6.6812,-6.6812,-6.6812,-6.6812,-6.6812,-6.6812,-6.6812,-6.6812,-6.6812,-6.6795,-6.6777,-6.6777,-6.5955,-6.5067,-6.4167,-6.3045,-6.2403,-6.2381,-6.2381,-6.2381,-6.2381,-6.2381,-6.2381,-6.2381,-6.2381,-6.2381,-6.2381,-6.2381,-6.2381,-6.2381,-6.2381,-6.2381,0.0,-4.956,-5.0678,-5.0576,-5.0101,-4.9052,-4.6955,-4.5427,0.0,-4.1644,-4.1204,-4.1271,-4.1407,-4.2523,-4.3511,-4.3882,-4.6249,0.0,0.0,0.0,0.0,0.0,0.0,0.0,0.0,0.0,0.0,0.0,0.0,0.0,-7.1312,-7.1312,-7.1312,-7.1312,-7.1312,-7.1312,-7.1312,-7.1312,-7.1312,-7.1312,-7.1312,-7.1312,-7.1312,-7.1312,-7.1312,0.0,0.0,0.0,0.0,-7.1312,-7.1312,-7.1312,-7.1312,-7.1312,-7.1312,-7.1312,-7.1312,-7.1312,-7.1312,-7.1312,-7.1312,-7.1312,-7.1312,-7.1312,-7.1312,-7.1312,-7.1312,-7.1312,-7.1312,-7.0973,-6.9519,-6.9471,-6.9277,-6.7252,-6.6812,-6.6812,-6.6812,-6.6812,-6.6812,-6.6812,-6.6812,-6.6812,-6.6812,-6.6812,-6.6812,-6.6812,-6.6812,-6.6812,-6.6812,-6.6812,-6.6812,-6.6812,-6.681,-6.6792,-6.6799,-6.4093,-6.238,-6.2409,-6.2415,-6.2415,-6.2415,-6.2381,-6.2381,-6.2381,-6.2381,-6.2381,-6.2381,-6.2381,-6.2381,-6.2381,-6.2381,-6.2381,-4.2794,0.0,-4.5872,-4.4688,-4.4688,-4.4688,0.0,-4.3064,-4.2523,-4.1441,-4.1204,-4.1745,-4.3498,-4.3572,-4.4694,-4.8717,-4.9492,-5.0574,0.0,0.0,0.0,0.0,0.0,0.0,0.0,0.0,0.0,0.0,0.0,-7.1312,-7.1312,-7.1312,-7.1312,-7.1312,-7.1312,-7.1312,-7.1312,-7.1312,-7.1312,-7.1312,-7.1312,-7.1312,-7.1312,-7.1312,-7.1312,0.0,0.0,0.0,-7.1312,-7.1312,-7.1312,-7.1312,-7.1312,-7.1312,-7.1312,-7.1312,-7.1312,-7.1312,-7.1312,-7.1312,-7.1312,-7.1312,-7.1312,-7.1312,-7.1312,-7.1312,-7.1312,-7.1312,-7.1312,-7.1041,-6.9911,-6.9684,-6.9277,-6.7252,-6.6812,-6.6812,-6.6812,-6.6812,-6.6812,-6.6812,-6.6812,-6.6812,-6.6812,-6.6812,-6.6812,-6.6812,-6.6812,-6.6812,-6.6812,-6.6812,-6.6812,-6.6812,-6.6821,-6.6803,-6.6833,-6.4072,-6.2408,-6.2381,-6.2407,-6.238,-6.238,-6.2403,-6.2381,-6.2381,-6.2381,-6.2381,-6.2381,-6.2381,-6.2381,-6.2381,-6.2381,-6.2381,-4.0696,-4.2828,-4.4891,-4.4079,-4.4181,-4.4282,-4.3504,-4.2523,-4.1576,-4.0832,0.0,-4.117,-4.2726,-4.3538,-4.4993,0.0,-5.0067,0.0,0.0,0.0,0.0,0.0,0.0,0.0,0.0,0.0,0.0,0.0,0.0,-7.1312,-7.1312,-7.1312,-7.1312,-7.1312,-7.1312,-7.1312,-7.1312,-7.1312,-7.1312,-7.1312,-7.1312,-7.1312,-7.1312,-7.1312,-7.1312,0.0,0.0,0.0,-7.1312,-7.1312,-7.1312,-7.1312,-7.1312,-7.1312,-7.1312,-7.1312,-7.1312,-7.1312,-7.1312,-7.1312,-7.1312,-7.1312,-7.1312,-7.1312,-7.1312,-7.1312,-7.1312,-7.1312,-7.1312,-7.1142,-7.0609,-7.0459,-6.9848,-6.7413,-6.6796,-6.6812,-6.6812,-6.6812,-6.6812,-6.6812,-6.6812,-6.6812,-6.6812,-6.6812,-6.6812,-6.6812,-6.6812,-6.6812,-6.6812,-6.6812,-6.6812,-6.6812,-6.6812,-6.6821,-6.6769,-6.5335,-6.4402,-6.4438,-6.4417,-6.3795,-6.2474,-6.2386,-6.2403,-6.2381,-6.2381,-6.2381,-6.2381,-6.2381,-6.2381,-6.2381,-6.2381,-6.2381,-4.0519,-4.3166,-4.5737,-4.5162,-4.5196,-4.5162,-4.4445,0.0,0.0,0.0,0.0,0.0,0.0,-4.3707,0.0,0.0,0.0,0.0,0.0,0.0,0.0,0.0,0.0,0.0,0.0,0.0,0.0,0.0,0.0,-7.1312,-7.1312,-7.1312,-7.1312,-7.1312,-7.1312,-7.1312,-7.1312,-7.1312,-7.1312,-7.1312,-7.1312,-7.1312,-7.1312,-7.1312,-7.1312,-7.1312,0.0,0.0,-7.1312,-7.1312,-7.1312,-7.1312,-7.1312,-7.1312,-7.1312,-7.1312,-7.1312,-7.1312,-7.1312,-7.1312,-7.1312,-7.1312,-7.1312,-7.1312,-7.1312,-7.1312,-7.1312,-7.1312,-7.1312,-7.1323,-7.1298,-7.127,-7.0522,-6.753,-6.6821,-6.6812,-6.6812,-6.6812,-6.6812,-6.6812,-6.6812,-6.6812,-6.6812,-6.6812,-6.6812,-6.6812,-6.6812,-6.6812,-6.6812,-6.6812,-6.6812,-6.6812,-6.6812,-6.6812,-6.6812,-6.6812,-6.6803,-6.6828,-6.68,-6.561,-6.2959,-6.2818,-6.2763,-6.2584,-6.255,-6.2516,-6.2381,-6.2381,-6.2381,-6.2381,-6.2381,-6.2381,-4.2388,-4.4722,-4.5872,-4.2692,-4.2828,-4.3572,-4.2828,-4.2388,0.0,0.0,0.0,0.0,0.0,-4.665,-4.7936,0.0,0.0,0.0,0.0,0.0,0.0,0.0,0.0,0.0,0.0,0.0,0.0,0.0,0.0,-7.1312,-7.1312,-7.1312,-7.1312,-7.1312,-7.1312,-7.1312,-7.1312,-7.1312,-7.1312,-7.1312,-7.1312,-7.1312,-7.1312,-7.1312,-7.1312,-7.1312,0.0,-7.1312,-7.1312,-7.1312,-7.1312,-7.1312,-7.1312,-7.1312,-7.1312,-7.1312,-7.1312,-7.1312,-7.1312,-7.1312,-7.1312,-7.1312,-7.1312,-7.1312,-7.1312,-7.1312,-7.1312,-7.1312,-7.1312,-7.1323,-7.1298,-7.127,-7.0522,-6.753,-6.6821,-6.6812,-6.6812,-6.6812,-6.6812,-6.6812,-6.6812,-6.6812,-6.6812,-6.6812,-6.6812,-6.6812,-6.6812,-6.6812,-6.6812,-6.6812,-6.6812,-6.6812,-6.6812,-6.6812,-6.6812,-6.6812,-6.6779,-6.6829,-6.6826,-6.6214,-6.4905,-6.483,-6.439,-6.3362,-6.3328,-6.3024,-6.2381,-6.2381,-6.2381,-6.2381,-6.2381,-6.2381,-4.1339,-4.2963,-4.4147,-4.3267,-4.5026,-4.6819,-4.6075,-4.5297,0.0,0.0,0.0,0.0,0.0,0.0,-5.0879,-5.6122,0.0,-6.1028,0.0,0.0,0.0,0.0,0.0,0.0,0.0,0.0,0.0,0.0,0.0,0.0,-7.0128,-7.0128,-7.0128,-7.0128,-7.0128,-7.0128,-7.0128,-7.0128,-7.0534,-7.1312,-7.1312,-7.1312,-7.1312,-7.1312,-7.1312,-7.1312,0.0,-7.1312,-7.1312,-7.1312,-7.1312,-7.1312,-7.1312,-7.1312,-7.1312,-7.1312,-7.1312,-7.1312,-7.1312,-7.1312,-7.1312,-7.1312,-7.1312,-7.1312,-7.1312,-7.1312,-7.1312,-7.1312,-7.1312,-7.1278,-7.13,-7.1328,-7.0556,-6.7493,-6.6803,-6.6812,-6.6812,-6.6812,-6.6812,-6.6812,-6.6812,-6.6812,-6.6812,-6.6812,-6.6812,-6.6812,-6.6812,-6.6812,-6.6812,-6.6812,-6.6812,-6.6812,-6.6812,-6.6812,-6.6812,-6.6812,-6.6812,-6.6812,-6.6279,-6.5846,-6.5508,-6.5135,-6.4654,-6.4106,-6.4106,-6.3937,-6.3599,-6.3599,-6.3599,-6.3565,-6.3193,-6.299,-4.0756,-4.1677,-4.2929,-4.4451,-4.6718,-4.8646,-4.9154,-4.797,-4.6989,0.0,0.0,0.0,0.0,-5.1048,0.0,-5.8558,-6.0858,-6.2719,-6.458,0.0,0.0,0.0,0.0,0.0,0.0,0.0,0.0,0.0,0.0,0.0,-6.9147,-6.9113,-6.9113,-6.9113,-6.9113,-6.9113,-6.9113,-6.9113,-6.9688,-7.0804,-7.0804,-7.0804,-7.0804,-7.0804,-7.0906,-7.1041,-7.1041,-7.1142,-7.1312,-7.1312,-7.1312,-7.1312,-7.1312,-7.1312,-7.1312,-7.1312,-7.1312,-7.1312,-7.1312,-7.1312,-7.1312,-7.1312,-7.1312,-7.1312,-7.1312,-7.1312,-7.1312,-7.1312,-7.1312,-7.1312,-7.1312,-7.1308,-7.0546,-6.754,-6.6785,-6.6812,-6.6812,-6.6812,-6.6812,-6.6812,-6.6812,-6.6812,-6.6812,-6.6812,-6.6812,-6.6812,-6.6812,-6.6812,-6.6812,-6.6812,-6.6812,-6.6812,-6.6812,-6.6812,-6.6812,-6.6812,-6.6812,-6.6812,-6.6094,-6.5756,-6.5933,-6.5425,-6.5019,-6.485,-6.485,-6.4783,-6.4613,-6.4613,-6.4512,-6.4343,-6.3768,-6.3429,-4.2625,-4.324,-4.368,-4.5229,-4.4756,-4.4959,-4.9086,-4.8342,-4.7564,-5.0338,0.0,0.0,0.0,-5.4938,0.0,0.0,0.0,0.0,0.0,0.0,0.0,0.0,0.0,0.0,0.0,0.0,0.0,0.0,0.0,0.0,-6.9113,-6.9113,-6.9113,-6.9113,-6.9113,-6.9113,-6.9113,-6.9113,-6.9147,-6.9248,-6.9248,-6.9248,-6.9248,-6.9248,-6.962,-7.0263,-7.0263,-7.0669,-7.1312,-7.1312,-7.1312,-7.1312,-7.1312,-7.1312,-7.1312,-7.1312,-7.1312,-7.1312,-7.1312,-7.1312,-7.1312,-7.1312,-7.1312,-7.1312,-7.1312,-7.1312,-7.1312,-7.1312,-7.1312,-7.1312,-7.1312,-7.1308,-7.0546,-6.754,-6.6785,-6.6812,-6.6812,-6.6812,-6.6812,-6.6812,-6.6812,-6.6812,-6.6812,-6.6812,-6.6812,-6.6812,-6.6812,-6.6812,-6.6812,-6.6812,-6.6812,-6.6812,-6.6812,-6.6812,-6.6812,-6.6812,-6.6812,-6.6812,-6.6745,-6.6711,-6.6745,-6.6677,-6.6339,-6.5628,-6.5595,-6.5256,-6.4613,-6.4613,-6.4241,-6.3599,-6.3531,-6.3125,-4.1001,-4.2016,-4.32,-4.5196,-4.5602,-4.6312,-4.939,-5.0879,-5.2232,-5.4262,-5.4465,-5.4296,0.0,0.0,-5.893,0.0,0.0,0.0,0.0,0.0,0.0,0.0,0.0,0.0,0.0,0.0,0.0,0.0,0.0,0.0,-6.7692,-6.7692,-6.7692,-6.7692,-6.7692,-6.7692,-6.7692,-6.7692,-6.7692,-6.7692,-6.8639,-6.9113,-6.9113,-6.9113,-6.9248,-6.9519,-6.9519,-6.9688,-6.9925,-6.9925,-7.0195,-7.0669,-7.1142,-7.1312,-7.1312,-7.1312,-7.1312,-7.1312,-7.1312,-7.1312,-7.1312,-7.1312,-7.1312,-7.1312,-7.1312,-7.1312,-7.1312,-7.1312,-7.1312,-7.1312,-7.1312,-7.1308,-7.0546,-6.754,-6.6785,-6.6812,-6.6812,-6.6812,-6.6812,-6.6812,-6.6812,-6.6812,-6.6812,-6.6812,-6.6812,-6.6812,-6.6812,-6.6812,-6.6812,-6.6812,-6.6812,-6.6812,-6.6812,-6.6812,-6.6812,-6.6812,-6.6812,-6.6812,-6.6812,-6.6812,-6.6812,-6.6812,-6.6677,-6.6406,-6.6373,-6.6271,-6.5967,-6.5967,-6.5595,-6.485,-6.441,-6.3802,-4.002,-4.1001,-4.2489,-4.479,-4.5906,-4.7225,-5.0135,-5.257,-5.4871,-5.707,-5.7137,-5.6664,-5.6156,0.0,0.0,0.0,0.0,0.0,0.0,0.0,0.0,0.0,0.0,0.0,0.0,0.0,0.0,0.0,0.0,0.0,0.0,-6.6812,-6.6812,-6.6812,-6.6812,-6.6812,-6.6812,-6.6812,-6.6812,-6.6812,-6.8166,-6.8676,-6.8368,-6.8368,-6.8504,-6.8707,-6.9059,-6.9322,-6.9527,-6.9527,-6.9764,-7.0138,-7.0995,-7.13,-7.1334,-7.1278,-7.1312,-7.1312,-7.1312,-7.1312,-7.1312,-7.1312,-7.1312,-7.1312,-7.1312,-7.1312,-7.1312,-7.1312,-7.1312,-7.1312,-7.1289,-7.1284,-7.0546,-6.754,-6.6785,-6.6812,-6.6812,-6.6812,-6.6812,-6.6812,-6.6812,-6.6812,-6.6812,-6.6812,-6.6812,-6.6812,-6.6812,-6.6812,-6.6812,-6.6812,-6.6812,-6.6812,-6.6812,-6.6812,-6.6812,-6.6812,-6.6812,-6.6812,-6.6812,-6.6812,-6.6812,-6.6812,-6.6812,-6.6812,-6.6812,-6.6812,-6.6812,-6.6576,-6.6068,-6.5324,-6.4613,-6.3869,-4.0265,-4.0637,-4.1779,-4.4039,0.0,0.0,-5.1319,-5.2942,-5.46,-5.8287,-5.7881,-5.6833,-5.6833,-5.7408,0.0,-5.9844,0.0,0.0,0.0,0.0,0.0,0.0,0.0,0.0,0.0,0.0,0.0,0.0,0.0,0.0,0.0,-6.6779,-6.6779,-6.6779,-6.6779,-6.6779,-6.6779,-6.6779,-6.6779,-6.6812,-6.7747,-6.7708,-6.6812,-6.6812,-6.7218,-6.798,-6.8957,-6.9812,-7.047,-7.047,-7.0209,-6.9863,-7.09,-7.1318,-7.1308,-7.1289,-7.1312,-7.1312,-7.1312,-7.1312,-7.1312,-7.1312,-7.1312,-7.1312,-7.1312,-7.1312,-7.1312,-7.1312,-7.1312,-7.1289,-7.1264,-7.127,-7.0512,-6.7507,-6.6785,-6.6812,-6.6812,-6.6812,-6.6812,-6.6812,-6.6812,-6.6812,-6.6812,-6.6812,-6.6812,-6.6812,-6.6812,-6.6812,-6.6812,-6.6812,-6.6812,-6.6812,-6.6812,-6.6812,-6.6812,-6.6812,-6.6812,-6.6812,-6.6812,-6.6812,-6.6812,-6.6812,-6.6812,-6.6812,-6.6812,-6.6812,-6.6812,-6.6068,-6.5324,-6.458,-6.3869,-6.3125,-3.9546,-4.1001,0.0,-4.4925,0.0,0.0,0.0,-5.4905,0.0,0.0,-6.0283,-5.9641,-5.8558,-5.9404,0.0,-6.0114,-6.2212,0.0,0.0,0.0,0.0,0.0,0.0,0.0,0.0,0.0,0.0,0.0,0.0,0.0,0.0,-6.5256,-6.5256,-6.5256,-6.5256,-6.5256,-6.5256,-6.5256,-6.5527,-6.6034,-6.6296,-6.6907,-6.7787,-6.7787,-6.789,-6.8091,-6.7715,-6.7706,-6.7886,-6.7906,-6.7817,-6.7944,-7.0333,-7.1324,-7.128,-7.1304,-7.1318,-7.1287,-7.1287,-7.13,-7.1278,-7.1277,-7.13,-7.1278,-7.1277,-7.1287,-7.1287,-7.1287,-6.9769,-6.8648,-7.0741,-6.9737,-6.7911,-6.7021,-6.6812,-6.6812,-6.6812,-6.6812,-6.6812,-6.6812,-6.6812,-6.6812,-6.6812,-6.6812,-6.6812,-6.6812,-6.6812,-6.6812,-6.6812,-6.6812,-6.6812,-6.6812,-6.6812,-6.6812,-6.6812,-6.6812,-6.6812,-6.6812,-6.6812,-6.6812,-6.6812,-6.6812,-6.6812,-6.6812,-6.6812,-6.6542,-6.6034,-6.5797,-6.5053,-6.3835,-6.3632,-6.3451,-4.0629,-4.2286,0.0,-4.6853,-4.9661,-5.257,-5.5277,0.0,0.0,0.0,-6.0825,-6.0283,-5.9979,-6.0419,0.0,-6.0588,0.0,0.0,0.0,0.0,0.0,0.0,0.0,0.0,0.0,0.0,0.0,0.0,0.0,0.0,0.0,-6.4613,-6.4613,-6.4613,-6.4613,-6.4613,-6.4613,-6.4948,-6.5352,-6.5761,-6.655,-6.7433,-6.8398,-6.8255,-6.842,-6.8798,-6.843,-6.8593,-6.9042,-6.9063,-6.8142,-6.699,-6.8802,-6.9499,-6.9499,-6.9514,-6.9529,-6.9688,-7.0866,-7.1318,-7.1298,-7.1294,-7.0487,-6.9714,-7.0934,-7.0439,-6.9509,-6.9509,-6.82,-6.7218,-6.903,-6.8156,-6.6828,-6.6828,-6.6821,-6.6812,-6.6812,-6.6812,-6.6812,-6.6812,-6.6812,-6.6812,-6.6812,-6.6812,-6.6812,-6.6812,-6.6812,-6.6812,-6.6812,-6.6812,-6.6812,-6.6812,-6.6812,-6.6812,-6.6812,-6.6812,-6.6812,-6.6812,-6.6812,-6.6812,-6.6812,-6.6812,-6.6812,-6.6812,-6.6812,-6.644,-6.5696,-6.5392,-6.4647,-6.3497,-6.3553,-6.3611,-4.253,0.0,0.0,-4.9086,-5.0811,0.0,-5.6934,-5.8423,-5.9336,-6.0892,0.0,-5.9573,-6.1028,-6.0689,-6.0486,0.0,0.0,0.0,0.0,0.0,0.0,0.0,0.0,0.0,0.0,0.0,0.0,0.0,0.0,0.0,0.0,-6.441,-6.441,-6.441,-6.441,-6.441,-6.441,-6.5263,-6.5723,-6.583,-6.7603,-6.8553,-6.8728,-6.8433,-6.877,-6.9708,-7.0099,-7.0909,-7.2002,-7.1976,-6.9952,-6.6804,-6.6812,-6.6794,-6.6828,-6.6781,-6.6795,-6.7185,-6.994,-7.0871,-7.0871,-7.0915,-6.9045,-6.7329,-7.0052,-6.8977,-6.6795,-6.6795,-6.6795,-6.6815,-6.6819,-6.6794,-6.6794,-6.6794,-6.6821,-6.6812,-6.6812,-6.6812,-6.6812,-6.6812,-6.6812,-6.6812,-6.6812,-6.6812,-6.6812,-6.6812,-6.6812,-6.6812,-6.6812,-6.6812,-6.6812,-6.6812,-6.6812,-6.6812,-6.6812,-6.6812,-6.6812,-6.6812,-6.6812,-6.6812,-6.6812,-6.6812,-6.6812,-6.6812,-6.6745,-6.6339,-6.5595,-6.485,-6.4146,-6.3521,-6.3624,-6.3791,-4.0493,-4.2685,0.0,0.0,-5.2029,-5.531,-5.7408,-5.8017,-5.8558,-6.0047,-6.008,-6.0148,-6.1129,-6.1163,0.0,0.0,0.0,0.0,0.0,0.0,0.0,0.0,0.0,0.0,0.0,0.0,0.0,0.0,0.0,0.0,-6.2854,-6.2854,-6.2854,-6.2854,-6.2854,-6.2854,-6.2854,-6.3721,-6.4445,0.0,-6.6142,-6.7439,-6.8935,-6.8841,-6.9158,-6.9635,-6.8225,-6.7797,-6.8054,-6.8004,-6.7541,-6.6812,-6.6804,-6.6796,-6.6796,-6.6787,-6.6803,-6.692,-6.7521,-6.7748,-6.7762,-6.78,-6.7358,-6.694,-6.7545,-6.7309,-6.681,-6.681,-6.6794,-6.6787,-6.6796,-6.6796,-6.6796,-6.6796,-6.6804,-6.6812,-6.6812,-6.6812,-6.6812,-6.6812,-6.6812,-6.6812,-6.6812,-6.6812,-6.6812,-6.6812,-6.6812,-6.6812,-6.6812,-6.6812,-6.6812,-6.6812,-6.6812,-6.6812,-6.6812,-6.6812,-6.6812,-6.6812,-6.6812,-6.6812,-6.6812,-6.6812,-6.6812,-6.6812,-6.6237,-6.5561,-6.4816,-6.4106,-6.3689,-6.3666,-6.3714,-6.4462,0.0,0.0,0.0,-5.0676,0.0,-5.5547,-5.7036,-5.7374,-5.7679,-5.8795,-5.9336,-5.981,-6.0588,0.0,0.0,0.0,0.0,0.0,0.0,0.0,0.0,0.0,0.0,0.0,0.0,0.0,0.0,0.0,0.0,-6.1298,-6.1298,-6.1298,-6.1467,-6.1873,-6.2305,-6.2669,-6.3011,-6.4323,-6.518,-6.5569,-6.6482,-6.7421,-6.8415,-6.9179,-7.0082,-7.0985,-6.9953,-6.9509,-6.9373,-6.7546,-6.6834,-6.6812,-6.6812,-6.6812,-6.6812,-6.6812,-6.6796,-6.6778,-6.6778,-6.6803,-6.6785,-6.6812,-6.6803,-6.6785,-6.6812,-6.6778,-6.6778,-6.6778,-6.6796,-6.6812,-6.6812,-6.6812,-6.6812,-6.6812,-6.6812,-6.6812,-6.6812,-6.6812,-6.6812,-6.6812,-6.6812,-6.6812,-6.6812,-6.6812,-6.6812,-6.6812,-6.6812,-6.6812,-6.6812,-6.6812,-6.6812,-6.6812,-6.6812,-6.6812,-6.6812,-6.6812,-6.6812,-6.6812,-6.6812,-6.6812,-6.6812,-6.6812,-6.6643,-6.6271,-6.5899,-6.5155,-6.4072,-6.37,-6.3367,-6.3087,-6.3936,-6.4835,0.0,0.0,-4.797,-5.2942,-5.4397,0.0,-5.6292,-5.663,-5.6799,-5.7374,0.0,0.0,0.0,0.0,0.0,0.0,0.0,0.0,0.0,0.0,0.0,0.0,0.0,0.0,0.0,0.0,0.0,0.0,0.0,-6.0114,-6.0114,-6.0231,-6.0649,-6.1291,-6.2153,-6.2892,-6.3518,-6.5165,-6.6043,-6.6079,-6.7148,-6.7687,-6.7724,-6.9082,-7.0397,-7.1654,-7.1655,-7.1997,-7.2181,-6.8364,-6.6788,-6.6787,-6.6833,-6.6784,-6.6818,-6.6787,-6.6812,-6.6812,-6.6812,-6.6812,-6.6812,-6.6812,-6.6812,-6.6812,-6.6812,-6.6812,-6.6812,-6.6812,-6.6812,-6.6812,-6.6812,-6.6812,-6.6812,-6.6812,-6.6812,-6.6812,-6.6812,-6.6812,-6.6812,-6.6812,-6.6812,-6.6812,-6.6812,-6.6812,-6.6812,-6.6812,-6.6812,-6.6812,-6.6812,-6.6812,-6.6812,-6.6812,-6.6812,-6.6812,-6.6812,-6.6812,-6.6812,-6.6812,-6.6812,-6.6812,-6.6812,-6.6677,-6.6271,-6.5527,-6.5493,-6.485,-6.3531,-6.3521,-6.3232,-6.2659,-6.4427,-6.5229,0.0,0.0,0.0,0.0,0.0,0.0,0.0,0.0,0.0,0.0,0.0,0.0,0.0,0.0,0.0,0.0,0.0,0.0,0.0,0.0,0.0,0.0,0.0,0.0,0.0,0.0,0.0,0.0,-6.0114,-6.0114,-6.0114,-6.0825,-6.129,-6.1359,-6.2187,-6.2649,-6.2758,-6.3943,-6.457,-6.4619,-6.671,-6.7687,-6.7714,-6.7907,-6.8119,-6.8348,-6.8348,-6.99,-7.221,-6.8378,-6.6802,-6.6802,-6.6785,-6.6824,-6.6775,-6.6792,-6.6812,-6.6812,-6.6812,-6.6812,-6.6812,-6.6812,-6.6812,-6.6812,-6.6812,-6.6812,-6.6812,-6.6812,-6.6812,-6.6812,-6.6812,-6.6812,-6.6812,-6.6812,-6.6812,-6.6812,-6.6812,-6.6812,-6.6812,-6.6812,-6.6812,-6.6812,-6.6812,-6.6812,-6.6812,-6.6812,-6.6812,-6.6812,-6.6812,-6.6812,-6.6812,-6.6812,-6.6812,-6.6812,-6.6812,-6.6812,-6.6812,-6.6812,-6.6812,-6.6812,-6.6812,-6.6203,-6.5493,-6.4749,-6.4749,-6.4343,-6.3531,-6.3642,-6.3604,-6.3574,-6.5397,-6.6217,-3.8768,0.0,0.0,0.0,0.0,0.0,0.0,0.0,0.0,0.0,0.0,0.0,0.0,0.0,0.0,0.0,0.0,0.0,0.0,0.0,0.0,0.0,0.0,0.0,0.0,0.0,0.0,0.0,-5.8863,-5.8863,-5.8863,-5.9664,-6.0324,-6.0774,-6.2061,-6.2922,-6.3321,-6.467,-6.5597,-6.6236,-6.723,-6.7694,-6.7694,-6.7677,-6.7724,-6.7707,-6.7707,-6.8502,-6.9844,-6.9926,-6.9989,-6.9991,-6.9988,-6.8691,-6.6803,-6.6787,-6.6787,-6.6812,-6.6812,-6.6812,-6.6812,-6.6812,-6.6812,-6.6812,-6.6812,-6.6812,-6.6812,-6.6812,-6.6812,-6.6812,-6.6812,-6.6812,-6.6812,-6.6812,-6.6812,-6.6812,-6.6812,-6.6812,-6.6812,-6.6812,-6.6812,-6.6812,-6.6812,-6.7243,-6.7414,-6.6896,-6.7284,-6.7414,-6.6896,-6.6812,-6.6812,-6.6812,-6.6812,-6.6812,-6.6812,-6.6812,-6.6812,-6.6812,-6.6812,-6.6812,-6.6812,-6.6102,-6.5358,-6.4613,-6.4208,-6.3632,-6.2888,-6.2949,-6.3202,-6.3755,-6.5035,-6.5904,0.0,0.0,0.0,0.0,0.0,0.0,0.0,0.0,0.0,0.0,0.0,0.0,0.0,0.0,0.0,0.0,0.0,0.0,0.0,0.0,0.0,0.0,0.0,0.0,0.0,0.0,0.0,0.0,-5.7881,-5.7991,-5.8209,-5.8977,-5.982,-6.0609,-6.2068,-6.3047,-6.3627,-6.4709,-6.5673,-6.6449,-6.6444,-6.6885,-6.77,-6.7694,-6.7704,-6.7677,-6.7707,-6.77,-6.7914,-7.0294,-7.1251,-7.1372,-7.2192,-7.0763,-6.8266,-6.8266,-6.8251,-6.82,-6.7878,-6.7747,-6.7706,-6.7277,-6.7161,-6.712,-6.6896,-6.6812,-6.6812,-6.6812,-6.6812,-6.6812,-6.6812,-6.6812,-6.6812,-6.6812,-6.6812,-6.6812,-6.6812,-6.6812,-6.6812,-6.6812,-6.6812,-6.6812,-6.6812,-6.7582,-6.795,-6.725,-6.7747,-6.795,-6.7284,-6.6946,-6.6812,-6.6812,-6.6812,-6.6812,-6.6812,-6.6812,-6.6812,-6.6812,-6.6643,-6.6542,-6.6542,-6.5628,-6.4884,-6.4343,-6.3599,-6.2956,-6.2381,-6.262,-6.2935,-6.3388,-6.4495,-6.5264,0.0,0.0,0.0,0.0,0.0,0.0,0.0,0.0,0.0,0.0,0.0,0.0,0.0,0.0,0.0,0.0,0.0,0.0,0.0,0.0,0.0,0.0,0.0,0.0,0.0,0.0,0.0,0.0,-5.7881,-5.821,-5.8976,-5.9864,-6.0706,-6.15,-6.237,-6.2803,-6.284,-6.2925,-6.3009,-6.3046,-6.3053,-6.471,-6.7694,-6.77,-6.771,-6.771,-6.7704,-6.7676,-6.7728,-6.7872,-6.7944,-6.8252,-7.13,-7.2385,-7.2194,-7.2194,-7.2219,-7.2034,-7.0801,-7.038,-7.0166,-6.8597,-6.8146,-6.795,-6.7037,-6.6812,-6.6812,-6.6812,-6.6812,-6.6812,-6.6812,-6.6812,-6.6812,-6.6812,-6.6812,-6.6812,-6.6812,-6.6812,-6.6812,-6.6812,-6.6812,-6.6812,-6.6812,-6.7582,-6.815,-6.8111,-6.815,-6.815,-6.8111,-6.7373,-6.6812,-6.6812,-6.6812,-6.6812,-6.6812,-6.6812,-6.6812,-6.6812,-6.6136,-6.5764,-6.5764,-6.4377,-6.3599,-6.3565,-6.2821,-6.2415,-6.2381,-6.3202,-6.3202,-6.2537,-6.4218,-6.4598,0.0,0.0,0.0,0.0,0.0,0.0,0.0,0.0,0.0,0.0,0.0,0.0,0.0,0.0,0.0,0.0,0.0,0.0,0.0,0.0,0.0,0.0,0.0,0.0,0.0,0.0,0.0,0.0,0.0,-5.6814,-5.7557,-5.8453,-5.9514,-6.0818,-6.1609,-6.2291,-6.278,-6.2792,-6.2792,-6.2828,-6.2801,-6.3412,-6.4567,-6.4537,-6.5689,-6.771,-6.7684,-6.7716,-6.7522,-6.5246,-6.4289,-6.4645,-6.8058,-6.9429,-6.9372,-6.9265,-6.967,-7.013,-6.9495,-6.9566,-6.992,-6.9348,-6.8723,-6.8146,-6.7861,-6.7325,-6.6812,-6.6812,-6.6812,-6.6812,-6.6812,-6.6812,-6.6812,-6.6812,-6.6812,-6.6812,-6.6812,-6.6812,-6.6812,-6.6812,-6.7291,-6.7708,-6.7708,-6.8531,-6.9168,-6.9168,-6.861,-6.8189,-6.8189,-6.7373,-6.6812,-6.6812,-6.6812,-6.6812,-6.6812,-6.6812,-6.6812,-6.6812,-6.6102,-6.5696,-6.5696,-6.4275,-6.3531,-6.3531,-6.2787,-6.2381,-6.2381,-6.2702,-6.3277,-6.4078,-6.4698,-6.5458,-3.3444,0.0,0.0,0.0,0.0,0.0,0.0,0.0,0.0,0.0,0.0,0.0,0.0,0.0,0.0,0.0,0.0,0.0,0.0,0.0,0.0,0.0,0.0,0.0,0.0,0.0,0.0,0.0,0.0,0.0,-5.721,-5.8001,-5.9163,-6.0617,-6.1556,-6.2255,-6.2818,-6.2818,-6.2793,-6.278,-6.2803,-6.2815,-6.2815,-6.2786,-6.3972,-6.6124,-6.7206,-6.7697,-6.7505,-6.5157,-6.4158,-6.4396,-6.6809,-6.7692,-6.7701,-6.7981,-6.8478,-6.9122,-6.9388,-6.9777,-7.0246,-7.0157,-6.9494,-6.8648,-6.8374,-6.7576,-6.6812,-6.6812,-6.6812,-6.6812,-6.6812,-6.6812,-6.6812,-6.6812,-6.6812,-6.6812,-6.6812,-6.6812,-6.6812,-6.6812,-6.7582,-6.8189,-6.8189,-6.9314,-7.0196,-7.0196,-6.9601,-6.906,-6.876,-6.7866,-6.7161,-6.6854,-6.6812,-6.6812,-6.6812,-6.6812,-6.6803,-6.6868,-6.6193,-6.5682,-6.5409,-6.4215,-6.3567,-6.3567,-6.309,-6.2817,-6.2817,-6.2817,-6.3427,-6.4598,-6.4866,-6.5613,0.0,0.0,0.0,0.0,0.0,0.0,0.0,0.0,0.0,0.0,0.0,0.0,0.0,0.0,0.0,0.0,0.0,0.0,0.0,0.0,0.0,0.0,0.0,0.0,0.0,0.0,0.0,0.0,-5.6367,-5.7171,-5.8025,-5.8805,-5.9808,-6.1116,-6.2192,-6.2732,-6.2806,-6.2806,-6.2794,-6.2805,-6.2805,-6.2805,-6.278,-6.2815,-6.2801,-6.2973,-6.6161,-6.7561,-6.7589,-6.7662,-6.7693,-6.7695,-6.7695,-6.7703,-6.7848,-6.8894,-6.9291,-6.9477,-7.077,-7.1256,-7.1288,-7.1158,-7.0465,-6.953,-6.8534,-6.7582,-6.6854,-6.6812,-6.6812,-6.6812,-6.6812,-6.6812,-6.6812,-6.6812,-6.6812,-6.6812,-6.6812,-6.6812,-6.6812,-6.6854,-6.7622,-6.8227,-6.8266,-6.9848,-7.1127,-7.1159,-7.1059,-7.0734,-6.9849,-6.8873,-6.7906,-6.6946,-6.6862,-6.6862,-6.6821,-6.6787,-6.6868,-6.7,-6.6315,-6.5553,-6.4863,-6.4137,-6.3755,-6.3755,-6.3755,-6.3755,-6.3755,-6.3755,-6.3755,-6.3755,-6.4631,-6.5098,-3.2395,0.0,0.0,0.0,0.0,0.0,0.0,0.0,0.0,0.0,0.0,0.0,0.0,0.0,0.0,0.0,0.0,0.0,0.0,0.0,0.0,0.0,0.0,0.0,0.0,0.0,0.0,0.0,-5.5597,-5.6361,-5.7182,-5.85,-5.9457,-6.0026,-6.0711,-6.1605,-6.2793,-6.2793,-6.2818,-6.2794,-6.2794,-6.2781,-6.278,-6.2792,-6.2803,-6.2837,-6.3757,-6.4632,-6.5532,-6.7049,-6.7696,-6.77,-6.77,-6.7708,-6.7745,-6.8044,-6.8511,-6.9059,-6.9439,-7.033,-7.1264,-7.1246,-7.1008,-7.0535,-6.9566,-6.8607,-6.7668,-6.6988,-6.6812,-6.6812,-6.6812,-6.6812,-6.6812,-6.6812,-6.6812,-6.6812,-6.6812,-6.6812,-6.6988,-6.7668,-6.8645,-6.9494,-7.0194,-7.0767,-7.1318,-7.2011,-7.0966,-7.0264,-7.0668,-6.9883,-6.891,-6.7945,-6.7968,-6.7733,-6.7035,-6.7058,-6.7194,-6.72,-6.6497,-6.5969,-6.5758,-6.5019,-6.4631,-6.4631,-6.4631,-6.4631,-6.4631,-6.4631,-6.4631,-6.4665,-6.6241,-6.6931,-3.3444,-3.4324,-3.552,-3.5825,0.0,0.0,0.0,-3.9817,0.0,0.0,0.0,0.0,0.0,0.0,0.0,0.0,0.0,0.0,0.0,0.0,0.0,0.0,0.0,0.0,0.0,-5.3881,-5.4264,-5.4606,-5.5291,-5.6169,-5.7302,-5.8189,-5.8767,-5.8938,-5.9245,-5.9856,-6.0809,-6.0809,-6.0798,-6.0799,-6.2169,-6.2818,-6.2781,-6.2805,-6.2792,-6.2778,-6.2789,-6.3438,-6.4615,-6.5862,-6.6669,-6.721,-6.7577,-6.7687,-6.7687,-6.7687,-6.7981,-6.8458,-6.8788,-6.9522,-7.0367,-7.0697,-7.0447,-6.9933,-6.9387,-6.8441,-6.7501,-6.6946,-6.6812,-6.6812,-6.6812,-6.6576,-6.6339,-6.6339,-6.6102,-6.5899,-6.5899,-6.616,-6.6782,-6.7969,-6.9021,-6.9917,-7.0501,-7.091,-7.1271,-7.1484,-7.0562,-6.9893,-7.0089,-6.9633,-6.889,-6.7928,-6.7905,-6.7764,-6.7153,-6.72,-6.7298,-6.738,-6.6949,-6.6556,-6.6235,-6.5804,-6.5586,-6.5586,-6.5586,-6.5743,-6.615,-6.5743,-6.5775,-6.615,-6.723,-6.7687,-3.5115,-3.5949,-3.7202,-3.7753,-3.6434,0.0,-3.9614,-3.9648,-3.9614,0.0,0.0,0.0,0.0,0.0,0.0,0.0,0.0,0.0,0.0,0.0,0.0,0.0,0.0,0.0,-5.3482,-5.365,-5.4044,-5.4665,-5.5495,-5.6544,-5.795,-5.7997,-5.7997,-5.7997,-5.7997,-5.7987,-5.8004,-5.8004,-5.7993,-5.8007,-6.0896,-6.2451,-6.2806,-6.2818,-6.2805,-6.278,-6.2778,-6.3379,-6.4324,-6.4406,-6.5249,-6.6549,-6.7283,-6.7614,-6.7687,-6.7687,-6.7687,-6.7797,-6.8531,-6.8825,-6.9009,-6.9743,-6.9363,-6.8639,-6.8433,-6.7655,-6.6799,-6.6584,-6.6576,-6.6576,-6.6576,-6.6068,-6.5561,-6.5561,-6.5087,-6.4654,-6.4742,-6.5353,-6.6387,-6.7936,-6.8995,-6.9663,-6.9873,-7.0602,-7.0917,-7.022,-7.011,-6.9783,-6.8971,-6.8842,-6.853,-6.7541,-6.747,-6.7435,-6.7333,-6.7328,-6.7407,-6.7481,-6.7505,-6.7216,-6.6589,-6.6523,-6.6523,-6.6523,-6.6523,-6.691,-6.7687,-6.6823,-6.6852,-6.7687,-6.7687,-6.7687,-3.7584,-3.7889,-3.8464,-3.8024,-3.8024,0.0,-3.6163,-3.7009,-3.8125,0.0,0.0,0.0,0.0,0.0,0.0,0.0,0.0,0.0,0.0,0.0,0.0,0.0,0.0,0.0,-5.3369,-5.456,-5.532,-5.5495,-5.6763,-5.7666,-5.7997,-5.7997,-5.7997,-5.7997,-5.7997,-5.7997,-5.801,-5.801,-5.8,-5.7993,-5.865,-6.0309,-6.2806,-6.2782,-6.2806,-6.278,-6.2817,-6.2927,-6.3172,-6.3906,-6.5118,-6.6512,-6.6659,-6.7136,-6.7687,-6.7687,-6.7687,-6.7724,-6.7871,-6.8348,-6.8935,-6.9082,-6.9437,-6.949,-6.7988,-6.7376,-6.6909,-6.5437,-6.5019,-6.5019,-6.5019,-6.4918,-6.4816,-6.4816,-6.4715,-6.4822,-6.5474,-6.578,-6.6448,-6.8235,-6.8769,-6.9146,-6.9923,-7.0181,-7.0293,-7.011,-7.011,-7.0017,-6.984,-6.9811,-6.9457,-6.853,-6.8512,-6.8298,-6.7528,-6.7563,-6.7631,-6.7652,-6.7652,-6.7579,-6.746,-6.746,-6.746,-6.746,-6.746,-6.7515,-6.7687,-6.6823,-6.6852,-6.7687,-6.7687,-6.7687,-3.9161,-3.8971,-3.9546,-3.9546,-3.9005,0.0,0.0,0.0,-3.7652,0.0,0.0,0.0,0.0,0.0,0.0,0.0,0.0,0.0,0.0,0.0,0.0,0.0,0.0,0.0,-5.2235,-5.3305,-5.4479,-5.5589,-5.7121,-5.7997,-5.7997,-5.7997,-5.7997,-5.7997,-5.7997,-5.7997,-5.7997,-5.7997,-5.801,-5.8,-5.8004,-5.8857,-6.0456,-6.1508,-6.1985,-6.2046,-6.256,-6.278,-6.2817,-6.3282,-6.4163,-6.5375,-6.6182,-6.6733,-6.7136,-6.754,-6.7687,-6.7687,-6.7687,-6.7944,-6.8311,-6.8311,-6.8539,-6.8536,-6.7138,-6.6355,-6.5745,-6.4869,-6.4613,-6.4613,-6.4613,-6.4343,-6.4072,-6.4072,-6.4097,-6.426,-6.4715,-6.5514,-6.6403,-6.7374,-6.7896,-6.8458,-6.9357,-6.9486,-6.9376,-6.8972,-6.8898,-6.8898,-6.8898,-6.8898,-6.8724,-6.8255,-6.8274,-6.811,-6.7643,-6.7652,-6.7687,-6.7687,-6.7687,-6.7687,-6.7687,-6.7687,-6.7687,-6.7687,-6.7687,-6.7687,-6.7687,-6.7258,-6.7258,-6.7687,-6.7687,-6.7687,-4.133,-4.0926,-4.1433,-4.1576,-4.0629,-3.9783,0.0,0.0,0.0,0.0,0.0,0.0,0.0,0.0,0.0,0.0,0.0,0.0,0.0,0.0,0.0,0.0,0.0,0.0,0.0,-5.1558,-5.3316,-5.5938,-5.7288,-5.8,-5.7983,-5.7983,-5.802,-5.7997,-5.7997,-5.7997,-5.7997,-5.7997,-5.7997,-5.7997,-5.7977,-5.8004,-5.8053,-6.0017,-6.1019,-6.1251,-6.2156,-6.2658,-6.278,-6.278,-6.3209,-6.398,-6.5448,-6.6219,-6.6586,-6.721,-6.7577,-6.7687,-6.7687,-6.7687,-6.7687,-6.7687,-6.7404,-6.6868,-6.6122,-6.5073,-6.4174,-6.4174,-6.4174,-6.4174,-6.4174,-6.3734,-6.3334,-6.3498,-6.3645,-6.3791,-6.4148,-6.5365,-6.6464,-6.6612,-6.723,-6.7907,-6.8568,-6.8678,-6.8458,-6.7797,-6.7687,-6.7687,-6.7687,-6.7687,-6.7687,-6.7687,-6.7687,-6.7687,-6.7687,-6.7687,-6.7687,-6.7687,-6.7687,-6.7687,-6.7687,-6.7687,-6.7687,-6.7687,-6.7687,-6.7687,-6.7687,-6.7687,-6.7687,-6.7687,-6.7687,-6.7614,-4.6118,-4.5925,-4.5568,-4.3639,-4.4485,-4.4451,-3.9411,0.0,-4.0054,-3.7777,0.0,0.0,0.0,0.0,0.0,0.0,0.0,0.0,0.0,0.0,0.0,0.0,0.0,0.0,0.0,-5.0514,-5.3605,-5.746,-5.7906,-5.7984,-5.7986,-5.8,-5.8015,-5.7997,-5.7997,-5.7997,-5.7997,-5.7997,-5.7997,-5.7997,-5.7997,-5.8,-5.8017,-5.9258,-6.0309,-6.1215,-6.1594,-6.2144,-6.278,-6.278,-6.2853,-6.3062,-6.398,-6.5228,-6.6512,-6.6586,-6.71,-6.7687,-6.7687,-6.7687,-6.7687,-6.7687,-6.6582,-6.5273,-6.5174,-6.3965,-6.2651,-6.2651,-6.2651,-6.2651,-6.2651,-6.2584,-6.2717,-6.3489,-6.3679,-6.4148,-6.5748,-6.6247,-6.6612,-6.7405,-6.7633,-6.7724,-6.7797,-6.7834,-6.7797,-6.7687,-6.7687,-6.7687,-6.7687,-6.7687,-6.7687,-6.7687,-6.7687,-6.7687,-6.7687,-6.7687,-6.7687,-6.7687,-6.7687,-6.7687,-6.7687,-6.7687,-6.7687,-6.7687,-6.7687,-6.7687,-6.7687,-6.7687,-6.7687,-6.7687,-6.7687,-6.732,-4.6508,-4.6401,-4.6351,-4.4557,-4.4831,-4.4627,-4.1231,0.0,-3.9817,0.0,0.0,0.0,0.0,0.0,0.0,0.0,-3.843,0.0,0.0,0.0,0.0,0.0,0.0,0.0,0.0,0.0,0.0,0.0,-5.575,-5.7006,-5.7972,-5.8002,-5.8,-5.7992,-5.7983,-5.7997,-5.7997,-5.7997,-5.7997,-5.7997,-5.7997,-5.801,-5.8037,-5.8927,-5.9612,-6.0102,-6.1153,-6.1777,-6.2144,-6.2622,-6.278,-6.2842,-6.3209,-6.4053,-6.5228,-6.6145,-6.6696,-6.7063,-6.754,-6.7687,-6.7687,-6.7687,-6.6487,-6.4999,-6.4999,-6.3793,-6.2381,-6.2381,-6.2381,-6.2381,-6.2381,-6.2779,-6.3274,-6.361,-6.4496,-6.5462,-6.6253,-6.6794,-6.7258,-6.7633,-6.7687,-6.7687,-6.7687,-6.7687,-6.7687,-6.7687,-6.7687,-6.7687,-6.7687,-6.7687,-6.7687,-6.7687,-6.7687,-6.7687,-6.7687,-6.7687,-6.7687,-6.7687,-6.7687,-6.7687,-6.7687,-6.7687,-6.7687,-6.7687,-6.7687,-6.7687,-6.7687,-6.7687,-6.7467,-6.699,-6.699,-6.6806,-4.794,0.0,0.0,0.0,0.0,0.0,0.0,0.0,0.0,0.0,0.0,0.0,0.0,0.0,-3.728,-3.7821,0.0,-3.7454,0.0,0.0,0.0,0.0,0.0,0.0,0.0,0.0,0.0,0.0,0.0,-5.3575,-5.6557,-5.6676,-5.7081,-5.7986,-5.8006,-5.7997,-5.7997,-5.7997,-5.7997,-5.7997,-5.7997,-5.7997,-5.8033,-5.8621,-5.8964,-5.9258,-6.0456,-6.119,-6.163,-6.2218,-6.2622,-6.278,-6.278,-6.3209,-6.3906,-6.5301,-6.6109,-6.6586,-6.7173,-6.7504,-6.7687,-6.7687,-6.6634,-6.5394,-6.5394,-6.4183,-6.274,-6.274,-6.2581,-6.2381,-6.2381,-6.3049,-6.3755,-6.4007,-6.5267,-6.6464,-6.67,-6.7258,-6.7687,-6.7687,-6.7687,-6.7687,-6.7687,-6.7687,-6.7687,-6.7687,-6.7687,-6.7687,-6.7687,-6.7687,-6.7687,-6.7687,-6.7687,-6.7687,-6.7687,-6.7687,-6.7687,-6.7687,-6.7687,-6.7687,-6.7687,-6.7687,-6.7687,-6.7687,-6.7687,-6.7687,-6.7687,-6.7687,-6.7283,-6.6512,-6.6512,-6.6256,0.0,0.0,0.0,-4.6655,0.0,0.0,0.0,0.0,-4.2658,0.0,0.0,0.0,0.0,-3.887,-3.7889,-3.7922,-3.728,0.0,0.0,0.0,0.0,0.0,0.0,0.0,0.0,0.0,0.0,0.0,0.0,0.0,-5.3003,-5.3361,-5.4773,-5.7913,-5.8006,-5.7997,-5.7997,-5.7997,-5.7997,-5.7997,-5.7997,-5.7997,-5.7997,-5.8033,-5.8474,-5.9184,-5.9258,-6.0162,-6.1594,-6.163,-6.2108,-6.278,-6.278,-6.2817,-6.2952,-6.3833,-6.5154,-6.6512,-6.6512,-6.7026,-6.7687,-6.7687,-6.7117,-6.6374,-6.6374,-6.5103,-6.3647,-6.3647,-6.3049,-6.2381,-6.2381,-6.3049,-6.39,-6.4766,-6.5716,-6.6612,-6.7488,-6.7687,-6.7687,-6.7687,-6.7687,-6.7687,-6.7687,-6.7687,-6.7687,-6.7687,-6.7687,-6.7687,-6.7687,-6.7687,-6.7687,-6.7687,-6.7687,-6.7687,-6.7687,-6.7687,-6.7687,-6.7687,-6.7687,-6.7687,-6.7687,-6.7687,-6.7687,-6.7687,-6.7687,-6.7687,-6.7687,-6.7687,-6.7283,-6.6512,-6.6512,-6.5668,0.0,0.0,-5.3558,-4.8993,0.0,0.0,0.0,0.0,0.0,0.0,0.0,0.0,0.0,-3.9276,-3.8633,-3.8633,-3.7608,-3.6581,0.0,0.0,0.0,0.0,0.0,0.0,0.0,0.0,0.0,0.0,-4.2886,0.0,0.0,-5.0847,-5.4669,-5.7906,-5.7972,-5.7992,-5.7997,-5.7997,-5.7997,-5.7997,-5.7997,-5.7997,-5.7997,-5.7997,-5.8143,-5.8437,-5.8964,-5.9515,-6.0089,-6.1153,-6.1741,-6.2071,-6.2585,-6.278,-6.2915,-6.3759,-6.442,-6.5044,-6.6109,-6.7026,-6.7687,-6.7687,-6.7117,-6.6404,-6.6404,-6.5136,-6.3719,-6.3719,-6.3498,-6.324,-6.324,-6.4358,-6.5558,-6.5842,-6.6612,-6.7314,-6.766,-6.7687,-6.7687,-6.7687,-6.7687,-6.7687,-6.7687,-6.7687,-6.7687,-6.7687,-6.7687,-6.7687,-6.7687,-6.7687,-6.7687,-6.7687,-6.7687,-6.7687,-6.7687,-6.7687,-6.7687,-6.7687,-6.7687,-6.7687,-6.7687,-6.7687,-6.7687,-6.7687,-6.7687,-6.7687,-6.7687,-6.7173,-6.6476,-6.5705,-6.5154,-6.4604,-5.4979,-5.5366,0.0,-5.1128,-5.0029,0.0,-4.4376,0.0,-4.4682,0.0,0.0,0.0,0.0,-4.0959,-3.9478,-3.9749,-3.8328,-3.6818,0.0,-3.49,0.0,0.0,0.0,0.0,0.0,0.0,-4.1913,-4.3393,-4.351,0.0,0.0,0.0,-5.2915,-5.6197,-5.7383,-5.8015,-5.7997,-5.7997,-5.7997,-5.7997,-5.7997,-5.7997,-5.7997,-5.7997,-5.7997,-5.8033,-5.8547,-5.8927,-5.9294,-6.0639,-6.1337,-6.1667,-6.2511,-6.278,-6.2879,-6.3429,-6.3833,-6.431,-6.5925,-6.6843,-6.732,-6.7614,-6.7314,-6.6852,-6.6852,-6.5621,-6.4218,-6.4599,-6.4183,-6.3791,-6.4078,-6.53,-6.6404,-6.6404,-6.7089,-6.7687,-6.7687,-6.7687,-6.7687,-6.7687,-6.7687,-6.7687,-6.7687,-6.7687,-6.7687,-6.7687,-6.7687,-6.7687,-6.7687,-6.7687,-6.7687,-6.7687,-6.7687,-6.7687,-6.7687,-6.7687,-6.7687,-6.7687,-6.7687,-6.7687,-6.7687,-6.7687,-6.7687,-6.7687,-6.7393,-6.7247,-6.7247,-6.6476,-6.5668,-6.4861,-6.4347,-6.3906]},{"header":{"parameterUnit":"m.s-1","parameterCategory":1,"la1":30.6,"la2":29.2853,"lo1":-89.7004,"lo2":-87.6739,"dy":0.0162,"dx":0.0183,"nx":112,"ny":82,"refTime":"2025-05-19T18:00:00:Z","depth":0,"parameterNumber":3,"parameterNumberName":"V-component_of_WINDS"},"data":[0.0,0.0,0.0,0.0,0.0,0.0,0.0,0.0,0.0,0.0,0.0,0.0,0.0,0.0,0.0,0.0,0.0,0.0,0.0,0.0,0.0,0.0,0.0,0.0,0.0,0.0,0.0,0.0,0.0,0.0,0.0,0.0,0.0,0.0,0.0,0.0,0.0,0.0,0.0,0.0,0.0,0.0,0.0,0.0,0.0,0.0,0.0,0.0,0.0,0.0,0.0,0.0,0.0,0.0,0.0,0.0,0.0,0.0,0.0,0.0,0.0,0.0,0.0,0.0,0.0,0.0,0.0,0.0,0.0,0.0,0.0,0.0,0.0,0.0,0.0,0.0,0.0,0.0,0.0,0.0,0.0,0.0,0.0,0.0,0.0,0.0,0.0,0.0,0.0,0.0,-2.8661,-3.126,-3.0807,-2.8774,-2.5001,-2.5724,-2.4945,-2.1581,0.0,0.0,0.0,0.0,0.0,0.0,0.0,0.0,0.0,0.0,0.0,0.0,0.0,0.0,0.0,0.0,0.0,0.0,0.0,0.0,0.0,0.0,0.0,0.0,0.0,0.0,0.0,0.0,0.0,0.0,0.0,0.0,0.0,0.0,0.0,0.0,0.0,0.0,0.0,0.0,0.0,0.0,0.0,0.0,0.0,0.0,0.0,0.0,0.0,0.0,0.0,0.0,0.0,0.0,0.0,0.0,0.0,0.0,0.0,0.0,0.0,0.0,0.0,0.0,0.0,0.0,0.0,0.0,0.0,0.0,0.0,0.0,0.0,0.0,0.0,0.0,0.0,0.0,0.0,0.0,0.0,0.0,0.0,0.0,0.0,0.0,0.0,0.0,0.0,0.0,0.0,0.0,0.0,0.0,0.0,0.0,0.0,0.0,0.0,0.0,0.0,0.0,0.0,0.0,-2.878,-3.1569,-3.0909,-2.9369,-2.7214,-2.6076,-2.405,-2.0631,0.0,0.0,0.0,0.0,0.0,0.0,0.0,0.0,0.0,0.0,0.0,0.0,0.0,0.0,0.0,0.0,0.0,0.0,0.0,0.0,0.0,0.0,0.0,0.0,0.0,0.0,0.0,0.0,0.0,0.0,0.0,0.0,0.0,0.0,0.0,0.0,0.0,0.0,0.0,0.0,0.0,0.0,0.0,0.0,0.0,0.0,0.0,0.0,0.0,0.0,0.0,0.0,0.0,0.0,0.0,0.0,0.0,0.0,0.0,0.0,0.0,0.0,0.0,0.0,0.0,0.0,0.0,0.0,0.0,0.0,0.0,0.0,0.0,0.0,0.0,0.0,0.0,0.0,0.0,0.0,0.0,0.0,0.0,0.0,0.0,0.0,0.0,0.0,0.0,0.0,0.0,0.0,0.0,0.0,0.0,0.0,0.0,0.0,0.0,0.0,0.0,0.0,0.0,-2.875,-3.0386,-3.2029,-3.1061,-2.9544,-2.765,-2.5322,-2.3206,-2.1339,-2.1693,0.0,0.0,0.0,0.0,0.0,0.0,0.0,0.0,0.0,0.0,0.0,0.0,0.0,0.0,0.0,0.0,0.0,0.0,0.0,0.0,0.0,0.0,0.0,0.0,0.0,0.0,0.0,0.0,0.0,0.0,0.0,0.0,0.0,0.0,0.0,0.0,0.0,0.0,0.0,0.0,0.0,0.0,0.0,0.0,0.0,0.0,0.0,0.0,0.0,0.0,0.0,0.0,0.0,0.0,0.0,0.0,0.0,0.0,0.0,0.0,0.0,0.0,0.0,0.0,0.0,0.0,0.0,0.0,0.0,0.0,0.0,0.0,0.0,0.0,0.0,0.0,0.0,0.0,0.0,0.0,0.0,0.0,0.0,0.0,0.0,0.0,0.0,0.0,0.0,0.0,0.0,0.0,0.0,0.0,0.0,0.0,0.0,0.0,0.0,0.0,0.0,0.0,-3.1387,-3.2291,-3.325,-3.1913,-3.0206,-2.8233,-2.5338,-2.3184,-2.2036,-2.1346,0.0,0.0,0.0,0.0,0.0,0.0,0.0,0.0,0.0,0.0,0.0,0.0,0.0,0.0,0.0,0.0,0.0,0.0,0.0,0.0,0.0,0.0,0.0,0.0,0.0,0.0,0.0,0.0,0.0,0.0,0.0,0.0,0.0,0.0,0.0,0.0,0.0,0.0,0.0,0.0,0.0,0.0,0.0,0.0,0.0,0.0,0.0,0.0,0.0,0.0,0.0,0.0,0.0,0.0,0.0,0.0,0.0,0.0,0.0,0.0,0.0,0.0,0.0,0.0,0.0,0.0,0.0,0.0,0.0,0.0,0.0,0.0,0.0,0.0,0.0,0.0,0.0,0.0,0.0,0.0,0.0,0.0,0.0,0.0,0.0,0.0,0.0,0.0,0.0,0.0,0.0,0.0,0.0,0.0,0.0,0.0,0.0,0.0,0.0,0.0,0.0,0.0,-3.1777,-3.392,-3.5578,-3.407,-3.2088,-2.9917,-2.7393,-2.4701,-2.1847,-2.1454,0.0,0.0,0.0,0.0,0.0,0.0,0.0,0.0,0.0,0.0,0.0,0.0,0.0,0.0,0.0,0.0,0.0,0.0,0.0,0.0,0.0,0.0,0.0,0.0,0.0,0.0,0.0,0.0,0.0,0.0,0.0,0.0,0.0,0.0,0.0,0.0,0.0,0.0,0.0,0.0,0.0,0.0,0.0,0.0,0.0,0.0,0.0,0.0,0.0,0.0,0.0,0.0,0.0,0.0,0.0,0.0,0.0,0.0,0.0,0.0,0.0,0.0,0.0,0.0,0.0,0.0,0.0,0.0,0.0,0.0,0.0,0.0,0.0,0.0,0.0,0.0,0.0,0.0,0.0,0.0,0.0,0.0,0.0,0.0,0.0,0.0,0.0,0.0,0.0,0.0,0.0,0.0,0.0,0.0,0.0,0.0,0.0,0.0,0.0,0.0,0.0,0.0,-3.1133,-3.3203,-3.5742,-3.4314,-3.2713,-3.1633,-2.9008,-2.6566,-2.4539,0.0,0.0,0.0,0.0,0.0,0.0,0.0,0.0,0.0,0.0,0.0,0.0,0.0,0.0,0.0,0.0,0.0,0.0,0.0,0.0,0.0,0.0,0.0,0.0,0.0,0.0,0.0,0.0,0.0,0.0,0.0,0.0,0.0,0.0,0.0,0.0,0.0,0.0,0.0,0.0,0.0,0.0,0.0,0.0,0.0,0.0,0.0,0.0,0.0,0.0,0.0,0.0,0.0,0.0,0.0,0.0,0.0,0.0,0.0,0.0,0.0,0.0,0.0,0.0,0.0,0.0,0.0,0.0,0.0,0.0,0.0,0.0,0.0,0.0,0.0,0.0,0.0,0.0,0.0,0.0,0.0,0.0,0.0,0.0,0.0,0.0,0.0,0.0,0.0,0.0,0.0,0.0,0.0,0.0,0.0,0.0,0.0,0.0,0.0,0.0,0.0,0.0,-2.9023,-3.1055,-3.3125,-3.5742,-3.4883,-3.3592,-3.2498,-3.0472,-2.8237,-2.5907,0.0,0.0,0.0,0.0,0.0,0.0,0.0,0.0,0.0,0.0,0.0,0.0,0.0,0.0,0.0,0.0,0.0,0.0,0.0,0.0,0.0,0.0,0.0,0.0,0.0,0.0,0.0,0.0,0.0,0.0,0.0,0.0,0.0,0.0,0.0,0.0,0.0,0.0,0.0,0.0,0.0,0.0,0.0,0.0,0.0,0.0,0.0,0.0,0.0,0.0,0.0,0.0,0.0,0.0,0.0,0.0,0.0,0.0,0.0,0.0,0.0,0.0,0.0,0.0,0.0,0.0,0.0,0.0,0.0,0.0,0.0,0.0,0.0,0.0,0.0,0.0,0.0,0.0,0.0,0.0,0.0,0.0,0.0,0.0,0.0,0.0,0.0,0.0,0.0,0.0,0.0,0.0,0.0,0.0,0.0,0.0,0.0,0.0,0.0,0.0,0.0,0.0,-2.9121,-3.1816,-3.4082,-3.584,-3.6016,-3.4969,-3.2338,-3.174,-2.9641,0.0,0.0,0.0,0.0,0.0,0.0,0.0,0.0,0.0,0.0,0.0,0.0,0.0,0.0,0.0,0.0,0.0,0.0,0.0,0.0,0.0,0.0,0.0,0.0,0.0,0.0,0.0,0.0,0.0,0.0,0.0,0.0,0.0,0.0,0.0,0.0,0.0,0.0,0.0,0.0,0.0,0.0,0.0,0.0,0.0,0.0,0.0,0.0,0.0,0.0,0.0,0.0,0.0,0.0,0.0,0.0,0.0,0.0,0.0,0.0,0.0,0.0,0.0,0.0,0.0,0.0,0.0,0.0,0.0,0.0,0.0,0.0,0.0,0.0,0.0,0.0,0.0,0.0,0.0,0.0,0.0,0.0,0.0,0.0,0.0,0.0,0.0,0.0,0.0,0.0,0.0,0.0,0.0,0.0,0.0,0.0,0.0,0.0,0.0,0.0,0.0,0.0,0.0,-2.9121,-3.1816,-3.4082,-3.584,-3.6016,-3.5462,-3.4021,-3.3237,-3.1246,-2.7565,0.0,0.0,0.0,0.0,0.0,0.0,0.0,0.0,0.0,0.0,0.0,0.0,0.0,0.0,0.0,0.0,0.0,0.0,0.0,0.0,0.0,0.0,0.0,0.0,0.0,0.0,0.0,0.0,0.0,0.0,0.0,0.0,0.0,0.0,0.0,0.0,0.0,0.0,0.0,0.0,0.0,0.0,0.0,0.0,0.0,0.0,0.0,0.0,0.0,0.0,0.0,0.0,0.0,0.0,0.0,0.0,0.0,0.0,0.0,0.0,0.0,0.0,0.0,0.0,0.0,0.0,0.0,0.0,0.0,0.0,0.0,0.0,0.0,0.0,0.0,0.0,0.0,0.0,0.0,0.0,0.0,0.0,0.0,0.0,0.0,0.0,0.0,0.0,0.0,0.0,0.0,0.0,0.0,0.0,0.0,0.0,0.0,0.0,0.0,0.0,0.0,0.0,-2.9121,-3.1816,-3.4082,-3.584,-3.6016,-3.5664,-3.4766,-3.3906,-3.1953,-2.8516,0.0,0.0,0.0,0.0,0.0,0.0,0.0,0.0,0.0,0.0,0.0,0.0,0.0,0.0,0.0,0.0,0.0,0.0,0.0,0.0,0.0,0.0,0.0,0.0,0.0,0.0,0.0,0.0,0.0,0.0,0.0,0.0,0.0,0.0,0.0,0.0,0.0,0.0,0.0,0.0,0.0,0.0,0.0,0.0,0.0,0.0,0.0,0.0,0.0,0.0,0.0,0.0,0.0,0.0,0.0,0.0,0.0,0.0,0.0,0.0,0.0,0.0,0.0,0.0,0.0,0.0,0.0,0.0,0.0,0.0,0.0,0.0,0.0,0.0,0.0,0.0,0.0,0.0,0.0,0.0,0.0,0.0,0.0,0.0,0.0,0.0,0.0,0.0,0.0,0.0,0.0,0.0,0.0,0.0,0.0,0.0,0.0,0.0,0.0,0.0,0.0,0.0,-2.9141,-3.1855,-3.4141,-3.584,-3.6016,-3.5664,-3.4766,-3.3945,-3.2051,-2.8672,0.0,0.0,0.0,0.0,0.0,0.0,0.0,0.0,0.0,0.0,0.0,0.0,0.0,0.0,0.0,0.0,0.0,0.0,0.0,0.0,0.0,0.0,0.0,0.0,0.0,0.0,0.0,0.0,0.0,0.0,0.0,0.0,0.0,0.0,0.0,0.0,0.0,0.0,0.0,0.0,0.0,0.0,0.0,0.0,0.0,0.0,0.0,0.0,0.0,0.0,0.0,0.0,0.0,0.0,0.0,0.0,0.0,0.0,0.0,0.0,-2.918,-2.8066,0.0,0.0,0.0,0.0,0.0,0.0,0.0,0.0,0.0,0.0,0.0,0.0,0.0,0.0,0.0,0.0,0.0,0.0,0.0,0.0,0.0,0.0,0.0,0.0,0.0,0.0,0.0,0.0,0.0,0.0,0.0,0.0,0.0,0.0,0.0,0.0,0.0,0.0,0.0,0.0,-2.9219,-3.2129,-3.4473,-3.5879,-3.6016,-3.5664,-3.4766,-3.4238,-3.2754,-2.9961,-2.7773,0.0,0.0,0.0,0.0,0.0,0.0,0.0,0.0,0.0,0.0,0.0,0.0,0.0,0.0,0.0,0.0,0.0,0.0,0.0,0.0,0.0,0.0,0.0,0.0,0.0,0.0,0.0,0.0,0.0,0.0,0.0,0.0,0.0,0.0,0.0,0.0,0.0,0.0,0.0,0.0,0.0,0.0,0.0,0.0,0.0,0.0,0.0,0.0,0.0,0.0,0.0,0.0,0.0,0.0,0.0,0.0,0.0,0.0,0.0,-3.2207,-3.1074,0.0,0.0,0.0,0.0,0.0,0.0,0.0,0.0,0.0,0.0,0.0,0.0,0.0,0.0,0.0,0.0,0.0,0.0,0.0,0.0,0.0,0.0,0.0,0.0,0.0,0.0,0.0,0.0,0.0,0.0,0.0,0.0,0.0,0.0,0.0,0.0,0.0,0.0,0.0,0.0,-2.9551,-3.2324,-3.457,-3.5879,-3.584,-3.5449,-3.4766,-3.4121,-3.2832,-3.0664,-2.8887,0.0,0.0,0.0,0.0,0.0,0.0,0.0,0.0,0.0,0.0,0.0,0.0,0.0,0.0,0.0,0.0,0.0,0.0,0.0,0.0,0.0,0.0,0.0,0.0,0.0,0.0,0.0,0.0,0.0,0.0,0.0,0.0,0.0,0.0,0.0,0.0,0.0,0.0,0.0,0.0,0.0,0.0,0.0,0.0,0.0,0.0,0.0,0.0,0.0,0.0,0.0,0.0,0.0,-3.457,-3.5254,-3.6562,-3.6289,-3.6562,-3.7129,-3.541,-3.457,-3.4297,-3.2715,0.0,0.0,0.0,0.0,0.0,0.0,0.0,0.0,0.0,0.0,0.0,0.0,0.0,0.0,0.0,0.0,0.0,0.0,0.0,0.0,0.0,0.0,0.0,0.0,-3.3047,-3.2871,-2.916,0.0,0.0,0.0,0.0,0.0,0.0,0.0,0.0,0.0,0.0,0.0,-3.0117,-3.2617,-3.4629,-3.5781,-3.5605,-3.5176,-3.4629,-3.3945,-3.2851,-3.1211,-2.9961,-2.8379,0.0,0.0,0.0,0.0,0.0,0.0,0.0,0.0,0.0,0.0,0.0,0.0,0.0,0.0,0.0,0.0,0.0,0.0,0.0,0.0,0.0,0.0,0.0,0.0,0.0,0.0,0.0,0.0,0.0,0.0,0.0,0.0,-2.3793,-2.4084,0.0,0.0,0.0,0.0,0.0,0.0,0.0,0.0,0.0,0.0,0.0,0.0,0.0,-3.3496,-3.4687,-3.6289,-3.7012,-3.6894,-3.834,-3.8945,-3.8789,-3.9141,-3.9375,-3.9473,-3.9551,0.0,-3.5684,-3.4687,0.0,0.0,0.0,0.0,0.0,0.0,0.0,0.0,0.0,0.0,0.0,0.0,0.0,0.0,0.0,0.0,0.0,0.0,0.0,0.0,0.0,0.0,-3.5273,-3.4961,-3.5293,-3.5312,0.0,-3.1094,-2.8301,-2.6797,-2.5371,-2.4043,0.0,0.0,0.0,0.0,0.0,0.0,-3.1055,-3.3262,-3.4844,-3.541,-3.543,-3.5059,-3.4219,-3.4043,-3.3418,-3.209,-3.1133,-3.0,-2.8555,-2.6551,0.0,0.0,0.0,0.0,0.0,0.0,0.0,0.0,0.0,0.0,0.0,0.0,0.0,0.0,0.0,0.0,0.0,0.0,0.0,0.0,0.0,0.0,0.0,0.0,0.0,0.0,0.0,0.0,0.0,-2.3789,-2.5702,-2.6218,-2.6821,-2.7012,0.0,0.0,0.0,0.0,0.0,0.0,0.0,0.0,0.0,-3.4277,-3.5156,-3.6113,-3.7168,-3.8144,-3.8809,-3.9121,-3.9883,-4.0273,-4.0312,-4.0527,-4.0625,-4.0625,-4.0801,-4.0,-3.8457,-3.7344,-3.5644,-3.3672,0.0,0.0,0.0,0.0,-3.2519,-3.2754,-3.4785,-3.5195,-3.4746,-3.418,0.0,0.0,0.0,0.0,0.0,0.0,0.0,0.0,0.0,0.0,-3.6465,-3.6738,-3.7148,-3.7285,-3.6641,-3.4609,-3.2168,0.0,-2.8965,-2.7891,-2.5031,-2.5195,0.0,0.0,0.0,-3.0059,-3.1992,-3.3476,-3.4609,-3.5312,-3.4941,-3.4492,-3.4101,-3.3633,-3.3008,-3.2226,-3.1582,-3.0762,-2.9687,-2.8281,-2.6719,0.0,0.0,0.0,0.0,0.0,0.0,0.0,0.0,0.0,0.0,0.0,0.0,0.0,0.0,0.0,0.0,0.0,0.0,0.0,0.0,0.0,0.0,0.0,0.0,0.0,0.0,0.0,0.0,-2.5879,-2.7344,-2.8256,-2.8887,-2.9023,0.0,0.0,0.0,0.0,0.0,0.0,-3.3379,-3.4375,-3.5547,-3.6973,-3.7637,-3.8379,-3.9238,-3.9551,-4.0039,-4.0684,-4.0684,-4.0859,-4.1172,-4.1172,-4.1172,-4.1172,-4.1172,-4.0996,-4.0605,-3.9394,-3.7969,-3.6426,-3.5664,-3.4844,-3.4238,-3.543,-3.5723,-3.584,-3.7988,-3.8516,-3.8086,-3.7051,-3.6094,-3.4902,-3.2441,0.0,0.0,0.0,0.0,-3.3965,-3.5488,-3.6426,-3.7187,-3.791,-3.834,-3.8457,-3.8027,-3.709,-3.5488,0.0,-3.2207,-3.123,-2.776,-2.793,0.0,0.0,0.0,-3.1113,-3.2754,-3.3613,-3.4316,-3.498,-3.4473,-3.3984,-3.3769,-3.3164,-3.2559,-3.2031,-3.1699,-3.1172,-3.041,-2.9648,-2.8496,-2.6914,0.0,0.0,0.0,0.0,0.0,0.0,0.0,0.0,0.0,0.0,0.0,0.0,0.0,0.0,0.0,0.0,0.0,0.0,0.0,0.0,0.0,0.0,0.0,0.0,0.0,0.0,0.0,0.0,0.0,-2.9961,-3.1191,0.0,0.0,0.0,0.0,-3.25,-3.3359,-3.4785,-3.6914,-3.7109,-3.793,-3.9648,-3.9746,-4.0176,-4.1035,-4.1055,-4.1094,-4.1133,-4.1133,-4.1152,-4.1172,-4.1172,-4.1172,-4.1172,-4.1172,-4.1172,-4.1074,-4.0195,-3.9043,-3.7793,-3.7344,-3.6641,-3.5996,-3.6875,-3.7441,-3.7891,-3.8848,-3.916,-3.9258,-4.0019,-3.8867,-3.6992,-3.6016,-3.4863,0.0,0.0,-3.5176,-3.6074,-3.6973,-3.7539,-3.7969,-3.8437,-3.8555,-3.8457,-3.8027,-3.7559,-3.6816,0.0,-3.3867,-3.2441,-3.1406,0.0,-3.0703,-3.0664,-3.1113,-3.1914,-3.3223,-3.3789,-3.4082,-3.4141,-3.4101,-3.375,-3.293,-3.2812,-3.2441,-3.1601,-3.1523,-3.1328,-3.0879,-3.0391,-2.9531,-2.8223,-2.6074,0.0,0.0,0.0,0.0,0.0,0.0,0.0,0.0,0.0,0.0,0.0,0.0,0.0,0.0,0.0,0.0,0.0,0.0,0.0,0.0,0.0,0.0,0.0,0.0,0.0,0.0,0.0,0.0,-3.2129,-3.3437,0.0,-3.3164,-3.3652,-3.4375,-3.5215,-3.6074,-3.7266,-3.8887,-3.9219,-3.9785,-4.0684,-4.0723,-4.0859,-4.1172,-4.1172,-4.1172,-4.1172,-4.1172,-4.1172,-4.1172,-4.1172,-4.1172,-4.1172,-4.1172,-4.1172,-4.1152,-4.084,-4.0273,-3.959,-3.9434,-3.9023,-3.8574,-3.916,-3.9473,-3.9687,-4.0273,-4.0469,-4.043,-4.0195,-3.9394,-3.8359,-3.75,-3.6914,-3.6582,-3.6738,-3.6992,-3.7383,-3.7969,-3.8223,-3.8379,-3.8535,-3.8574,-3.8535,-3.8379,-3.7793,-3.7168,-3.6699,-3.5449,-3.4023,-3.2578,-3.2676,-3.2754,-3.2207,-3.248,-3.3105,-3.4121,-3.3906,-3.3769,-3.4043,-3.3828,-3.3418,-3.2851,-3.2539,-3.2148,-3.1562,-3.0976,-3.0605,-3.0449,-3.0019,-2.9199,-2.791,-2.6855,-2.4785,0.0,0.0,0.0,0.0,0.0,0.0,0.0,0.0,0.0,0.0,0.0,0.0,0.0,0.0,0.0,0.0,0.0,0.0,0.0,0.0,0.0,0.0,0.0,0.0,0.0,0.0,-3.2578,-3.3711,-3.5273,-3.6074,-3.5625,-3.625,-3.6973,-3.7715,-3.8418,-3.9238,-4.0273,-4.0586,-4.0879,-4.1172,-4.1308,-4.1308,-4.1172,-4.1308,-4.1308,-4.1172,-4.1172,-4.1172,-4.1172,-4.1172,-4.1172,-4.1172,-4.1172,-4.1172,-4.1172,-4.1172,-4.0996,-4.0742,-4.0742,-4.0566,-4.0351,-4.0644,-4.0742,-4.0781,-4.1074,-4.1172,-4.1055,-4.0332,-3.9902,-3.9512,-3.8809,-3.8594,-3.8555,-3.8398,-3.8359,-3.8398,-3.8535,-3.8574,-3.8574,-3.8574,-3.8574,-3.8574,-3.8574,-3.791,-3.7305,-3.7305,-3.6387,-3.5195,-3.3906,-3.4141,-3.4277,-3.3555,-3.3672,-3.4004,-3.4434,-3.3984,-3.3691,-3.3828,-3.3594,-3.3184,-3.2637,-3.2324,-3.1914,-3.1348,-3.0605,-3.0195,-3.0195,-2.9648,-2.8887,-2.7891,-2.6875,-2.5156,-2.2734,0.0,0.0,0.0,0.0,0.0,0.0,0.0,0.0,0.0,0.0,0.0,0.0,0.0,0.0,0.0,0.0,0.0,0.0,0.0,0.0,0.0,0.0,0.0,-3.0273,-3.2129,-3.3828,-3.4687,-3.668,-3.7812,-3.7422,-3.8516,-3.9434,-3.9883,-4.0312,-4.0723,-4.1152,-4.1191,-4.1191,-4.1191,-4.1601,-4.1621,-4.1211,-4.1621,-4.1601,-4.1191,-4.1211,-4.1211,-4.1191,-4.1211,-4.1211,-4.1191,-4.1191,-4.1191,-4.1172,-4.1172,-4.1172,-4.1172,-4.1172,-4.1172,-4.1172,-4.1172,-4.1172,-4.1172,-4.1172,-4.1172,-4.1113,-4.0684,-4.0547,-4.0469,-4.0039,-3.9922,-3.9824,-3.9336,-3.9199,-3.9101,-3.8691,-3.8574,-3.8574,-3.8574,-3.8574,-3.8574,-3.8574,-3.791,-3.7305,-3.7305,-3.6601,-3.5898,-3.5488,-3.541,-3.5254,-3.4805,-3.4726,0.0,-3.4141,-3.4082,-3.3906,-3.3476,-3.3418,-3.3086,-3.2266,-3.2229,-3.1797,-3.0937,-3.0449,-3.0176,-3.0176,-2.9375,-2.873,-2.832,-2.626,-2.4922,-2.4473,0.0,0.0,0.0,0.0,0.0,0.0,0.0,0.0,0.0,0.0,0.0,0.0,0.0,0.0,0.0,0.0,0.0,0.0,0.0,0.0,0.0,-3.0273,-3.1738,-3.2031,-3.3945,-3.5742,-3.6894,-3.8105,-3.8926,-3.916,-3.9785,-4.0215,-4.0332,-4.0742,-4.1055,-4.1172,-4.1465,-4.1621,-4.1621,-4.2031,-4.2207,-4.209,-4.2207,-4.2051,-4.1621,-4.1933,-4.1933,-4.1641,-4.1953,-4.1914,-4.1621,-4.1621,-4.1445,-4.1172,-4.1172,-4.1172,-4.1172,-4.1172,-4.1172,-4.1172,-4.1172,-4.1172,-4.1172,-4.1172,-4.1172,-4.1152,-4.1035,-4.0996,-4.0918,-4.0488,-4.0351,-4.0195,-3.9414,-3.9199,-3.9101,-3.8691,-3.8574,-3.8574,-3.8574,-3.8574,-3.8574,-3.8574,-3.791,-3.7305,-3.7305,-3.6601,-3.5976,-3.5859,-3.5859,-3.5801,-3.5684,-3.5391,0.0,-3.459,-3.4258,-3.3906,-3.3476,-3.3418,-3.3203,-3.2676,-3.2344,-3.1797,-3.0937,-3.0176,-2.9746,-2.9746,-2.9219,-2.8867,-2.875,-2.7246,-2.6269,0.0,0.0,0.0,0.0,0.0,0.0,0.0,0.0,0.0,0.0,0.0,0.0,0.0,0.0,0.0,0.0,0.0,0.0,0.0,0.0,0.0,0.0,-3.2266,-3.3848,-3.4805,-3.6035,-3.7226,-3.832,-3.9219,-3.9941,-4.0391,-4.0644,-4.0801,-4.0801,-4.1035,-4.125,-4.1426,-4.166,-4.1875,-4.2051,-4.248,-4.2617,-4.2422,-4.2617,-4.248,-4.207,-4.2305,-4.2305,-4.207,-4.2305,-4.2207,-4.1797,-4.1797,-4.1562,-4.1172,-4.1172,-4.1172,0.0,0.0,0.0,0.0,0.0,-4.1172,-4.1172,-4.1172,-4.1172,-4.1172,-4.1172,-4.1172,-4.1133,-4.0879,-4.0801,-4.0605,-3.9746,-3.9492,-3.9355,-3.873,-3.8574,-3.8574,-3.8574,-3.8574,-3.8574,-3.8574,-3.791,-3.7305,-3.7305,-3.6601,0.0,-3.6016,-3.6016,-3.6016,-3.6016,-3.582,-3.543,-3.4785,-3.4492,-3.4101,-3.3496,-3.3418,-3.3242,-3.2832,-3.2402,0.0,0.0,0.0,-2.9668,-2.9316,-2.9062,0.0,0.0,0.0,0.0,0.0,0.0,0.0,0.0,-2.6523,-2.6484,0.0,0.0,0.0,0.0,0.0,0.0,0.0,0.0,0.0,0.0,0.0,0.0,0.0,0.0,0.0,0.0,-3.4277,-3.623,-3.7773,-3.8125,-3.8496,-3.9258,-4.0039,-4.0684,-4.1133,-4.1172,-4.1172,-4.1172,-4.1211,-4.1406,-4.1777,0.0,0.0,0.0,0.0,-4.2969,-4.2578,-4.2949,-4.293,-4.25,-4.2539,-4.2539,-4.25,-4.2558,-4.2324,-4.1875,-4.1875,-4.1601,-4.1172,-4.1172,-4.1172,-4.1172,-4.1172,-4.1172,-4.1172,-4.1172,-4.1172,-4.1172,-4.1172,0.0,0.0,-4.1172,-4.1172,-4.1172,-4.1172,-4.1172,-4.0996,-4.0195,-3.9922,-3.9707,-3.8867,-3.8613,-3.8574,-3.8574,-3.8574,-3.8574,-3.8574,-3.7949,-3.7344,-3.7305,-3.6641,-3.6074,-3.6035,-3.6016,-3.6016,-3.6016,-3.6016,-3.5703,-3.4805,-3.4707,-3.4375,-3.3516,0.0,0.0,-3.2891,-3.248,-3.2051,-3.1621,-3.0762,-2.9902,-2.9101,-2.9121,-2.9121,-2.9062,-2.9121,-2.9512,-3.0273,-3.0312,-3.0371,-3.0371,-2.8047,-2.7754,0.0,0.0,0.0,0.0,0.0,0.0,0.0,0.0,0.0,0.0,0.0,0.0,0.0,0.0,0.0,-3.3945,-3.6016,-3.7676,-3.8359,-3.9355,-4.0078,-4.0254,-4.041,-4.0684,-4.1133,-4.1172,-4.1172,-4.1172,-4.1484,-4.1719,-4.1797,-4.2461,-4.2871,-4.2949,-4.3359,-4.3535,-4.3457,-4.3535,-4.3379,-4.2949,0.0,0.0,-4.2969,-4.3301,-4.3027,-4.2305,-4.2305,-4.1875,-4.1172,-4.1172,-4.1172,-4.1172,-4.1172,-4.1172,-4.1172,-4.1172,-4.1172,-4.1172,-4.1172,-4.1172,-4.1172,-4.1172,-4.1172,-4.1172,-4.1172,-4.1172,0.0,-4.0547,-4.0156,-3.9766,-3.9219,-3.8828,-3.8574,-3.8574,-3.8574,-3.8574,-3.8574,-3.8164,-3.7695,-3.7363,-3.6894,-3.6426,-3.6074,-3.6016,-3.6016,-3.6016,-3.6016,-3.5703,-3.4805,-3.4707,-3.4375,-3.3516,-3.3418,-3.3379,-3.3301,-3.291,-3.25,-3.207,-3.123,-3.0508,-2.9961,-3.0312,-3.0332,-2.9961,-3.0312,-3.0586,-3.0762,-3.1094,-3.1445,-3.1758,-3.0918,-3.0527,0.0,0.0,0.0,0.0,0.0,0.0,0.0,0.0,0.0,0.0,0.0,-2.9726,-3.123,0.0,-3.459,-3.6074,-3.7402,-3.8555,-3.9434,-4.0117,-4.0527,-4.0527,-4.0723,-4.0937,-4.1152,-4.1172,-4.1172,-4.1172,-4.1562,-4.1894,-4.2109,-4.2734,-4.3183,-4.3379,-4.3594,-4.3711,-4.3711,-4.3711,-4.3594,-4.3398,-4.3594,-4.3594,-4.3398,-4.3613,-4.3242,-4.2422,-4.2422,-4.1953,-4.1172,-4.1172,-4.1172,-4.1172,-4.1172,-4.1172,-4.1172,-4.1172,-4.1172,-4.1172,-4.1172,-4.1172,-4.1172,-4.1172,-4.1172,-4.1172,-4.1172,-4.1172,-4.1074,-4.0644,-4.0215,-3.9785,-3.9316,-3.8887,-3.8574,-3.8574,-3.8574,-3.8574,-3.8574,-3.8066,-3.7539,-3.7344,-3.6777,-3.6269,-3.6055,-3.6016,-3.6016,-3.6016,-3.6016,-3.5781,-3.5137,-3.4844,-3.4453,-3.3809,-3.3555,-3.3418,-3.3418,-3.3027,-3.2617,-3.2268,-3.1758,-3.1426,-3.1191,-3.1406,-3.1426,-3.1191,-3.1406,-3.1523,-3.1523,-3.1738,-3.1953,-3.2229,-3.2168,-3.1934,0.0,0.0,0.0,0.0,0.0,0.0,0.0,0.0,-2.8691,-2.9707,-3.1172,-3.2617,-3.373,-3.5215,-3.666,-3.7851,-3.8496,-3.9238,-4.0351,-4.0586,-4.0644,-4.0644,-4.0957,-4.1172,-4.1172,-4.1172,-4.1172,-4.1172,-4.1641,-4.207,-4.2402,-4.293,-4.3359,-4.3691,-4.3711,-4.3711,-4.3711,-4.3711,-4.3711,-4.3711,-4.3711,-4.3711,-4.3711,-4.3711,-4.3242,-4.2422,-4.2246,-4.1797,-4.1172,-4.1172,-4.1172,-4.1172,-4.1172,-4.1172,-4.1172,-4.1172,-4.1172,-4.1172,-4.1172,-4.1172,-4.1172,-4.1172,-4.1172,-4.1172,-4.1172,-4.1172,-4.1094,-4.0742,-4.0293,-3.9805,-3.9434,-3.8965,-3.8574,-3.8574,-3.8574,-3.8574,-3.8574,-3.8027,-3.75,-3.7324,-3.6738,-3.6211,-3.6055,-3.6016,-3.6016,-3.6016,-3.6016,-3.5859,-3.5449,-3.5059,-3.4668,-3.4238,-3.3809,-3.3516,-3.3437,-3.3105,-3.2734,-3.2324,-3.2285,-3.2246,-3.2168,-3.2229,-3.2229,-3.2229,-3.2229,-3.2268,-3.2285,-3.2285,-3.2344,-3.2422,-3.2754,-3.2695,-2.5121,-2.5801,-2.6504,-2.7656,-2.7734,-2.8374,0.0,0.0,-3.1543,-3.3164,-3.4277,-3.5117,-3.5644,-3.6504,-3.7441,-3.8359,-3.9199,-3.9922,-4.0449,-4.0859,-4.1094,-4.1094,-4.1152,-4.1172,-4.1172,-4.1172,-4.1172,-4.1172,-4.1914,-4.2383,-4.2422,-4.3183,-4.3652,-4.3711,-4.3711,-4.3711,-4.3711,-4.3711,-4.3711,-4.3711,-4.3711,-4.3711,-4.3711,-4.3711,-4.3242,-4.2383,-4.1641,-4.125,-4.1172,-4.1172,-4.1172,-4.1172,-4.1172,-4.1172,-4.1172,-4.1172,-4.1172,-4.1172,-4.1172,-4.1172,-4.1172,-4.1172,-4.1172,-4.1172,-4.1172,-4.1172,-4.1172,-4.1113,-4.0508,-3.9883,-3.9824,-3.9199,-3.8574,-3.8574,-3.8574,-3.8574,-3.8574,-3.8496,-3.8203,-3.7441,-3.7226,-3.6914,-3.6152,-3.6016,-3.6016,-3.6016,-3.6016,-3.5859,-3.5449,-3.5351,-3.5137,-3.4668,-3.4258,-3.3848,-3.3457,-3.3379,-3.3164,-3.2754,-3.2734,-3.2559,-3.2187,-3.2229,-3.2229,-3.2229,-3.2229,-3.2344,-3.2734,-3.2734,-3.291,-3.3281,-3.332,-3.3125,-2.7946,-2.8281,-2.8555,0.0,-3.0605,-3.1387,-3.2832,-3.3476,-3.4043,-3.5019,-3.5898,-3.6641,-3.7051,-3.7637,-3.832,0.0,-3.9648,-4.0137,-4.0801,-4.084,-4.0801,-4.0801,-4.0801,-4.0898,-4.1152,-4.1172,-4.1172,-4.1172,-4.1953,-4.2422,-4.2422,-4.3242,-4.3711,-4.3711,-4.3711,-4.3711,-4.3711,-4.3711,-4.3711,-4.3711,-4.3711,-4.3711,-4.3711,-4.3711,-4.3242,-4.2383,-4.1543,-4.1172,-4.1172,-4.1172,-4.1172,-4.1172,-4.1172,-4.1172,-4.1172,-4.1172,-4.1172,-4.1172,-4.1172,-4.1172,-4.1172,-4.1172,-4.1172,-4.1172,-4.1172,-4.1172,-4.1172,-4.1172,-4.0566,-3.9902,-3.9902,-3.9238,-3.8574,-3.8574,-3.8574,-3.8574,-3.8574,-3.8379,-3.8027,-3.7422,-3.709,-3.6738,-3.6133,-3.6016,-3.6016,-3.6016,-3.6016,-3.5957,-3.5781,-3.5547,-3.5215,-3.4746,-3.4531,-3.4258,-3.3828,-3.3809,-3.3613,-3.3184,-3.3164,-3.3086,-3.291,-3.2891,-3.2891,-3.2891,-3.2891,-3.2988,-3.3164,-3.3164,-3.3242,-3.3418,-3.3418,-3.332,-2.9394,-2.9883,-3.0391,-3.1582,-3.2832,-3.3867,-3.4238,-3.5156,-3.6035,-3.6465,-3.7031,-3.7559,-3.7871,-3.8184,-3.8691,-3.957,-3.9824,-4.0195,-4.1055,-4.0801,-4.0527,-4.0527,-4.041,-4.0527,-4.0957,-4.1094,-4.1172,-4.1172,-4.1953,-4.2422,-4.2422,-4.3242,-4.3711,-4.3711,-4.3711,-4.3711,-4.3711,-4.3711,-4.3711,-4.3711,-4.3711,-4.3711,-4.3691,-4.3457,-4.3008,-4.2383,-4.1543,-4.1172,-4.1172,-4.1172,-4.1172,-4.1172,-4.1172,-4.1172,-4.1172,-4.1172,-4.1172,-4.1172,-4.1172,-4.1172,-4.1172,-4.1172,-4.1172,-4.1172,-4.1172,-4.1172,-4.1172,-4.1172,-4.0566,-3.9902,-3.9902,-3.9238,-3.8574,-3.8574,-3.8574,-3.8574,-3.8574,-3.832,-3.7949,-3.7402,-3.7051,-3.666,-3.6113,-3.6016,-3.6016,-3.6016,-3.6016,-3.6016,-3.6016,-3.5762,-3.5391,-3.4941,-3.4883,-3.4707,-3.4277,-3.4238,-3.4062,-3.3633,-3.3594,-3.3555,-3.3437,-3.3418,-3.3418,-3.3418,-3.3418,-3.3418,-3.3418,-3.3418,-3.3418,-3.3418,-3.3535,-3.3594,-2.8555,-2.9863,-3.166,-3.2539,-3.3711,-3.5,-3.6289,-3.6914,-3.7363,-3.7773,-3.7891,-3.791,-3.793,-3.793,-3.8223,-3.9082,-3.9609,-4.0195,-4.1055,-4.0801,-4.0527,-4.0527,-4.0156,-4.0078,0.0,-4.0918,-4.1172,-4.1172,-4.1953,-4.2422,-4.2422,-4.3242,-4.3711,-4.3711,-4.3711,-4.3711,-4.3711,-4.3711,-4.3711,-4.3711,-4.3711,-4.3711,-4.3672,-4.2851,-4.2461,-4.2383,-4.1543,-4.1172,-4.1172,-4.1172,-4.1172,-4.1172,-4.1172,-4.1172,-4.1172,-4.1172,-4.1172,-4.1172,-4.1172,-4.1172,-4.1172,-4.1172,-4.1172,-4.1172,-4.1172,-4.1172,-4.1172,-4.1172,-4.0566,-3.9902,-3.9902,-3.9238,-3.8574,-3.8574,-3.8574,-3.8574,-3.8574,-3.8555,-3.8301,-3.7461,-3.7285,-3.7012,-3.6172,-3.6016,-3.6016,-3.6016,-3.6016,-3.6016,-3.6016,-3.6016,-3.584,-3.541,-3.5371,-3.5176,-3.4726,-3.4687,-3.4492,-3.4082,-3.4062,-3.3867,-3.3437,-3.3418,-3.3418,-3.3418,-3.3418,-3.3418,-3.3418,-3.3418,-3.3418,-3.3437,-3.3848,-3.4062,-3.0547,0.0,-3.3066,-3.4219,-3.5488,-3.6601,-3.7344,-3.7832,-3.8105,-3.7949,-3.7695,-3.7422,-3.7148,-3.709,-3.7461,-3.8594,-3.916,-3.9844,-4.1016,-4.0801,-4.041,-4.0137,-4.0234,0.0,0.0,0.0,0.0,-4.1152,-4.1953,-4.2422,-4.2422,-4.3242,-4.3711,-4.3711,-4.3711,-4.3711,-4.3711,-4.3711,-4.3711,-4.3711,-4.3711,-4.3711,-4.3672,-4.2812,-4.2422,-4.2383,-4.1543,-4.1172,-4.1172,-4.1172,-4.1172,-4.1172,-4.1172,-4.1172,-4.1172,-4.1172,-4.1172,-4.1172,-4.1172,-4.1172,-4.1172,-4.1172,-4.1172,-4.1172,-4.1172,-4.1172,-4.1172,-4.1172,-4.0566,-3.9902,-3.9902,-3.9238,-3.8574,-3.8574,-3.8574,-3.8574,-3.8574,-3.8574,-3.832,-3.7461,-3.7305,-3.7031,-3.6172,-3.6016,-3.6016,-3.6016,-3.6016,-3.6016,-3.6016,-3.6016,-3.5957,-3.582,-3.5801,-3.5625,-3.5195,-3.5156,-3.4961,-3.4512,-3.4492,-3.4414,-3.4277,-3.4277,-3.4141,-3.3867,-3.4121,-3.4141,-3.3848,-3.4141,-3.4277,-3.4277,-3.4414,-3.4492,-3.2109,-3.3223,-3.4238,-3.5703,-3.6797,-3.7598,-3.7851,-3.8144,-3.8144,-3.7402,-3.6914,-3.6445,-3.5859,-3.5742,-3.6211,-3.7656,-3.8379,-3.9258,-4.0742,-4.0703,-4.041,-4.0156,-4.0234,-4.0254,0.0,0.0,0.0,-4.1133,-4.1816,-4.2266,-4.2422,-4.3105,-4.3555,-4.3691,-4.3711,-4.3711,-4.3711,-4.3711,-4.3711,-4.3711,-4.3711,-4.3633,-4.3457,-4.2754,-4.2344,-4.2168,-4.1484,-4.1172,-4.1172,-4.1172,-4.1172,-4.1172,-4.1172,-4.1172,-4.1172,-4.1172,-4.1172,-4.1172,-4.1172,-4.1172,-4.1172,-4.1172,-4.1172,-4.1172,-4.1172,-4.1172,-4.1172,-4.1172,-4.0566,-3.9902,-3.9902,-3.9238,-3.8574,-3.8574,-3.8574,-3.8574,-3.8574,-3.8574,-3.832,-3.7461,-3.7305,-3.7031,-3.6172,-3.6016,-3.6016,-3.6016,-3.6016,-3.6016,-3.6016,-3.6016,-3.6016,-3.6016,-3.6016,-3.5918,-3.5644,-3.5605,-3.543,-3.498,-3.4941,-3.4863,-3.4707,-3.4707,-3.457,-3.4297,-3.457,-3.457,-3.4297,-3.457,-3.4707,-3.4707,-3.4863,-3.4922,-3.3164,-3.416,-3.5234,-3.6914,-3.7637,-3.793,-3.793,-3.7871,-3.7461,-3.6211,-3.5586,-3.498,0.0,0.0,-3.457,-3.6289,-3.7324,-3.8535,-4.0273,-4.0547,-4.0547,0.0,0.0,0.0,0.0,0.0,0.0,-4.1152,0.0,-4.2012,-4.2402,-4.2871,-4.3301,-4.3691,-4.3711,-4.3711,-4.3711,-4.3711,-4.3711,-4.3711,-4.3711,-4.3476,-4.3066,-4.2617,-4.2207,-4.1777,-4.1348,-4.1172,-4.1172,-4.1172,-4.1172,-4.1172,-4.1172,-4.1172,-4.1172,-4.1172,-4.1172,-4.1172,-4.1172,-4.1172,-4.1172,-4.1172,-4.1172,-4.1172,-4.1172,-4.1172,-4.1172,-4.1172,-4.0566,-3.9902,-3.9902,-3.9238,-3.8574,-3.8574,-3.8574,-3.8574,-3.8574,-3.8574,-3.832,-3.75,-3.7305,-3.6992,-3.6172,-3.6016,-3.6016,-3.6016,-3.6016,-3.6016,-3.6016,-3.6016,-3.6016,-3.6016,-3.6016,-3.6016,-3.6016,-3.6016,-3.5859,-3.5449,-3.543,-3.5234,-3.4785,-3.4766,-3.4766,-3.4726,-3.4766,-3.4766,-3.4726,-3.4766,-3.4766,-3.4785,-3.5215,-3.5438,-3.4453,-3.5742,-3.6816,-3.7578,-3.7851,-3.793,-3.793,-3.7187,-3.623,-3.5234,-3.4199,-3.3105,0.0,0.0,0.0,-3.498,-3.6738,0.0,-4.0273,-4.0801,0.0,-4.0566,0.0,-4.0762,-4.0547,-4.082,0.0,0.0,-4.1855,-4.2305,-4.2422,-4.3144,-4.3594,-4.3691,-4.3711,-4.3711,-4.3711,-4.3711,-4.3711,-4.3711,-4.3711,-4.3476,-4.3066,-4.2617,-4.2207,-4.1777,-4.1348,-4.1172,-4.1172,-4.1172,-4.1172,-4.1172,-4.1172,-4.1172,-4.1172,-4.1172,-4.1172,-4.1172,-4.1172,-4.1172,-4.1172,-4.1172,-4.1172,-4.1172,-4.1172,-4.1172,-4.1172,-4.1172,-4.0566,-3.9902,-3.9902,-3.9238,-3.8574,-3.8574,-3.8574,-3.8574,-3.8574,-3.8574,-3.8418,-3.7871,-3.7266,-3.666,-3.6113,-3.6016,-3.6016,-3.6016,-3.6016,-3.6016,-3.6016,-3.6016,-3.6016,-3.6016,-3.6016,-3.6016,-3.6016,-3.6016,-3.5976,-3.5859,-3.5859,-3.5801,-3.5684,-3.5684,-3.5547,-3.5215,-3.5527,-3.5527,-3.5215,-3.5527,-3.5684,-3.5684,-3.5801,-3.584,-3.5586,-3.6738,-3.7676,-3.8105,-3.8066,-3.7734,-3.6973,-3.6094,-3.4922,-3.3105,-3.2148,0.0,-2.998,-3.0801,0.0,0.0,0.0,0.0,-3.9707,-4.0644,-4.1074,0.0,-4.1035,0.0,-4.084,-4.1035,-4.1172,0.0,-4.1777,-4.2226,-4.2422,-4.3066,-4.3516,-4.3691,-4.3711,-4.3711,-4.3711,-4.3711,-4.3711,-4.3711,-4.3516,-4.3203,-4.2773,-4.2344,-4.1914,-4.1504,0.0,-4.1172,-4.1172,-4.1172,-4.1172,-4.1172,-4.1172,-4.1172,-4.1172,-4.1172,-4.1172,-4.1172,-4.1172,-4.1172,-4.1172,-4.1172,-4.1172,-4.1172,-4.1172,-4.1172,-4.1172,-4.1172,-4.0684,-4.0137,-3.9941,-3.9375,-3.8809,-3.8613,-3.8574,-3.8574,-3.8574,-3.8574,-3.8437,-3.8008,-3.7246,-3.6601,-3.6348,-3.6152,-3.6016,-3.6016,-3.6016,-3.6016,-3.6016,-3.6016,-3.6016,-3.6016,-3.6016,-3.6016,-3.6016,-3.6016,-3.6016,-3.6016,-3.6016,-3.6016,-3.6016,-3.6016,-3.5918,-3.5664,-3.5898,-3.5898,-3.5664,-3.5898,-3.6016,-3.6016,-3.6016,-3.6016,-3.6543,-3.7363,-3.8105,-3.8476,-3.8164,-3.7344,-3.5762,-3.4824,-3.3476,-3.0605,0.0,-2.9473,-2.8184,-2.9141,-3.0664,-3.2344,0.0,-3.7187,-3.8965,-4.0293,-4.1113,-4.1172,-4.1172,-4.1172,-4.1172,-4.1172,-4.1172,-4.1172,-4.1562,-4.1992,-4.2402,-4.2891,-4.332,-4.3691,-4.3711,-4.3672,-4.3613,-4.3613,-4.3594,-4.3535,-4.3164,-4.2773,-4.2324,-4.1973,-4.1562,-4.1172,-4.1172,0.0,-4.1172,-4.1172,-4.1172,-4.1172,-4.1172,-4.1172,-4.1172,-4.1172,-4.1172,-4.1172,-4.1172,-4.1172,-4.1172,-4.1172,-4.1172,-4.1172,-4.1172,-4.1172,-4.1172,-4.1172,-4.0859,-4.043,-4.0,-3.9551,-3.9101,-3.8672,-3.8574,-3.8574,-3.8574,-3.8574,-3.8437,-3.8008,-3.7344,-3.6816,-3.6758,-3.6387,-3.6113,-3.6113,-3.6055,-3.6016,-3.6016,-3.6016,-3.6016,-3.6016,-3.6016,-3.6016,-3.6016,-3.6016,-3.6016,-3.6016,-3.6016,-3.6016,-3.6016,-3.6016,-3.6016,-3.6016,-3.6016,-3.6016,-3.6016,-3.6016,-3.6016,-3.6016,-3.6016,-3.6016,-3.7051,-3.7812,-3.8476,-3.8555,-3.7734,-3.6621,-3.5625,-3.3672,0.0,0.0,-2.8594,-2.7715,-2.6426,-2.8105,-3.0137,-3.1523,-3.4219,-3.6855,-3.8906,-4.0039,-4.0781,0.0,-4.1172,-4.1172,-4.1172,-4.1172,0.0,0.0,-4.1562,-4.1992,-4.2402,-4.3164,-4.3633,-4.3711,-4.3711,-4.3535,-4.3183,-4.3183,-4.3008,-4.2637,-4.2578,-4.2324,-4.1914,-4.1836,-4.1562,-4.1172,-4.1172,0.0,-4.1172,-4.1172,-4.1172,-4.1172,-4.1172,-4.1172,-4.1172,-4.1172,-4.1172,-4.1172,-4.1172,-4.1172,-4.1172,-4.1172,-4.1172,-4.1172,-4.1172,-4.1172,-4.1172,-4.1172,-4.0859,-4.043,-4.0,-3.9551,-3.9101,-3.8672,-3.8574,-3.8574,-3.8574,-3.8574,-3.8437,-3.8008,-3.7812,-3.7598,-3.7246,-3.6836,-3.6562,-3.6562,-3.625,-3.6016,-3.6016,-3.6016,-3.6016,-3.6016,-3.6016,-3.6016,-3.6016,-3.6016,-3.6016,-3.6016,-3.6016,-3.6016,-3.6016,-3.6016,-3.6016,-3.6016,-3.6016,-3.6016,-3.6016,-3.6016,-3.6016,-3.6016,-3.6016,-3.6016,-3.7187,-3.793,-3.8516,-3.8301,-3.7266,-3.5879,-3.4121,0.0,0.0,0.0,-2.6758,-2.6163,-2.5508,-2.7129,0.0,-3.0293,0.0,0.0,-3.7871,-3.8965,0.0,-4.1035,-4.1172,-4.1172,0.0,-4.1172,-4.1172,-4.1172,0.0,-4.1894,-4.209,-4.2695,-4.3047,-4.3047,-4.3047,-4.2949,-4.2734,-4.2734,-4.2637,-4.2422,-4.2207,-4.1992,-4.1797,-4.1562,-4.1367,-4.1172,-4.1172,0.0,-4.1172,-4.1172,-4.1172,-4.1172,-4.1172,-4.1172,-4.1172,-4.1172,-4.1172,-4.1172,-4.1172,-4.1172,-4.1172,-4.1172,-4.1172,-4.1172,-4.1172,-4.1172,-4.1172,-4.1172,-4.1035,-4.0703,-4.0059,-3.9726,-3.9394,-3.873,-3.8574,-3.8574,-3.8574,-3.8574,-3.8516,-3.8301,-3.8086,-3.7851,-3.7656,-3.7266,-3.6914,-3.6699,-3.6484,-3.6269,-3.6055,-3.6016,-3.6016,-3.6016,-3.6016,-3.6016,-3.6016,-3.6016,-3.6016,-3.6016,-3.6016,-3.6016,-3.6016,-3.6016,-3.6016,-3.6016,-3.6016,-3.6016,-3.6016,-3.6016,-3.6016,-3.6016,-3.6016,-3.6016,-3.7051,-3.7851,-3.8476,-3.8027,-3.6894,-3.5234,-3.2734,-3.0741,0.0,0.0,-2.5234,-2.4969,-2.4969,0.0,-2.7885,0.0,-3.1445,0.0,0.0,0.0,0.0,0.0,-4.1113,0.0,-4.1172,-4.1172,0.0,-4.1172,0.0,0.0,-4.1933,-4.2246,-4.2422,-4.2422,-4.2422,-4.2383,-4.2285,-4.2285,-4.2246,-4.2148,-4.1816,-4.166,-4.166,-4.1328,-4.1172,-4.1172,-4.1172,0.0,0.0,-4.1172,-4.1172,-4.1172,-4.1172,-4.1172,-4.1172,-4.1172,-4.1172,-4.1172,-4.1172,-4.1172,-4.1172,-4.1172,-4.1172,-4.1172,-4.1172,-4.1172,-4.1172,-4.1172,-4.1172,-4.0996,-4.0234,-3.9961,-3.9668,-3.8789,-3.8574,-3.8574,-3.8574,-3.8574,-3.8574,-3.8574,-3.8301,-3.8066,-3.8066,-3.7715,-3.7324,-3.6992,-3.6777,-3.6543,-3.6211,-3.6074,-3.6016,-3.6016,-3.6016,-3.6016,-3.6016,-3.6016,-3.6016,-3.6016,-3.6016,-3.6016,-3.6016,-3.6016,-3.6016,-3.6016,-3.6016,-3.6016,-3.6016,-3.6016,-3.6016,-3.6016,-3.6016,-3.6016,-3.6601,-3.7637,-3.8476,-3.8027,-3.668,-3.4883,-3.2676,0.0,0.0,-2.5634,-2.4785,-2.4473,-2.4473,-2.5586,0.0,0.0,0.0,-3.2734,0.0,0.0,0.0,0.0,0.0,0.0,-4.1172,-4.1172,0.0,0.0,0.0,0.0,-4.2324,-4.2402,-4.2422,-4.2422,-4.2422,-4.2246,-4.1855,-4.1855,-4.166,-4.1289,-4.125,-4.123,-4.123,-4.1191,-4.1172,-4.1172,-4.1172,0.0,0.0,-4.1172,-4.1172,-4.1172,-4.1172,-4.1172,-4.1172,-4.1172,-4.1172,-4.1172,-4.1172,-4.1172,-4.1172,-4.1172,-4.1172,-4.1172,-4.1172,-4.1172,-4.1172,-4.1172,-4.1172,-4.1055,-4.0586,-4.0176,-3.9668,-3.8789,-3.8574,-3.8574,-3.8574,-3.8574,-3.8574,-3.8574,-3.8555,-3.8516,-3.8516,-3.8164,-3.7851,-3.7812,-3.7168,-3.666,-3.6621,-3.6269,-3.6016,-3.6016,-3.6016,-3.6016,-3.6016,-3.6016,-3.6016,-3.6016,-3.6016,-3.6016,-3.6016,-3.6016,-3.6016,-3.6016,-3.6016,-3.6016,-3.6016,-3.6016,-3.6016,-3.6016,-3.6016,-3.6016,-3.5703,-3.6836,-3.7695,-3.7266,-3.5879,-3.4043,-3.1894,0.0,-2.6992,-2.5078,-2.4121,-2.3764,-2.4316,-2.5059,-2.6152,0.0,0.0,0.0,0.0,0.0,0.0,0.0,0.0,0.0,0.0,0.0,0.0,0.0,0.0,0.0,-4.166,-4.168,-4.168,-4.168,-4.168,-4.1582,-4.1426,-4.1426,-4.1348,-4.1172,-4.1172,-4.1172,-4.1172,-4.1172,-4.1172,-4.1172,-4.1172,0.0,0.0,-4.1172,-4.1172,-4.1172,-4.1172,-4.1172,-4.1172,-4.1172,-4.1172,-4.1172,-4.1172,-4.1172,-4.1172,-4.1172,-4.1172,-4.1172,-4.1172,-4.1172,-4.1172,-4.1172,-4.1172,-4.1074,-4.0644,-4.0,-3.9316,-3.8711,-3.8574,-3.8574,-3.8574,-3.8574,-3.8574,-3.8574,-3.8574,-3.8574,-3.8574,-3.8437,-3.8223,-3.7969,-3.7637,-3.7324,-3.709,-3.668,-3.6406,-3.6406,-3.6172,-3.6016,-3.6016,-3.6016,-3.6016,-3.6016,-3.6016,-3.6016,-3.6016,-3.6016,-3.6016,-3.6016,-3.6016,-3.6016,-3.6016,-3.6016,-3.6016,-3.6016,-3.6016,-3.6016,-3.4726,-3.5937,-3.6816,-3.6406,-3.5078,-3.332,0.0,-2.8789,-2.6523,-2.4766,-2.3848,-2.351,-2.4277,-2.4766,-2.5595,0.0,0.0,0.0,0.0,0.0,0.0,0.0,0.0,0.0,0.0,0.0,0.0,0.0,0.0,0.0,-4.1172,-4.1172,-4.1172,-4.1172,-4.1172,-4.1172,-4.1172,-4.1172,-4.1172,-4.1172,-4.1172,-4.1172,-4.1172,-4.1172,-4.1172,-4.1172,-4.1172,0.0,0.0,-4.1172,-4.1172,-4.1172,-4.1172,-4.1172,-4.1172,-4.1172,-4.1172,-4.1172,-4.1172,-4.1172,-4.1172,-4.1172,-4.1172,-4.1172,-4.1172,-4.1172,-4.1172,-4.1172,-4.1172,-4.1035,-4.0488,-3.9883,-3.9258,-3.8711,-3.8574,-3.8574,-3.8574,-3.8574,-3.8574,-3.8574,-3.8574,-3.8574,-3.8574,-3.8574,-3.8476,-3.8164,-3.8008,-3.778,-3.7514,-3.7098,-3.6905,-3.6916,-3.6465,-3.6123,-3.6035,-3.6016,-3.6016,-3.6016,-3.6016,-3.6016,-3.6016,-3.6016,-3.6016,-3.6016,-3.6016,-3.6016,-3.6016,-3.6016,-3.6016,-3.6016,-3.6016,-3.6016,-3.373,-3.5039,-3.5937,-3.5508,-3.4414,-3.2871,-3.0703,-2.8555,-2.6523,-2.4766,-2.4082,-2.3906,-2.4336,-2.4766,-2.5399,-2.625,0.0,0.0,0.0,0.0,0.0,0.0,0.0,0.0,0.0,0.0,0.0,0.0,0.0,0.0,-4.1172,-4.1172,-4.1172,-4.1172,-4.1172,-4.1172,-4.1172,-4.1172,-4.1172,-4.1172,-4.1172,-4.1172,-4.1172,-4.1172,-4.1172,-4.1172,0.0,0.0,0.0,-4.1172,-4.1172,-4.1172,-4.1172,-4.1172,-4.1172,-4.1172,-4.1172,-4.1172,-4.1172,-4.1172,-4.1172,-4.1172,-4.1172,-4.1172,-4.1172,-4.1172,-4.1172,-4.1172,-4.1172,-4.0976,-4.0117,-3.9902,-3.9668,-3.8789,-3.8574,-3.8574,-3.8574,-3.8574,-3.8574,-3.8574,-3.8574,-3.8574,-3.8574,-3.8574,-3.8574,-3.8574,-3.8203,-3.7883,-3.7904,-3.754,-3.7277,-3.7291,-3.6894,-3.6483,-3.6074,-3.6016,-3.6016,-3.6016,-3.6016,-3.6016,-3.6016,-3.6016,-3.6016,-3.6016,-3.6016,-3.6016,-3.6016,-3.6016,-3.6016,-3.6016,-3.6016,-3.6016,-3.0879,-3.2168,-3.3223,-3.25,-3.1758,-3.082,-2.9258,-2.7695,-2.6172,-2.4707,-2.4082,-2.3926,-2.4336,-2.4766,-2.5693,-2.7402,-2.791,0.0,0.0,0.0,0.0,0.0,0.0,0.0,0.0,0.0,0.0,0.0,0.0,0.0,-4.1172,-4.1172,-4.1172,-4.1172,-4.1172,-4.1172,-4.1172,-4.1172,-4.1172,-4.1172,-4.1172,-4.1172,-4.1172,-4.1172,-4.1172,0.0,0.0,0.0,0.0,-4.1172,-4.1172,-4.1172,-4.1172,-4.1172,-4.1172,-4.1172,-4.1172,-4.1172,-4.1172,-4.1172,-4.1172,-4.1172,-4.1172,-4.1172,-4.1172,-4.1172,-4.1172,-4.1172,-4.1172,-4.0976,-4.0117,-3.9902,-3.9668,-3.8789,-3.8574,-3.8574,-3.8574,-3.8574,-3.8574,-3.8574,-3.8574,-3.8574,-3.8574,-3.8574,-3.8574,-3.8574,-3.8457,-3.8398,-3.837,-3.7953,-3.774,-3.7681,-3.7339,-3.6945,-3.6533,-3.621,-3.6016,-3.6016,-3.6016,-3.6016,-3.6016,-3.6016,-3.6016,-3.6016,-3.6016,-3.6016,-3.6016,-3.6016,-3.6016,-3.6016,-3.6016,-3.6016,-2.8867,-3.0117,-3.1113,-3.0527,-3.0059,-2.9375,-2.8105,-2.6953,-2.5762,-2.4453,-2.3965,-2.3867,-2.4141,-2.4668,-2.5556,-2.6855,-2.7617,0.0,0.0,0.0,0.0,0.0,0.0,0.0,0.0,0.0,0.0,0.0,0.0,0.0,-4.1172,-4.1172,-4.1172,-4.1172,-4.1172,-4.1172,-4.1172,-4.1172,-4.1172,-4.1172,-4.1172,-4.1172,-4.1172,-4.1172,-4.1172,0.0,0.0,0.0,0.0,-4.1172,-4.1172,-4.1172,-4.1172,-4.1172,-4.1172,-4.1172,-4.1172,-4.1172,-4.1172,-4.1172,-4.1172,-4.1172,-4.1172,-4.1172,-4.1172,-4.1172,-4.1172,-4.1172,-4.1172,-4.0976,-4.0117,-3.9885,-3.969,-3.8809,-3.8574,-3.8574,-3.8574,-3.8574,-3.8574,-3.8574,-3.8574,-3.8574,-3.8574,-3.8574,-3.8574,-3.8574,-3.8574,-3.8574,-3.8574,-3.837,-3.8166,-3.8166,-3.7792,-3.7378,-3.714,-3.6583,-3.621,-3.6016,-3.6016,-3.6016,-3.6016,-3.6016,-3.6016,-3.6016,-3.6016,-3.6016,-3.6016,-3.6016,-3.6016,-3.6016,-3.6016,-3.6016,0.0,-2.8613,-2.9333,-2.9274,-2.8926,-2.832,-2.7109,-2.6161,0.0,-2.4043,-2.3789,-2.3828,-2.3906,-2.4551,-2.5184,-2.5399,-2.6769,0.0,0.0,0.0,0.0,0.0,0.0,0.0,0.0,0.0,0.0,0.0,0.0,0.0,-4.1172,-4.1172,-4.1172,-4.1172,-4.1172,-4.1172,-4.1172,-4.1172,-4.1172,-4.1172,-4.1172,-4.1172,-4.1172,-4.1172,-4.1172,0.0,0.0,0.0,0.0,-4.1172,-4.1172,-4.1172,-4.1172,-4.1172,-4.1172,-4.1172,-4.1172,-4.1172,-4.1172,-4.1172,-4.1172,-4.1172,-4.1172,-4.1172,-4.1172,-4.1172,-4.1172,-4.1172,-4.1172,-4.0976,-4.0137,-3.9907,-3.9695,-3.8828,-3.8574,-3.8574,-3.8574,-3.8574,-3.8574,-3.8574,-3.8574,-3.8574,-3.8574,-3.8574,-3.8574,-3.8574,-3.8574,-3.8574,-3.8574,-3.8574,-3.8574,-3.8574,-3.8185,-3.7982,-3.7889,-3.7191,-3.6561,-3.6123,-3.6035,-3.6035,-3.6035,-3.6016,-3.6016,-3.6016,-3.6016,-3.6016,-3.6016,-3.6016,-3.6016,-3.6016,-3.6016,-3.6016,-2.4707,0.0,-2.6484,-2.5801,-2.5801,-2.5801,0.0,-2.4863,-2.4551,-2.3926,-2.3789,-2.4102,-2.505,-2.5156,-2.5869,-2.8198,-2.8574,-2.9199,0.0,0.0,0.0,0.0,0.0,0.0,0.0,0.0,0.0,0.0,0.0,-4.1172,-4.1172,-4.1172,-4.1172,-4.1172,-4.1172,-4.1172,-4.1172,-4.1172,-4.1172,-4.1172,-4.1172,-4.1172,-4.1172,-4.1172,-4.1172,0.0,0.0,0.0,-4.1172,-4.1172,-4.1172,-4.1172,-4.1172,-4.1172,-4.1172,-4.1172,-4.1172,-4.1172,-4.1172,-4.1172,-4.1172,-4.1172,-4.1172,-4.1172,-4.1172,-4.1172,-4.1172,-4.1172,-4.1172,-4.1016,-4.016,-3.9928,-3.9695,-3.8828,-3.8574,-3.8574,-3.8574,-3.8574,-3.8574,-3.8574,-3.8574,-3.8574,-3.8574,-3.8574,-3.8574,-3.8574,-3.8574,-3.8574,-3.8574,-3.8574,-3.8574,-3.8574,-3.8482,-3.8278,-3.7909,-3.7459,-3.7129,-3.7021,-3.6669,-3.6561,-3.6561,-3.621,-3.6016,-3.6016,-3.6016,-3.6016,-3.6016,-3.6016,-3.6016,-3.6016,-3.6016,-3.6016,-2.3496,-2.4727,-2.5918,-2.5449,-2.5508,-2.5566,-2.5117,-2.4551,-2.4004,-2.3574,0.0,-2.3769,-2.4668,-2.5137,-2.5977,0.0,-2.8906,0.0,0.0,0.0,0.0,0.0,0.0,0.0,0.0,0.0,0.0,0.0,0.0,-4.1172,-4.1172,-4.1172,-4.1172,-4.1172,-4.1172,-4.1172,-4.1172,-4.1172,-4.1172,-4.1172,-4.1172,-4.1172,-4.1172,-4.1172,-4.1172,0.0,0.0,0.0,-4.1172,-4.1172,-4.1172,-4.1172,-4.1172,-4.1172,-4.1172,-4.1172,-4.1172,-4.1172,-4.1172,-4.1172,-4.1172,-4.1172,-4.1172,-4.1172,-4.1172,-4.1172,-4.1172,-4.1172,-4.1172,-4.1074,-4.0356,-4.0067,-3.9719,-3.9019,-3.8759,-3.8574,-3.8574,-3.8574,-3.8574,-3.8574,-3.8574,-3.8574,-3.8574,-3.8574,-3.8574,-3.8574,-3.8574,-3.8574,-3.8574,-3.8574,-3.8574,-3.8574,-3.8574,-3.8482,-3.8258,-3.8007,-3.7746,-3.7297,-3.7098,-3.6925,-3.6708,-3.6474,-3.621,-3.6016,-3.6016,-3.6016,-3.6016,-3.6016,-3.6016,-3.6016,-3.6016,-3.6016,-2.3335,-2.4922,-2.6406,-2.6074,-2.6094,-2.6074,-2.5596,0.0,0.0,0.0,0.0,0.0,0.0,-2.5234,0.0,0.0,0.0,0.0,0.0,0.0,0.0,0.0,0.0,0.0,0.0,0.0,0.0,0.0,0.0,-4.1172,-4.1172,-4.1172,-4.1172,-4.1172,-4.1172,-4.1172,-4.1172,-4.1172,-4.1172,-4.1172,-4.1172,-4.1172,-4.1172,-4.1172,-4.1172,-4.1172,0.0,0.0,-4.1172,-4.1172,-4.1172,-4.1172,-4.1172,-4.1172,-4.1172,-4.1172,-4.1172,-4.1172,-4.1172,-4.1172,-4.1172,-4.1172,-4.1172,-4.1172,-4.1172,-4.1172,-4.1172,-4.1172,-4.1172,-4.1074,-4.0647,-4.022,-3.9798,-3.9284,-3.8871,-3.8574,-3.8574,-3.8574,-3.8574,-3.8574,-3.8574,-3.8574,-3.8574,-3.8574,-3.8574,-3.8574,-3.8574,-3.8574,-3.8574,-3.8574,-3.8574,-3.8574,-3.8574,-3.8574,-3.8574,-3.8574,-3.8278,-3.7521,-3.741,-3.7215,-3.6809,-3.6818,-3.6602,-3.6133,-3.6113,-3.6094,-3.6016,-3.6016,-3.6016,-3.6016,-3.6016,-3.6016,-2.4473,-2.582,-2.6484,-2.4648,-2.4727,-2.5156,-2.4727,-2.4473,0.0,0.0,0.0,0.0,0.0,-2.6934,-2.7676,0.0,0.0,0.0,0.0,0.0,0.0,0.0,0.0,0.0,0.0,0.0,0.0,0.0,0.0,-4.1172,-4.1172,-4.1172,-4.1172,-4.1172,-4.1172,-4.1172,-4.1172,-4.1172,-4.1172,-4.1172,-4.1172,-4.1172,-4.1172,-4.1172,-4.1172,-4.1172,0.0,-4.1172,-4.1172,-4.1172,-4.1172,-4.1172,-4.1172,-4.1172,-4.1172,-4.1172,-4.1172,-4.1172,-4.1172,-4.1172,-4.1172,-4.1172,-4.1172,-4.1172,-4.1172,-4.1172,-4.1172,-4.1172,-4.1172,-4.1074,-4.0647,-4.022,-3.9798,-3.9284,-3.8871,-3.8574,-3.8574,-3.8574,-3.8574,-3.8574,-3.8574,-3.8574,-3.8574,-3.8574,-3.8574,-3.8574,-3.8574,-3.8574,-3.8574,-3.8574,-3.8574,-3.8574,-3.8574,-3.8574,-3.8574,-3.8574,-3.8555,-3.8389,-3.8001,-3.7653,-3.719,-3.7241,-3.6988,-3.6582,-3.6562,-3.6387,-3.6016,-3.6016,-3.6016,-3.6016,-3.6016,-3.6016,-2.3867,-2.4805,-2.5488,-2.498,-2.5996,-2.7031,-2.6602,-2.6152,0.0,0.0,0.0,0.0,0.0,0.0,-2.9375,-3.2402,0.0,-3.5234,0.0,0.0,0.0,0.0,0.0,0.0,0.0,0.0,0.0,0.0,0.0,0.0,-4.0488,-4.0488,-4.0488,-4.0488,-4.0488,-4.0488,-4.0488,-4.0488,-4.0723,-4.1172,-4.1172,-4.1172,-4.1172,-4.1172,-4.1172,-4.1172,0.0,-4.1172,-4.1172,-4.1172,-4.1172,-4.1172,-4.1172,-4.1172,-4.1172,-4.1172,-4.1172,-4.1172,-4.1172,-4.1172,-4.1172,-4.1172,-4.1172,-4.1172,-4.1172,-4.1172,-4.1172,-4.1172,-4.1172,-4.1152,-4.0958,-4.0356,-3.9817,-3.9657,-3.9056,-3.8574,-3.8574,-3.8574,-3.8574,-3.8574,-3.8574,-3.8574,-3.8574,-3.8574,-3.8574,-3.8574,-3.8574,-3.8574,-3.8574,-3.8574,-3.8574,-3.8574,-3.8574,-3.8574,-3.8574,-3.8574,-3.8574,-3.8574,-3.817,-3.7825,-3.7631,-3.7416,-3.7234,-3.7012,-3.7012,-3.6914,-3.6719,-3.6719,-3.6719,-3.6699,-3.6484,-3.6367,-2.3471,-2.4062,-2.4785,-2.5664,-2.6973,-2.8086,-2.8379,-2.7695,-2.7129,0.0,0.0,0.0,0.0,-2.9473,0.0,-3.3809,-3.5137,-3.6211,-3.7285,0.0,0.0,0.0,0.0,0.0,0.0,0.0,0.0,0.0,0.0,0.0,-3.9922,-3.9902,-3.9902,-3.9902,-3.9902,-3.9902,-3.9902,-3.9902,-4.0234,-4.0879,-4.0879,-4.0879,-4.0879,-4.0879,-4.0937,-4.1016,-4.1016,-4.1074,-4.1172,-4.1172,-4.1172,-4.1172,-4.1172,-4.1172,-4.1172,-4.1172,-4.1172,-4.1172,-4.1172,-4.1172,-4.1172,-4.1172,-4.1172,-4.1172,-4.1172,-4.1172,-4.1172,-4.1172,-4.1172,-4.1172,-4.1172,-4.055,-3.9913,-3.9884,-3.9241,-3.8574,-3.8574,-3.8574,-3.8574,-3.8574,-3.8574,-3.8574,-3.8574,-3.8574,-3.8574,-3.8574,-3.8574,-3.8574,-3.8574,-3.8574,-3.8574,-3.8574,-3.8574,-3.8574,-3.8574,-3.8574,-3.8574,-3.8574,-3.8256,-3.806,-3.8066,-3.7773,-3.7539,-3.7441,-3.7441,-3.7402,-3.7305,-3.7305,-3.7246,-3.7148,-3.6816,-3.6621,-2.4609,-2.5028,-2.5282,-2.6113,-2.584,-2.5957,-2.834,-2.791,-2.7461,-2.9062,0.0,0.0,0.0,-3.1719,0.0,0.0,0.0,0.0,0.0,0.0,0.0,0.0,0.0,0.0,0.0,0.0,0.0,0.0,0.0,0.0,-3.9902,-3.9902,-3.9902,-3.9902,-3.9902,-3.9902,-3.9902,-3.9902,-3.9922,-3.998,-3.998,-3.998,-3.998,-3.998,-4.0195,-4.0566,-4.0566,-4.0801,-4.1172,-4.1172,-4.1172,-4.1172,-4.1172,-4.1172,-4.1172,-4.1172,-4.1172,-4.1172,-4.1172,-4.1172,-4.1172,-4.1172,-4.1172,-4.1172,-4.1172,-4.1172,-4.1172,-4.1172,-4.1172,-4.1172,-4.1172,-4.055,-3.9913,-3.9884,-3.9241,-3.8574,-3.8574,-3.8574,-3.8574,-3.8574,-3.8574,-3.8574,-3.8574,-3.8574,-3.8574,-3.8574,-3.8574,-3.8574,-3.8574,-3.8574,-3.8574,-3.8574,-3.8574,-3.8574,-3.8574,-3.8574,-3.8574,-3.8574,-3.8535,-3.8516,-3.8535,-3.8496,-3.8301,-3.7891,-3.7871,-3.7676,-3.7305,-3.7305,-3.709,-3.6719,-3.668,-3.6445,-2.3672,-2.4258,-2.4941,-2.6094,-2.6328,-2.6738,-2.8516,-2.9375,-3.0156,-3.1328,-3.1445,-3.1348,0.0,0.0,-3.4023,0.0,0.0,0.0,0.0,0.0,0.0,0.0,0.0,0.0,0.0,0.0,0.0,0.0,0.0,0.0,-3.9082,-3.9082,-3.9082,-3.9082,-3.9082,-3.9082,-3.9082,-3.9082,-3.9082,-3.9082,-3.9629,-3.9902,-3.9902,-3.9902,-3.998,-4.0137,-4.0137,-4.0234,-4.0371,-4.0371,-4.0527,-4.0801,-4.1074,-4.1172,-4.1172,-4.1172,-4.1172,-4.1172,-4.1172,-4.1172,-4.1172,-4.1172,-4.1172,-4.1172,-4.1172,-4.1172,-4.1172,-4.1172,-4.1172,-4.1172,-4.1172,-4.055,-3.9913,-3.9884,-3.9241,-3.8574,-3.8574,-3.8574,-3.8574,-3.8574,-3.8574,-3.8574,-3.8574,-3.8574,-3.8574,-3.8574,-3.8574,-3.8574,-3.8574,-3.8574,-3.8574,-3.8574,-3.8574,-3.8574,-3.8574,-3.8574,-3.8574,-3.8574,-3.8574,-3.8574,-3.8574,-3.8574,-3.8496,-3.834,-3.832,-3.8262,-3.8086,-3.8086,-3.7871,-3.7441,-3.7187,-3.6836,-2.3105,-2.3672,-2.4531,-2.5859,-2.6504,-2.7266,-2.8945,-3.0351,-3.168,-3.2949,-3.2988,-3.2715,-3.2422,0.0,0.0,0.0,0.0,0.0,0.0,0.0,0.0,0.0,0.0,0.0,0.0,0.0,0.0,0.0,0.0,0.0,0.0,-3.8574,-3.8574,-3.8574,-3.8574,-3.8574,-3.8574,-3.8574,-3.8574,-3.8574,-3.8567,-3.8855,-3.9473,-3.9473,-3.9551,-3.9668,-3.8972,-3.8822,-3.8937,-3.8937,-3.9471,-4.0392,-4.0783,-4.0958,-4.0977,-4.1152,-4.1172,-4.1172,-4.1172,-4.1172,-4.1172,-4.1172,-4.1172,-4.1172,-4.1172,-4.1172,-4.1172,-4.1172,-4.1172,-4.1172,-4.1055,-4.0433,-3.9913,-3.9884,-3.9241,-3.8574,-3.8574,-3.8574,-3.8574,-3.8574,-3.8574,-3.8574,-3.8574,-3.8574,-3.8574,-3.8574,-3.8574,-3.8574,-3.8574,-3.8574,-3.8574,-3.8574,-3.8574,-3.8574,-3.8574,-3.8574,-3.8574,-3.8574,-3.8574,-3.8574,-3.8574,-3.8574,-3.8574,-3.8574,-3.8574,-3.8574,-3.8574,-3.8437,-3.8144,-3.7715,-3.7305,-3.6875,-2.3306,-2.3521,-2.4121,-2.5362,0.0,0.0,-2.9629,-3.0566,-3.1523,-3.3652,-3.3418,-3.2812,-3.2812,-3.3144,0.0,-3.4551,0.0,0.0,0.0,0.0,0.0,0.0,0.0,0.0,0.0,0.0,0.0,0.0,0.0,0.0,0.0,-3.8555,-3.8555,-3.8555,-3.8555,-3.8555,-3.8555,-3.8555,-3.8555,-3.8574,-3.6497,-3.6571,-3.8574,-3.8574,-3.8809,-3.9051,-3.7052,-3.6439,-3.6782,-3.6782,-3.8021,-3.993,-4.0318,-4.0453,-4.055,-4.1055,-4.1172,-4.1172,-4.1172,-4.1172,-4.1172,-4.1172,-4.1172,-4.1172,-4.1172,-4.1172,-4.1172,-4.1172,-4.1172,-4.1055,-4.0627,-4.022,-3.9894,-3.9864,-3.9241,-3.8574,-3.8574,-3.8574,-3.8574,-3.8574,-3.8574,-3.8574,-3.8574,-3.8574,-3.8574,-3.8574,-3.8574,-3.8574,-3.8574,-3.8574,-3.8574,-3.8574,-3.8574,-3.8574,-3.8574,-3.8574,-3.8574,-3.8574,-3.8574,-3.8574,-3.8574,-3.8574,-3.8574,-3.8574,-3.8574,-3.8574,-3.8574,-3.8144,-3.7715,-3.7285,-3.6875,-3.6445,-2.2832,-2.3672,0.0,-2.5937,0.0,0.0,0.0,-3.1699,0.0,0.0,-3.4805,-3.4434,-3.3809,-3.4297,0.0,-3.4707,-3.5918,0.0,0.0,0.0,0.0,0.0,0.0,0.0,0.0,0.0,0.0,0.0,0.0,0.0,0.0,-3.7676,-3.7676,-3.7676,-3.7676,-3.7676,-3.7676,-3.7676,-3.7832,-3.8125,-3.7509,-3.6897,-3.6423,-3.6423,-3.6479,-3.6683,-3.7535,-3.7145,-3.5906,-3.6201,-3.7592,-3.9426,-3.9894,-4.0045,-4.0123,-4.0239,-4.0453,-4.0744,-4.0744,-4.0958,-4.1152,-4.0841,-4.0958,-4.1152,-4.0841,-4.0744,-4.0744,-4.0744,-4.0484,-4.0235,-4.0125,-3.9757,-3.9406,-3.938,-3.8964,-3.8574,-3.8574,-3.8574,-3.8574,-3.8574,-3.8574,-3.8574,-3.8574,-3.8574,-3.8574,-3.8574,-3.8574,-3.8574,-3.8574,-3.8574,-3.8574,-3.8574,-3.8574,-3.8574,-3.8574,-3.8574,-3.8574,-3.8574,-3.8574,-3.8574,-3.8574,-3.8574,-3.8574,-3.8574,-3.8574,-3.8418,-3.8125,-3.7988,-3.7559,-3.6855,-3.6738,-3.5716,-2.3457,-2.4414,0.0,-2.7051,-2.8672,-3.0351,-3.1914,0.0,0.0,0.0,-3.5117,-3.4805,-3.4629,-3.4883,0.0,-3.498,0.0,0.0,0.0,0.0,0.0,0.0,0.0,0.0,0.0,0.0,0.0,0.0,0.0,0.0,0.0,-3.7305,-3.7305,-3.7305,-3.7305,-3.7305,-3.7305,-3.6559,-3.6318,-3.6546,-3.4921,-3.3713,-3.2808,-3.4684,-3.505,-3.4301,-3.4773,-3.5139,-3.5464,-3.4905,-3.6423,-3.8969,-3.9423,-3.9621,-3.9621,-3.9831,-4.0041,-4.0234,-4.0299,-4.0453,-4.0647,-4.0336,-4.0491,-4.0656,-4.0337,-4.0259,-4.0232,-4.0232,-4.0073,-3.9891,-3.9654,-3.9449,-3.9169,-3.9169,-3.8871,-3.8574,-3.8574,-3.8574,-3.8574,-3.8574,-3.8574,-3.8574,-3.8574,-3.8574,-3.8574,-3.8574,-3.8574,-3.8574,-3.8574,-3.8574,-3.8574,-3.8574,-3.8574,-3.8574,-3.8574,-3.8574,-3.8574,-3.8574,-3.8574,-3.8574,-3.8574,-3.8574,-3.8574,-3.8574,-3.8574,-3.8359,-3.793,-3.7754,-3.7324,-3.666,-3.5774,-3.4538,-2.4617,0.0,0.0,-2.834,-2.9336,0.0,-3.2871,-3.373,-3.4258,-3.5156,0.0,-3.4394,-3.5234,-3.5039,-3.4922,0.0,0.0,0.0,0.0,0.0,0.0,0.0,0.0,0.0,0.0,0.0,0.0,0.0,0.0,0.0,0.0,-3.7187,-3.7187,-3.7187,-3.7187,-3.7187,-3.7187,-3.5343,-3.4396,-3.436,-3.0631,-2.8746,-2.8732,-3.2916,-3.4007,-3.232,-3.0298,-3.1756,-3.5312,-3.3372,-3.4877,-3.8667,-3.8964,-3.9149,-3.9169,-3.9632,-3.9838,-3.9871,-3.9873,-3.9893,-3.9893,-3.9816,-3.9863,-3.9858,-3.9835,-3.9824,-3.9838,-3.9838,-3.9838,-3.9652,-3.9261,-3.9149,-3.9149,-3.9149,-3.8871,-3.8574,-3.8574,-3.8574,-3.8574,-3.8574,-3.8574,-3.8574,-3.8574,-3.8574,-3.8574,-3.8574,-3.8574,-3.8574,-3.8574,-3.8574,-3.8574,-3.8574,-3.8574,-3.8574,-3.8574,-3.8574,-3.8574,-3.8574,-3.8574,-3.8574,-3.8574,-3.8574,-3.8574,-3.8574,-3.8535,-3.8301,-3.7871,-3.7441,-3.6942,-3.6305,-3.4186,-3.3031,-2.3379,-2.4582,0.0,0.0,-3.0039,-3.1934,-3.3144,-3.3496,-3.3809,-3.4668,-3.4687,-3.4726,-3.5293,-3.5312,0.0,0.0,0.0,0.0,0.0,0.0,0.0,0.0,0.0,0.0,0.0,0.0,0.0,0.0,0.0,0.0,-3.6289,-3.6289,-3.6289,-3.6289,-3.6289,-3.6289,-3.6289,-3.4418,-3.3637,0.0,-3.1548,-2.985,-2.8642,-2.9665,-3.0791,-3.201,-3.0198,-3.1704,-3.5332,-3.3352,-3.4879,-3.8574,-3.8667,-3.8759,-3.8759,-3.8851,-3.9056,-3.9321,-3.9377,-3.9608,-3.9815,-3.9441,-3.9578,-3.9825,-3.949,-3.9352,-3.9354,-3.9354,-3.9149,-3.8851,-3.8759,-3.8759,-3.8759,-3.8759,-3.8667,-3.8574,-3.8574,-3.8574,-3.8574,-3.8574,-3.8574,-3.8574,-3.8574,-3.8574,-3.8574,-3.8574,-3.8574,-3.8574,-3.8574,-3.8574,-3.8574,-3.8574,-3.8574,-3.8574,-3.8574,-3.8574,-3.8574,-3.8574,-3.8574,-3.8574,-3.8574,-3.8574,-3.8574,-3.8574,-3.8242,-3.7851,-3.7422,-3.7012,-3.585,-3.3941,-3.3433,-3.1614,0.0,0.0,0.0,-2.9258,0.0,-3.207,-3.293,-3.3125,-3.3301,-3.3945,-3.4258,-3.4531,-3.498,0.0,0.0,0.0,0.0,0.0,0.0,0.0,0.0,0.0,0.0,0.0,0.0,0.0,0.0,0.0,0.0,-3.5391,-3.5391,-3.5391,-3.5488,-3.5723,-3.4804,-3.447,-3.4659,-3.1895,-3.0567,-3.075,-2.8821,-2.7497,-2.6691,-2.6989,-2.8315,-3.0314,-2.8529,-3.0675,-3.5157,-3.331,-3.4884,-3.8574,-3.8574,-3.8574,-3.8574,-3.8574,-3.8759,-3.8944,-3.8944,-3.9056,-3.9241,-3.8964,-3.9056,-3.9241,-3.8964,-3.8944,-3.8944,-3.8944,-3.8759,-3.8574,-3.8574,-3.8574,-3.8574,-3.8574,-3.8574,-3.8574,-3.8574,-3.8574,-3.8574,-3.8574,-3.8574,-3.8574,-3.8574,-3.8574,-3.8574,-3.8574,-3.8574,-3.8574,-3.8574,-3.8574,-3.8574,-3.8574,-3.8574,-3.8574,-3.8574,-3.8574,-3.8574,-3.8574,-3.8574,-3.8574,-3.8574,-3.8574,-3.8476,-3.8262,-3.8047,-3.7617,-3.6992,-3.6777,-3.5943,-3.4521,-3.2665,-3.0751,0.0,0.0,-2.7695,-3.0566,-3.1406,0.0,-3.25,-3.2695,-3.2793,-3.3125,0.0,0.0,0.0,0.0,0.0,0.0,0.0,0.0,0.0,0.0,0.0,0.0,0.0,0.0,0.0,0.0,0.0,0.0,0.0,-3.4707,-3.4707,-3.4425,-3.4401,-3.4853,-3.296,-3.2132,-3.2539,-2.9099,-2.7356,-2.7371,-2.5524,-2.4636,-2.4649,-2.5144,-2.632,-2.7955,-2.6524,-2.8997,-3.3947,-3.2516,-3.4122,-3.7594,-3.7909,-3.8074,-3.8093,-3.8462,-3.8574,-3.8574,-3.8574,-3.8574,-3.8574,-3.8574,-3.8574,-3.8574,-3.8574,-3.8574,-3.8574,-3.8574,-3.8574,-3.8574,-3.8574,-3.8574,-3.8574,-3.8574,-3.8574,-3.8574,-3.8574,-3.8574,-3.8574,-3.8574,-3.8574,-3.8574,-3.8574,-3.8574,-3.8574,-3.8574,-3.8574,-3.8574,-3.8574,-3.8574,-3.8574,-3.8574,-3.8574,-3.8574,-3.8574,-3.8574,-3.8574,-3.8574,-3.8574,-3.8574,-3.8574,-3.8496,-3.8262,-3.7832,-3.7812,-3.7441,-3.668,-3.6305,-3.5866,-3.5451,-3.1597,-2.9812,0.0,0.0,0.0,0.0,0.0,0.0,0.0,0.0,0.0,0.0,0.0,0.0,0.0,0.0,0.0,0.0,0.0,0.0,0.0,0.0,0.0,0.0,0.0,0.0,0.0,0.0,0.0,0.0,-3.4707,-3.4707,-3.4707,-3.3283,-3.2503,-3.2539,-3.0752,-2.9798,-2.9934,-2.7803,-2.6828,-2.7014,-2.5357,-2.4636,-2.4562,-2.4716,-2.5046,-2.5554,-2.5554,-2.7183,-2.9818,-2.9555,-3.0973,-3.3489,-3.523,-3.5906,-3.6161,-3.7982,-3.8574,-3.8574,-3.8574,-3.8574,-3.8574,-3.8574,-3.8574,-3.8574,-3.8574,-3.8574,-3.8574,-3.8574,-3.8574,-3.8574,-3.8574,-3.8574,-3.8574,-3.8574,-3.8574,-3.8574,-3.8574,-3.8574,-3.8574,-3.8574,-3.8574,-3.8574,-3.8574,-3.8574,-3.8574,-3.8574,-3.8574,-3.8574,-3.8574,-3.8574,-3.8574,-3.8574,-3.8574,-3.8574,-3.8574,-3.8574,-3.8574,-3.8574,-3.8574,-3.8574,-3.8574,-3.8223,-3.7812,-3.7383,-3.7383,-3.7148,-3.668,-3.4645,-3.3641,-3.3448,-2.9631,-2.7852,-2.2383,0.0,0.0,0.0,0.0,0.0,0.0,0.0,0.0,0.0,0.0,0.0,0.0,0.0,0.0,0.0,0.0,0.0,0.0,0.0,0.0,0.0,0.0,0.0,0.0,0.0,0.0,0.0,-3.3984,-3.3984,-3.3984,-3.2311,-3.1486,-3.1721,-2.8939,-2.7604,-2.7862,-2.5964,-2.5098,-2.5177,-2.4636,-2.4388,-2.4388,-2.4549,-2.4649,-2.4811,-2.5147,-2.6467,-2.8485,-2.8697,-3.016,-3.2266,-3.3195,-3.4341,-3.5613,-3.6546,-3.7594,-3.8574,-3.8574,-3.8574,-3.8574,-3.8574,-3.8574,-3.8574,-3.8574,-3.8574,-3.8574,-3.8574,-3.8574,-3.8574,-3.8574,-3.8574,-3.8574,-3.8574,-3.8574,-3.8574,-3.8574,-3.8574,-3.8574,-3.8574,-3.8574,-3.8574,-3.8574,-3.7658,-3.7272,-3.8428,-3.7585,-3.7272,-3.8428,-3.8574,-3.8574,-3.8574,-3.8574,-3.8574,-3.8574,-3.8574,-3.8574,-3.8574,-3.8574,-3.8574,-3.8574,-3.8164,-3.7734,-3.7305,-3.707,-3.6738,-3.6309,-3.5253,-3.4227,-3.3101,-3.0326,-2.8485,0.0,0.0,0.0,0.0,0.0,0.0,0.0,0.0,0.0,0.0,0.0,0.0,0.0,0.0,0.0,0.0,0.0,0.0,0.0,0.0,0.0,0.0,0.0,0.0,0.0,0.0,0.0,0.0,-3.3418,-3.3228,-3.2765,-3.1111,-3.007,-2.9889,-2.6827,-2.5393,-2.5626,-2.4355,-2.366,-2.3694,-2.3938,-2.4097,-2.414,-2.4388,-2.4475,-2.4549,-2.4811,-2.6157,-2.8044,-2.8311,-2.9787,-3.187,-3.2331,-3.3657,-3.5348,-3.5348,-3.6385,-3.7707,-3.7239,-3.7071,-3.7145,-3.7677,-3.7805,-3.7878,-3.8428,-3.8574,-3.8574,-3.8574,-3.8574,-3.8574,-3.8574,-3.8574,-3.8574,-3.8574,-3.8574,-3.8574,-3.8574,-3.8574,-3.8574,-3.8574,-3.8574,-3.8574,-3.8574,-3.6885,-3.6035,-3.7566,-3.6497,-3.6035,-3.7585,-3.8263,-3.8574,-3.8574,-3.8574,-3.8574,-3.8574,-3.8574,-3.8574,-3.8574,-3.8476,-3.8418,-3.8418,-3.7891,-3.7461,-3.7148,-3.6719,-3.6348,-3.6016,-3.5519,-3.4796,-3.3882,-3.1456,-2.9829,0.0,0.0,0.0,0.0,0.0,0.0,0.0,0.0,0.0,0.0,0.0,0.0,0.0,0.0,0.0,0.0,0.0,0.0,0.0,0.0,0.0,0.0,0.0,0.0,0.0,0.0,0.0,0.0,-3.3418,-3.2683,-3.1029,-2.9279,-2.7585,-2.5868,-2.402,-2.3092,-2.3105,-2.3214,-2.3323,-2.3337,-2.3653,-2.3793,-2.3806,-2.414,-2.4227,-2.4227,-2.4475,-2.5894,-2.7881,-2.794,-2.9279,-3.1465,-3.3342,-3.4429,-3.4919,-3.4919,-3.5224,-3.5425,-3.3486,-3.2819,-3.3092,-3.5046,-3.5664,-3.6035,-3.8024,-3.8574,-3.8574,-3.8574,-3.8574,-3.8574,-3.8574,-3.8574,-3.8574,-3.8574,-3.8574,-3.8574,-3.8574,-3.8574,-3.8574,-3.8574,-3.8574,-3.8574,-3.8574,-3.6885,-3.5571,-3.5646,-3.5571,-3.5571,-3.5646,-3.7345,-3.8574,-3.8574,-3.8574,-3.8574,-3.8574,-3.8574,-3.8574,-3.8574,-3.8184,-3.7969,-3.7969,-3.7168,-3.6719,-3.6699,-3.6269,-3.6035,-3.6016,-3.4227,-3.4227,-3.5743,-3.2018,-3.1245,0.0,0.0,0.0,0.0,0.0,0.0,0.0,0.0,0.0,0.0,0.0,0.0,0.0,0.0,0.0,0.0,0.0,0.0,0.0,0.0,0.0,0.0,0.0,0.0,0.0,0.0,0.0,0.0,0.0,-3.1899,-3.0202,-2.843,-2.6809,-2.527,-2.3495,-2.2672,-2.2928,-2.301,-2.301,-2.3023,-2.3324,-2.3473,-2.35,-2.3809,-2.4071,-2.4227,-2.4301,-2.4898,-2.575,-2.5783,-2.6383,-2.7357,-2.8104,-2.9382,-3.0886,-3.0839,-3.1842,-3.3169,-3.2406,-3.2347,-3.2604,-3.3356,-3.4451,-3.5664,-3.6368,-3.7511,-3.8574,-3.8574,-3.8574,-3.8574,-3.8574,-3.8574,-3.8574,-3.8574,-3.8574,-3.8574,-3.8574,-3.8574,-3.8574,-3.8574,-3.7492,-3.6571,-3.6571,-3.4918,-3.3549,-3.3549,-3.4676,-3.5497,-3.5497,-3.7345,-3.8574,-3.8574,-3.8574,-3.8574,-3.8574,-3.8574,-3.8574,-3.8574,-3.8164,-3.793,-3.793,-3.7109,-3.668,-3.668,-3.625,-3.6016,-3.6016,-3.5295,-3.4089,-3.2298,-3.0946,-2.9401,-1.926,0.0,0.0,0.0,0.0,0.0,0.0,0.0,0.0,0.0,0.0,0.0,0.0,0.0,0.0,0.0,0.0,0.0,0.0,0.0,0.0,0.0,0.0,0.0,0.0,0.0,0.0,0.0,0.0,0.0,-2.8914,-2.7201,-2.5572,-2.4107,-2.2862,-2.2428,-2.2709,-2.2709,-2.2777,-2.2928,-2.3092,-2.3174,-2.3174,-2.3475,-2.3759,-2.3904,-2.4129,-2.4723,-2.5575,-2.5584,-2.6084,-2.6839,-2.6823,-2.7866,-2.9349,-2.8594,-2.9421,-3.0775,-3.0171,-3.0159,-3.0453,-3.1236,-3.2868,-3.4601,-3.5309,-3.6977,-3.8574,-3.8574,-3.8574,-3.8574,-3.8574,-3.8574,-3.8574,-3.8574,-3.8574,-3.8574,-3.8574,-3.8574,-3.8574,-3.8574,-3.6885,-3.5497,-3.5497,-3.3247,-3.1437,-3.1437,-3.2641,-3.3683,-3.4376,-3.6275,-3.7805,-3.8501,-3.8574,-3.8574,-3.8574,-3.8574,-3.8278,-3.7448,-3.6975,-3.6689,-3.6537,-3.587,-3.5508,-3.5508,-3.5242,-3.5089,-3.5089,-3.5089,-3.3725,-3.1245,-3.0593,-2.8956,0.0,0.0,0.0,0.0,0.0,0.0,0.0,0.0,0.0,0.0,0.0,0.0,0.0,0.0,0.0,0.0,0.0,0.0,0.0,0.0,0.0,0.0,0.0,0.0,0.0,0.0,0.0,0.0,-3.0525,-2.8817,-2.7057,-2.5417,-2.371,-2.2018,-2.2023,-2.2138,-2.2395,-2.2395,-2.2545,-2.2859,-2.2859,-2.2859,-2.2928,-2.3174,-2.3324,-2.331,-2.3917,-2.5428,-2.7394,-2.7423,-2.8473,-3.014,-3.014,-3.0409,-3.0563,-2.8537,-2.8083,-2.8247,-2.6548,-2.6023,-2.6388,-2.8569,-3.0731,-3.2792,-3.4826,-3.6885,-3.8501,-3.8574,-3.8574,-3.8574,-3.8574,-3.8574,-3.8574,-3.8574,-3.8574,-3.8574,-3.8574,-3.8574,-3.8574,-3.8501,-3.6811,-3.5422,-3.5348,-3.2016,-2.9371,-2.9293,-2.9434,-3.0207,-3.2201,-3.4151,-3.6201,-3.8263,-3.8409,-3.8409,-3.8482,-3.8462,-3.7448,-3.5157,-3.4613,-3.4216,-3.3765,-3.3299,-3.3101,-3.3101,-3.3101,-3.3101,-3.3101,-3.3101,-3.3101,-3.3101,-3.1087,-3.0097,-1.8656,0.0,0.0,0.0,0.0,0.0,0.0,0.0,0.0,0.0,0.0,0.0,0.0,0.0,0.0,0.0,0.0,0.0,0.0,0.0,0.0,0.0,0.0,0.0,0.0,0.0,0.0,0.0,-2.7947,-2.6282,-2.4641,-2.3191,-2.223,-2.17,-2.1872,-2.2043,-2.2082,-2.2082,-2.2245,-2.2545,-2.2545,-2.2696,-2.2928,-2.301,-2.3092,-2.3338,-2.3442,-2.4004,-2.4828,-2.5235,-2.5732,-2.6157,-2.6157,-2.6245,-2.6259,-2.5695,-2.5786,-2.5992,-2.5531,-2.5598,-2.6114,-2.6726,-2.8419,-3.0669,-3.2717,-3.4769,-3.6645,-3.819,-3.8574,-3.8574,-3.8574,-3.8574,-3.8574,-3.8574,-3.8574,-3.8574,-3.8574,-3.8574,-3.819,-3.6645,-3.4694,-3.2868,-3.1344,-3.013,-2.8905,-2.7462,-2.9759,-3.1284,-3.0361,-3.2032,-3.4076,-3.6127,-3.4818,-3.4419,-3.5925,-3.4537,-3.3228,-3.2594,-3.2164,-3.1909,-3.1807,-3.1361,-3.1087,-3.1087,-3.1087,-3.1087,-3.1087,-3.1087,-3.1087,-3.1017,-2.7692,-2.6196,-1.926,-1.9767,-2.0508,-2.0684,0.0,0.0,0.0,-2.2988,0.0,0.0,0.0,0.0,0.0,0.0,0.0,0.0,0.0,0.0,0.0,0.0,0.0,0.0,0.0,0.0,0.0,-3.002,-2.9157,-2.8426,-2.6893,-2.5008,-2.2716,-2.1828,-2.139,-2.1379,-2.1563,-2.1712,-2.1833,-2.1833,-2.1978,-2.2204,-2.2321,-2.2477,-2.2696,-2.2859,-2.301,-2.316,-2.3242,-2.3403,-2.3598,-2.4053,-2.4348,-2.4462,-2.4596,-2.4636,-2.4636,-2.4636,-2.4743,-2.4917,-2.5037,-2.5304,-2.5611,-2.5732,-2.7928,-3.068,-3.1896,-3.4404,-3.7032,-3.8263,-3.8574,-3.8574,-3.8574,-3.8437,-3.8301,-3.8301,-3.8164,-3.8047,-3.8047,-3.7432,-3.6638,-3.5665,-3.385,-3.1771,-2.9654,-2.856,-2.7537,-2.6195,-2.8062,-2.9488,-2.9121,-3.0097,-3.1668,-3.3683,-3.2662,-3.2322,-3.3573,-3.2414,-3.1203,-3.0176,-2.9895,-2.972,-2.9576,-2.9298,-2.9115,-2.9115,-2.9115,-2.8757,-2.7909,-2.8757,-2.8685,-2.7909,-2.5639,-2.4636,-2.0273,-2.0703,-2.1424,-2.1797,-2.1035,0.0,-2.2871,-2.2891,-2.2871,0.0,0.0,0.0,0.0,0.0,0.0,0.0,0.0,0.0,0.0,0.0,0.0,0.0,0.0,0.0,-3.0568,-3.0431,-2.9726,-2.823,-2.647,-2.4147,-2.1235,-2.1109,-2.1109,-2.1109,-2.1109,-2.1249,-2.1543,-2.1543,-2.1683,-2.1977,-2.2164,-2.2345,-2.2395,-2.2709,-2.2859,-2.2928,-2.316,-2.3225,-2.3253,-2.3601,-2.391,-2.4222,-2.4489,-2.4609,-2.4636,-2.4636,-2.4636,-2.4676,-2.4943,-2.505,-2.5117,-2.5384,-2.8113,-3.1371,-3.182,-3.4658,-3.7889,-3.8345,-3.8437,-3.8437,-3.8437,-3.8144,-3.7851,-3.7851,-3.7578,-3.7234,-3.7003,-3.5669,-3.4559,-3.4709,-3.3279,-3.1289,-2.9032,-2.7102,-2.5812,-2.5558,-2.5518,-2.6177,-2.8041,-2.8252,-2.9001,-3.1048,-3.1015,-3.0999,-3.1219,-3.095,-2.9923,-2.7865,-2.7703,-2.7584,-2.7157,-2.7215,-2.7215,-2.7215,-2.7215,-2.6357,-2.4636,-2.6575,-2.6502,-2.4636,-2.4636,-2.4636,-2.1699,-2.1875,-2.2207,-2.1953,-2.1953,0.0,-2.0879,-2.1367,-2.2012,0.0,0.0,0.0,0.0,0.0,0.0,0.0,0.0,0.0,0.0,0.0,0.0,0.0,0.0,0.0,-2.8676,-2.7575,-2.6832,-2.647,-2.373,-2.1776,-2.1109,-2.1109,-2.1109,-2.1109,-2.1109,-2.1109,-2.1186,-2.1186,-2.1326,-2.1683,-2.171,-2.1951,-2.2395,-2.2464,-2.2627,-2.2928,-2.2941,-2.2981,-2.2993,-2.326,-2.3701,-2.4209,-2.4262,-2.4436,-2.4636,-2.4636,-2.4636,-2.4649,-2.4703,-2.4877,-2.509,-2.5144,-2.5875,-2.7373,-3.0537,-3.2137,-3.3451,-3.6647,-3.7539,-3.7539,-3.7539,-3.748,-3.7422,-3.7422,-3.7363,-3.6862,-3.5364,-3.4792,-3.3584,-3.0559,-2.9634,-2.8641,-2.6579,-2.5891,-2.5585,-2.5518,-2.5518,-2.5657,-2.6025,-2.6101,-2.6923,-2.9001,-2.7507,-2.6989,-2.8664,-2.704,-2.5792,-2.5294,-2.5294,-2.5267,-2.5139,-2.5139,-2.5139,-2.5139,-2.5139,-2.4991,-2.4636,-2.6575,-2.6502,-2.4636,-2.4636,-2.4636,-2.2326,-2.25,-2.2832,-2.2832,-2.2519,0.0,0.0,0.0,-2.1738,0.0,0.0,0.0,0.0,0.0,0.0,0.0,0.0,0.0,0.0,0.0,0.0,0.0,0.0,0.0,-2.7482,-2.6941,-2.6058,-2.4677,-2.2429,-2.1109,-2.1109,-2.1109,-2.1109,-2.1109,-2.1109,-2.1109,-2.1109,-2.1109,-2.1186,-2.1326,-2.1543,-2.1713,-2.2004,-2.2311,-2.2484,-2.266,-2.2847,-2.2928,-2.2941,-2.3033,-2.3354,-2.3794,-2.4088,-2.4289,-2.4436,-2.4583,-2.4636,-2.4636,-2.4636,-2.473,-2.4863,-2.4863,-2.5711,-2.7343,-3.0332,-3.2633,-3.4774,-3.6701,-3.7305,-3.7305,-3.7305,-3.7148,-3.6992,-3.6992,-3.608,-3.4981,-3.4048,-3.2308,-3.0437,-2.8425,-2.726,-2.6364,-2.5415,-2.5291,-2.5251,-2.5104,-2.5077,-2.5077,-2.5077,-2.5077,-2.5439,-2.6457,-2.5527,-2.5296,-2.6305,-2.5294,-2.4636,-2.4636,-2.4636,-2.4636,-2.4636,-2.4636,-2.4636,-2.4636,-2.4636,-2.4636,-2.4636,-2.5566,-2.5566,-2.4636,-2.4636,-2.4636,-2.2851,-2.3332,-2.3861,-2.4004,-2.3457,-2.2969,0.0,0.0,0.0,0.0,0.0,0.0,0.0,0.0,0.0,0.0,0.0,0.0,0.0,0.0,0.0,0.0,0.0,0.0,0.0,-2.6412,-2.5502,-2.317,-2.1562,-2.0753,-2.1032,-2.1032,-2.1046,-2.1109,-2.1109,-2.1109,-2.1109,-2.1109,-2.1109,-2.1109,-2.1389,-2.1543,-2.1633,-2.2067,-2.2284,-2.2445,-2.27,-2.2806,-2.2928,-2.2928,-2.3006,-2.3287,-2.3821,-2.4102,-2.4235,-2.4462,-2.4596,-2.4636,-2.4636,-2.4636,-2.4636,-2.4636,-2.6381,-2.8815,-3.0395,-3.3785,-3.7051,-3.7051,-3.7051,-3.7051,-3.7051,-3.6797,-3.6474,-3.6109,-3.4557,-3.3031,-3.2246,-2.9702,-2.736,-2.6997,-2.5639,-2.4716,-2.4957,-2.4997,-2.4917,-2.4676,-2.4636,-2.4636,-2.4636,-2.4636,-2.4636,-2.4636,-2.4636,-2.4636,-2.4636,-2.4636,-2.4636,-2.4636,-2.4636,-2.4636,-2.4636,-2.4636,-2.4636,-2.4636,-2.4636,-2.4636,-2.4636,-2.4636,-2.4636,-2.4636,-2.4636,-2.4609,-2.4007,-2.5195,-2.6309,-2.5195,-2.5684,-2.5664,-2.2754,0.0,-2.3125,-2.1756,0.0,0.0,0.0,0.0,0.0,0.0,0.0,0.0,0.0,0.0,0.0,0.0,0.0,0.0,0.0,-2.4027,-2.3169,-2.2634,-2.0435,-1.9612,-2.0676,-2.0753,-2.0829,-2.1109,-2.1109,-2.1109,-2.1109,-2.1109,-2.1109,-2.1109,-2.1109,-2.1326,-2.1619,-2.1641,-2.1951,-2.2432,-2.2418,-2.2619,-2.2928,-2.2928,-2.2954,-2.2953,-2.3287,-2.3741,-2.4209,-2.4235,-2.4422,-2.4636,-2.4636,-2.4636,-2.4636,-2.4636,-2.707,-3.0091,-3.0305,-3.3121,-3.6172,-3.6172,-3.6172,-3.6172,-3.6172,-3.6133,-3.5664,-3.4024,-3.3415,-3.2246,-2.8844,-2.778,-2.6997,-2.5286,-2.4784,-2.4649,-2.4676,-2.469,-2.4676,-2.4636,-2.4636,-2.4636,-2.4636,-2.4636,-2.4636,-2.4636,-2.4636,-2.4636,-2.4636,-2.4636,-2.4636,-2.4636,-2.4636,-2.4636,-2.4636,-2.4636,-2.4636,-2.4636,-2.4636,-2.4636,-2.4636,-2.4636,-2.4636,-2.4636,-2.4636,-2.4502,-2.4018,-2.4477,-2.5232,-2.5402,-2.4914,-2.4231,-2.3506,0.0,-2.2988,0.0,0.0,0.0,0.0,0.0,0.0,0.0,-2.2187,0.0,0.0,0.0,0.0,0.0,0.0,0.0,0.0,0.0,0.0,0.0,-1.9264,-1.9212,-1.989,-2.0397,-2.0753,-2.0893,-2.1032,-2.1109,-2.1109,-2.1109,-2.1109,-2.1109,-2.1109,-2.1186,-2.1339,-2.1521,-2.1697,-2.1949,-2.2258,-2.2485,-2.2619,-2.2792,-2.2928,-2.2873,-2.3006,-2.3313,-2.3741,-2.4075,-2.4275,-2.4409,-2.4583,-2.4636,-2.4636,-2.4636,-2.7201,-3.031,-3.031,-3.2943,-3.6016,-3.6016,-3.6016,-3.6016,-3.6016,-3.5158,-3.4176,-3.3378,-3.1544,-2.9488,-2.7867,-2.6648,-2.5566,-2.4784,-2.4636,-2.4636,-2.4636,-2.4636,-2.4636,-2.4636,-2.4636,-2.4636,-2.4636,-2.4636,-2.4636,-2.4636,-2.4636,-2.4636,-2.4636,-2.4636,-2.4636,-2.4636,-2.4636,-2.4636,-2.4636,-2.4636,-2.4636,-2.4636,-2.4636,-2.4636,-2.4636,-2.4636,-2.4556,-2.4382,-2.4382,-2.4315,-2.3252,0.0,0.0,0.0,0.0,0.0,0.0,0.0,0.0,0.0,0.0,0.0,0.0,0.0,-2.1523,-2.1836,0.0,-2.1298,0.0,0.0,0.0,0.0,0.0,0.0,0.0,0.0,0.0,0.0,0.0,-1.8382,-1.9198,-1.9931,-2.0424,-2.0676,-2.0969,-2.1109,-2.1109,-2.1109,-2.1109,-2.1109,-2.1109,-2.1109,-2.1122,-2.1336,-2.1534,-2.1641,-2.2004,-2.2271,-2.2432,-2.2645,-2.2792,-2.2928,-2.2928,-2.3006,-2.326,-2.3768,-2.4062,-2.4235,-2.4449,-2.4569,-2.4636,-2.4636,-2.6837,-2.9544,-2.9544,-3.2176,-3.5226,-3.5226,-3.5587,-3.6016,-3.6016,-3.459,-3.3101,-3.2525,-2.9916,-2.736,-2.6779,-2.5566,-2.4636,-2.4636,-2.4636,-2.4636,-2.4636,-2.4636,-2.4636,-2.4636,-2.4636,-2.4636,-2.4636,-2.4636,-2.4636,-2.4636,-2.4636,-2.4636,-2.4636,-2.4636,-2.4636,-2.4636,-2.4636,-2.4636,-2.4636,-2.4636,-2.4636,-2.4636,-2.4636,-2.4636,-2.4636,-2.4636,-2.4489,-2.4209,-2.4209,-2.4115,0.0,0.0,0.0,-2.4158,0.0,0.0,0.0,0.0,-2.4629,0.0,0.0,0.0,0.0,-2.2441,-2.1875,-2.1894,-2.1523,0.0,0.0,0.0,0.0,0.0,0.0,0.0,0.0,0.0,0.0,0.0,0.0,0.0,-1.8834,-1.9224,-1.9801,-2.065,-2.0969,-2.1109,-2.1109,-2.1109,-2.1109,-2.1109,-2.1109,-2.1109,-2.1109,-2.1122,-2.1283,-2.1614,-2.1641,-2.1897,-2.2418,-2.2432,-2.2605,-2.2928,-2.2928,-2.2941,-2.2913,-2.3233,-2.3714,-2.4209,-2.4209,-2.4396,-2.4636,-2.4636,-2.5932,-2.7578,-2.7578,-3.0272,-3.3309,-3.3309,-3.459,-3.6016,-3.6016,-3.459,-3.2735,-3.0805,-2.8916,-2.6997,-2.5065,-2.4636,-2.4636,-2.4636,-2.4636,-2.4636,-2.4636,-2.4636,-2.4636,-2.4636,-2.4636,-2.4636,-2.4636,-2.4636,-2.4636,-2.4636,-2.4636,-2.4636,-2.4636,-2.4636,-2.4636,-2.4636,-2.4636,-2.4636,-2.4636,-2.4636,-2.4636,-2.4636,-2.4636,-2.4636,-2.4636,-2.4636,-2.4489,-2.4209,-2.4209,-2.3901,0.0,0.0,-2.4337,-2.4561,0.0,0.0,0.0,0.0,0.0,0.0,0.0,0.0,0.0,-2.2676,-2.2305,-2.2305,-2.1658,-2.0539,0.0,0.0,0.0,0.0,0.0,0.0,0.0,0.0,0.0,0.0,-1.6462,0.0,0.0,-1.8821,-1.9628,-2.008,-2.06,-2.0893,-2.1109,-2.1109,-2.1109,-2.1109,-2.1109,-2.1109,-2.1109,-2.1109,-2.1162,-2.1269,-2.1534,-2.1735,-2.1871,-2.2258,-2.2472,-2.2592,-2.2779,-2.2928,-2.2899,-2.3207,-2.3447,-2.3674,-2.4062,-2.4396,-2.4636,-2.4636,-2.5932,-2.7505,-2.7505,-3.0201,-3.317,-3.317,-3.3674,-3.4158,-3.4158,-3.1825,-2.9274,-2.8629,-2.6997,-2.5419,-2.471,-2.4636,-2.4636,-2.4636,-2.4636,-2.4636,-2.4636,-2.4636,-2.4636,-2.4636,-2.4636,-2.4636,-2.4636,-2.4636,-2.4636,-2.4636,-2.4636,-2.4636,-2.4636,-2.4636,-2.4636,-2.4636,-2.4636,-2.4636,-2.4636,-2.4636,-2.4636,-2.4636,-2.4636,-2.4636,-2.4636,-2.4449,-2.4195,-2.3915,-2.3714,-2.3514,-2.2004,-2.2299,0.0,-2.3638,-2.313,0.0,-2.3039,0.0,-2.3883,0.0,0.0,0.0,0.0,-2.3115,-2.2793,-2.2949,-2.2129,-2.0356,0.0,-1.5539,0.0,0.0,0.0,0.0,0.0,0.0,-1.5723,-1.5313,-1.5568,0.0,0.0,0.0,-1.9194,-1.9762,-2.0391,-2.0829,-2.1109,-2.1109,-2.1109,-2.1109,-2.1109,-2.1109,-2.1109,-2.1109,-2.1109,-2.1122,-2.1309,-2.1521,-2.1655,-2.2071,-2.2325,-2.2445,-2.2752,-2.2928,-2.2886,-2.3086,-2.3233,-2.3407,-2.3995,-2.4329,-2.4502,-2.4609,-2.5419,-2.6502,-2.6502,-2.9131,-3.2018,-3.1333,-3.2176,-3.3031,-3.2386,-2.9845,-2.7505,-2.7505,-2.6005,-2.4636,-2.4636,-2.4636,-2.4636,-2.4636,-2.4636,-2.4636,-2.4636,-2.4636,-2.4636,-2.4636,-2.4636,-2.4636,-2.4636,-2.4636,-2.4636,-2.4636,-2.4636,-2.4636,-2.4636,-2.4636,-2.4636,-2.4636,-2.4636,-2.4636,-2.4636,-2.4636,-2.4636,-2.4636,-2.4529,-2.4476,-2.4476,-2.4195,-2.3901,-2.3607,-2.342,-2.326]}]]